Time,TemperatureF,DewpointF,PressureIn,WindDirection,WindDirectionDegrees,WindSpeedMPH,WindSpeedGustMPH,Humidity,HourlyPrecipIn,Conditions,Clouds,dailyrainin,SoftwareType,DateUTC
2013-06-18 00:00:00,65.7,52.3,28.97,East,99,4.9,5.4,62,0.00,,---,0.00,VWS V14.01,2013-06-18 04:00:00,
2013-06-18 00:01:00,65.7,52.3,28.97,NE,53,3.1,4.9,62,0.00,,---,0.00,VWS V14.01,2013-06-18 04:01:00,
2013-06-18 00:02:00,65.7,52.7,28.97,East,86,5.4,6.9,63,0.00,,---,0.00,VWS V14.01,2013-06-18 04:02:00,
2013-06-18 00:03:00,65.7,52.7,28.97,ENE,69,4.5,5.4,63,0.00,,---,0.00,VWS V14.01,2013-06-18 04:03:00,
2013-06-18 00:04:00,65.7,52.7,28.97,NE,48,4.9,6.7,63,0.00,,---,0.00,VWS V14.01,2013-06-18 04:04:00,
2013-06-18 00:05:00,65.5,52.6,28.97,NNE,27,3.6,6.3,63,0.00,,---,0.00,VWS V14.01,2013-06-18 04:05:00,
2013-06-18 00:06:00,65.5,52.6,28.97,NE,55,0.0,3.6,63,0.00,,---,0.00,VWS V14.01,2013-06-18 04:06:00,
2013-06-18 00:07:00,65.5,52.6,28.97,ENE,68,0.0,5.8,63,0.00,,---,0.00,VWS V14.01,2013-06-18 04:07:00,
2013-06-18 00:08:00,65.5,52.6,28.97,East,96,4.5,5.4,63,0.00,,---,0.00,VWS V14.01,2013-06-18 04:08:00,
2013-06-18 00:09:00,65.5,52.6,28.97,ENE,78,4.9,6.7,63,0.00,,---,0.00,VWS V14.01,2013-06-18 04:09:00,
2013-06-18 00:10:00,65.5,52.6,28.97,ESE,103,6.3,6.3,63,0.00,,---,0.00,VWS V14.01,2013-06-18 04:10:00,
2013-06-18 00:11:00,65.3,52.8,28.97,NE,50,4.0,6.7,64,0.00,,---,0.00,VWS V14.01,2013-06-18 04:11:00,
2013-06-18 00:12:00,65.3,52.8,28.97,ESE,111,4.9,5.4,64,0.00,,---,0.00,VWS V14.01,2013-06-18 04:12:00,
2013-06-18 00:13:00,65.3,52.8,28.97,East,87,4.9,5.4,64,0.00,,---,0.00,VWS V14.01,2013-06-18 04:13:00,
2013-06-18 00:14:00,65.3,52.8,28.97,ENE,67,4.9,5.8,64,0.00,,---,0.00,VWS V14.01,2013-06-18 04:14:00,
2013-06-18 00:15:00,65.3,52.8,28.97,ENE,70,4.5,6.7,64,0.00,,---,0.00,VWS V14.01,2013-06-18 04:15:00,
2013-06-18 00:16:00,65.3,52.8,28.97,ESE,103,3.6,5.8,64,0.00,,---,0.00,VWS V14.01,2013-06-18 04:16:00,
2013-06-18 00:17:00,65.3,52.8,28.97,East,97,3.6,4.9,64,0.00,,---,0.00,VWS V14.01,2013-06-18 04:17:00,
2013-06-18 00:18:00,65.3,52.8,28.97,East,97,4.5,6.7,64,0.00,,---,0.00,VWS V14.01,2013-06-18 04:18:00,
2013-06-18 00:19:00,65.1,52.7,28.97,ESE,108,5.4,7.8,64,0.00,,---,0.00,VWS V14.01,2013-06-18 04:19:00,
2013-06-18 00:20:00,65.1,52.7,28.97,ENE,71,3.1,5.4,64,0.00,,---,0.00,VWS V14.01,2013-06-18 04:20:00,
2013-06-18 00:21:00,65.1,52.7,28.97,ENE,72,4.0,4.5,64,0.00,,---,0.00,VWS V14.01,2013-06-18 04:21:00,
2013-06-18 00:22:00,65.1,53.1,28.97,East,95,5.8,5.8,65,0.00,,---,0.00,VWS V14.01,2013-06-18 04:22:00,
2013-06-18 00:23:00,65.1,53.1,28.97,ENE,68,4.9,5.8,65,0.00,,---,0.00,VWS V14.01,2013-06-18 04:23:00,
2013-06-18 00:24:00,65.1,53.1,28.97,ESE,109,4.0,5.4,65,0.00,,---,0.00,VWS V14.01,2013-06-18 04:24:00,
2013-06-18 00:25:00,65.1,53.1,28.97,ESE,115,3.1,5.4,65,0.00,,---,0.00,VWS V14.01,2013-06-18 04:25:00,
2013-06-18 00:26:00,64.9,52.9,28.97,ENE,57,0.0,5.4,65,0.00,,---,0.00,VWS V14.01,2013-06-18 04:26:00,
2013-06-18 00:27:00,64.9,52.9,28.97,SE,125,3.6,6.3,65,0.00,,---,0.00,VWS V14.01,2013-06-18 04:27:00,
2013-06-18 00:28:00,64.9,52.9,28.97,ENE,75,0.0,4.9,65,0.00,,---,0.00,VWS V14.01,2013-06-18 04:28:00,
2013-06-18 00:29:00,64.9,52.9,28.97,ENE,71,0.0,4.0,65,0.00,,---,0.00,VWS V14.01,2013-06-18 04:29:00,
2013-06-18 00:30:00,64.9,52.9,28.97,East,92,2.7,3.6,65,0.00,,---,0.00,VWS V14.01,2013-06-18 04:30:00,
2013-06-18 00:31:00,64.8,52.7,28.97,ENE,77,0.0,4.5,65,0.00,,---,0.00,VWS V14.01,2013-06-18 04:31:00,
2013-06-18 00:32:00,64.8,52.7,28.97,ENE,78,3.6,4.5,65,0.00,,---,0.00,VWS V14.01,2013-06-18 04:32:00,
2013-06-18 00:33:00,64.8,53.2,28.97,ENE,61,4.0,4.9,66,0.00,,---,0.00,VWS V14.01,2013-06-18 04:33:00,
2013-06-18 00:34:00,64.8,53.2,28.97,ESE,116,3.1,4.9,66,0.00,,---,0.00,VWS V14.01,2013-06-18 04:34:00,
2013-06-18 00:35:00,64.8,53.2,28.97,ENE,70,4.9,4.9,66,0.00,,---,0.00,VWS V14.01,2013-06-18 04:35:00,
2013-06-18 00:36:00,64.8,53.2,28.97,ESE,117,4.5,6.3,66,0.00,,---,0.00,VWS V14.01,2013-06-18 04:36:00,
2013-06-18 00:37:00,64.8,53.2,28.97,ENE,74,0.0,4.5,66,0.00,,---,0.00,VWS V14.01,2013-06-18 04:37:00,
2013-06-18 00:38:00,64.6,53.4,28.97,SSE,149,5.8,6.7,67,0.00,,---,0.00,VWS V14.01,2013-06-18 04:38:00,
2013-06-18 00:39:00,64.6,53.4,28.97,ESE,104,5.4,6.7,67,0.00,,---,0.00,VWS V14.01,2013-06-18 04:39:00,
2013-06-18 00:40:00,64.6,53.4,28.97,ESE,120,3.1,5.4,67,0.00,,---,0.00,VWS V14.01,2013-06-18 04:40:00,
2013-06-18 00:41:00,64.6,53.4,28.97,ESE,114,4.0,4.0,67,0.00,,---,0.00,VWS V14.01,2013-06-18 04:41:00,
2013-06-18 00:42:00,64.6,53.4,29.00,SE,125,5.8,6.7,67,0.00,,---,0.00,VWS V14.01,2013-06-18 04:42:00,
2013-06-18 00:43:00,64.6,53.4,29.00,ESE,116,4.0,6.3,67,0.00,,---,0.00,VWS V14.01,2013-06-18 04:43:00,
2013-06-18 00:44:00,64.6,53.4,29.00,SE,125,4.9,7.4,67,0.00,,---,0.00,VWS V14.01,2013-06-18 04:44:00,
2013-06-18 00:45:00,64.6,53.4,29.00,East,98,4.0,4.9,67,0.00,,---,0.00,VWS V14.01,2013-06-18 04:45:00,
2013-06-18 00:46:00,64.6,53.4,29.00,ESE,119,3.6,4.5,67,0.00,,---,0.00,VWS V14.01,2013-06-18 04:46:00,
2013-06-18 00:47:00,64.6,53.4,29.00,ESE,112,3.6,5.4,67,0.00,,---,0.00,VWS V14.01,2013-06-18 04:47:00,
2013-06-18 00:48:00,64.4,53.2,29.00,East,98,3.6,3.6,67,0.00,,---,0.00,VWS V14.01,2013-06-18 04:48:00,
2013-06-18 00:49:00,64.4,53.2,29.00,East,98,4.5,5.8,67,0.00,,---,0.00,VWS V14.01,2013-06-18 04:49:00,
2013-06-18 00:50:00,64.4,53.6,29.00,ESE,116,5.4,5.4,68,0.00,,---,0.00,VWS V14.01,2013-06-18 04:50:00,
2013-06-18 00:51:00,64.4,53.6,29.00,East,94,4.0,6.3,68,0.00,,---,0.00,VWS V14.01,2013-06-18 04:51:00,
2013-06-18 00:52:00,64.4,53.6,29.00,East,90,4.9,4.9,68,0.00,,---,0.00,VWS V14.01,2013-06-18 04:52:00,
2013-06-18 00:53:00,64.4,53.6,29.00,ESE,121,5.4,5.8,68,0.00,,---,0.00,VWS V14.01,2013-06-18 04:53:00,
2013-06-18 00:54:00,64.4,53.6,29.00,ESE,106,2.7,5.4,68,0.00,,---,0.00,VWS V14.01,2013-06-18 04:54:00,
2013-06-18 00:55:00,64.2,53.5,29.00,SE,124,4.5,5.4,68,0.00,,---,0.00,VWS V14.01,2013-06-18 04:55:00,
2013-06-18 00:56:00,64.2,53.5,29.00,East,97,3.6,5.4,68,0.00,,---,0.00,VWS V14.01,2013-06-18 04:56:00,
2013-06-18 00:57:00,64.2,53.8,29.00,ESE,106,4.0,4.0,69,0.00,,---,0.00,VWS V14.01,2013-06-18 04:57:00,
2013-06-18 00:58:00,64.2,53.8,29.00,ESE,118,4.5,4.9,69,0.00,,---,0.00,VWS V14.01,2013-06-18 04:58:00,
2013-06-18 00:59:00,64.2,53.8,29.00,SE,129,5.8,6.7,69,0.00,,---,0.00,VWS V14.01,2013-06-18 04:59:00,
2013-06-18 01:00:00,64.2,53.8,29.00,ESE,103,3.6,5.8,69,0.00,,---,0.00,VWS V14.01,2013-06-18 05:00:00,
2013-06-18 01:01:00,64.0,53.7,29.00,SE,124,4.9,6.7,69,0.00,,---,0.00,VWS V14.01,2013-06-18 05:01:00,
2013-06-18 01:02:00,64.0,53.7,29.00,SE,125,4.5,5.4,69,0.00,,---,0.00,VWS V14.01,2013-06-18 05:02:00,
2013-06-18 01:03:00,64.0,53.7,29.00,ESE,103,3.1,5.4,69,0.00,,---,0.00,VWS V14.01,2013-06-18 05:03:00,
2013-06-18 01:04:00,64.0,54.1,29.00,East,99,4.0,4.0,70,0.00,,---,0.00,VWS V14.01,2013-06-18 05:04:00,
2013-06-18 01:05:00,64.0,54.1,29.00,East,85,4.9,6.3,70,0.00,,---,0.00,VWS V14.01,2013-06-18 05:05:00,
2013-06-18 01:06:00,63.9,53.9,29.00,East,79,3.6,4.9,70,0.00,,---,0.00,VWS V14.01,2013-06-18 05:06:00,
2013-06-18 01:07:00,63.9,53.9,29.00,East,85,4.5,4.5,70,0.00,,---,0.00,VWS V14.01,2013-06-18 05:07:00,
2013-06-18 01:08:00,63.9,53.9,29.00,SE,134,6.3,7.8,70,0.00,,---,0.00,VWS V14.01,2013-06-18 05:08:00,
2013-06-18 01:09:00,63.9,53.9,29.00,ESE,114,4.0,6.9,70,0.00,,---,0.00,VWS V14.01,2013-06-18 05:09:00,
2013-06-18 01:10:00,63.9,53.9,29.00,East,99,5.4,5.4,70,0.00,,---,0.00,VWS V14.01,2013-06-18 05:10:00,
2013-06-18 01:11:00,63.9,54.3,29.00,East,95,3.6,5.4,71,0.00,,---,0.00,VWS V14.01,2013-06-18 05:11:00,
2013-06-18 01:12:00,63.7,54.1,29.00,East,81,4.9,4.9,71,0.00,,---,0.00,VWS V14.01,2013-06-18 05:12:00,
2013-06-18 01:13:00,63.7,54.1,29.00,East,101,3.1,4.9,71,0.00,,---,0.00,VWS V14.01,2013-06-18 05:13:00,
2013-06-18 01:14:00,63.7,54.1,29.00,ESE,118,4.5,4.9,71,0.00,,---,0.00,VWS V14.01,2013-06-18 05:14:00,
2013-06-18 01:15:00,63.7,54.1,29.00,ESE,117,2.7,4.5,71,0.00,,---,0.00,VWS V14.01,2013-06-18 05:15:00,
2013-06-18 01:16:00,63.7,54.1,29.00,ENE,74,4.0,4.0,71,0.00,,---,0.00,VWS V14.01,2013-06-18 05:16:00,
2013-06-18 01:17:00,63.5,53.9,29.00,ENE,78,3.1,5.8,71,0.00,,---,0.00,VWS V14.01,2013-06-18 05:17:00,
2013-06-18 01:18:00,63.5,53.9,29.00,East,87,3.6,5.4,71,0.00,,---,0.00,VWS V14.01,2013-06-18 05:18:00,
2013-06-18 01:19:00,63.5,53.9,29.00,ESE,107,3.1,4.5,71,0.00,,---,0.00,VWS V14.01,2013-06-18 05:19:00,
2013-06-18 01:20:00,63.5,54.3,29.00,SE,126,4.9,6.7,72,0.00,,---,0.00,VWS V14.01,2013-06-18 05:20:00,
2013-06-18 01:21:00,63.5,54.3,29.00,ESE,116,4.5,6.3,72,0.00,,---,0.00,VWS V14.01,2013-06-18 05:21:00,
2013-06-18 01:22:00,63.5,54.3,29.00,East,99,4.0,5.4,72,0.00,,---,0.00,VWS V14.01,2013-06-18 05:22:00,
2013-06-18 01:23:00,63.5,54.3,29.00,ESE,105,4.5,4.9,72,0.00,,---,0.00,VWS V14.01,2013-06-18 05:23:00,
2013-06-18 01:24:00,63.5,54.7,29.00,ENE,65,4.0,5.4,73,0.00,,---,0.00,VWS V14.01,2013-06-18 05:24:00,
2013-06-18 01:25:00,70.5,59.0,28.82,SE,139,0.0,0.0,67,0.00,,---,0.00,VWS V14.01,2013-06-18 05:25:00,
2013-06-18 01:26:00,63.3,54.5,29.00,ESE,105,6.3,6.3,73,0.00,,---,0.00,VWS V14.01,2013-06-18 05:26:00,
2013-06-18 01:27:00,63.3,54.5,28.97,East,83,4.5,6.3,73,0.00,,---,0.00,VWS V14.01,2013-06-18 05:27:00,
2013-06-18 01:28:00,63.3,54.5,28.97,East,97,3.1,4.5,73,0.00,,---,0.00,VWS V14.01,2013-06-18 05:28:00,
2013-06-18 01:29:00,63.3,54.5,28.97,East,97,5.8,5.8,73,0.00,,---,0.00,VWS V14.01,2013-06-18 05:29:00,
2013-06-18 01:30:00,63.3,54.5,28.97,ESE,121,3.6,6.9,73,0.00,,---,0.00,VWS V14.01,2013-06-18 05:30:00,
2013-06-18 01:31:00,63.3,54.5,28.97,East,95,4.9,5.4,73,0.00,,---,0.00,VWS V14.01,2013-06-18 05:31:00,
2013-06-18 01:32:00,63.3,54.5,28.97,ESE,120,6.7,6.7,73,0.00,,---,0.00,VWS V14.01,2013-06-18 05:32:00,
2013-06-18 01:33:00,70.3,59.3,28.82,SE,139,0.0,0.0,68,0.00,,---,0.00,VWS V14.01,2013-06-18 05:33:00,
2013-06-18 01:34:00,63.3,54.5,28.97,ESE,107,3.6,5.8,73,0.00,,---,0.00,VWS V14.01,2013-06-18 05:34:00,
2013-06-18 01:35:00,63.1,54.3,28.97,East,99,3.6,4.5,73,0.00,,---,0.00,VWS V14.01,2013-06-18 05:35:00,
2013-06-18 01:36:00,63.1,54.3,28.97,East,82,3.6,3.6,73,0.00,,---,0.00,VWS V14.01,2013-06-18 05:36:00,
2013-06-18 01:37:00,63.1,54.3,28.97,ESE,108,4.9,4.9,73,0.00,,---,0.00,VWS V14.01,2013-06-18 05:37:00,
2013-06-18 01:38:00,70.2,59.1,28.82,SE,139,0.0,0.0,68,0.00,,---,0.00,VWS V14.01,2013-06-18 05:38:00,
2013-06-18 01:39:00,63.1,54.7,28.97,ESE,108,2.7,5.4,74,0.00,,---,0.00,VWS V14.01,2013-06-18 05:39:00,
2013-06-18 01:40:00,63.1,54.7,28.97,East,98,3.6,5.4,74,0.00,,---,0.00,VWS V14.01,2013-06-18 05:40:00,
2013-06-18 01:41:00,63.1,54.7,28.97,East,98,0.0,3.6,74,0.00,,---,0.00,VWS V14.01,2013-06-18 05:41:00,
2013-06-18 01:42:00,63.0,54.5,28.97,ESE,106,5.4,5.8,74,0.00,,---,0.00,VWS V14.01,2013-06-18 05:42:00,
2013-06-18 01:43:00,70.2,59.1,28.82,SE,139,0.0,0.0,68,0.00,,---,0.00,VWS V14.01,2013-06-18 05:43:00,
2013-06-18 01:44:00,63.0,54.5,28.97,ENE,64,4.9,5.4,74,0.00,,---,0.00,VWS V14.01,2013-06-18 05:44:00,
2013-06-18 01:45:00,63.0,54.5,28.97,ESE,106,4.0,6.3,74,0.00,,---,0.00,VWS V14.01,2013-06-18 05:45:00,
2013-06-18 01:46:00,63.0,54.9,28.97,East,83,3.6,4.9,75,0.00,,---,0.00,VWS V14.01,2013-06-18 05:46:00,
2013-06-18 01:47:00,63.0,54.9,28.97,ENE,72,3.1,4.5,75,0.00,,---,0.00,VWS V14.01,2013-06-18 05:47:00,
2013-06-18 01:48:00,62.8,54.8,28.97,ENE,70,0.0,4.5,75,0.00,,---,0.00,VWS V14.01,2013-06-18 05:48:00,
2013-06-18 01:49:00,62.8,54.8,28.97,ENE,70,5.4,5.4,75,0.00,,---,0.00,VWS V14.01,2013-06-18 05:49:00,
2013-06-18 01:50:00,70.0,59.0,28.82,SE,139,0.0,0.0,68,0.00,,---,0.00,VWS V14.01,2013-06-18 05:50:00,
2013-06-18 01:51:00,62.8,55.1,28.97,ENE,74,3.6,4.5,76,0.00,,---,0.00,VWS V14.01,2013-06-18 05:51:00,
2013-06-18 01:52:00,62.8,55.1,28.97,East,93,4.0,4.9,76,0.00,,---,0.00,VWS V14.01,2013-06-18 05:52:00,
2013-06-18 01:53:00,62.8,55.1,28.97,ESE,112,4.5,5.4,76,0.00,,---,0.00,VWS V14.01,2013-06-18 05:53:00,
2013-06-18 01:54:00,62.8,55.1,28.97,ENE,70,2.7,4.5,76,0.00,,---,0.00,VWS V14.01,2013-06-18 05:54:00,
2013-06-18 01:55:00,62.6,54.9,28.97,ESE,121,3.6,4.5,76,0.00,,---,0.00,VWS V14.01,2013-06-18 05:55:00,
2013-06-18 01:56:00,62.6,54.9,28.97,ESE,119,4.5,4.5,76,0.00,,---,0.00,VWS V14.01,2013-06-18 05:56:00,
2013-06-18 01:57:00,62.6,54.9,29.00,ESE,113,4.5,4.9,76,0.00,,---,0.00,VWS V14.01,2013-06-18 05:57:00,
2013-06-18 01:58:00,69.8,58.8,28.82,SE,139,0.0,0.0,68,0.00,,---,0.00,VWS V14.01,2013-06-18 05:58:00,
2013-06-18 01:59:00,62.6,55.3,29.00,East,98,0.0,3.1,77,0.00,,---,0.00,VWS V14.01,2013-06-18 05:59:00,
2013-06-18 02:00:00,62.6,55.3,29.00,SE,126,3.1,4.5,77,0.00,,---,0.00,VWS V14.01,2013-06-18 06:00:00,
2013-06-18 02:02:00,62.6,55.3,29.00,SE,127,6.9,6.9,77,0.00,,---,0.00,VWS V14.01,2013-06-18 06:02:00,
2013-06-18 02:03:00,69.8,59.2,28.82,SE,139,0.0,0.0,69,0.00,,---,0.00,VWS V14.01,2013-06-18 06:03:00,
2013-06-18 02:04:00,62.4,55.1,29.00,NE,49,5.4,5.4,77,0.00,,---,0.00,VWS V14.01,2013-06-18 06:04:00,
2013-06-18 02:05:00,62.4,55.1,29.00,ESE,107,6.3,6.3,77,0.00,,---,0.00,VWS V14.01,2013-06-18 06:05:00,
2013-06-18 02:06:00,62.4,55.5,29.00,ESE,120,6.3,6.3,78,0.00,,---,0.00,VWS V14.01,2013-06-18 06:06:00,
2013-06-18 02:07:00,62.4,55.5,29.00,East,93,6.3,8.3,78,0.00,,---,0.00,VWS V14.01,2013-06-18 06:07:00,
2013-06-18 02:08:00,69.8,59.2,28.82,SE,139,0.0,0.0,69,0.00,,---,0.00,VWS V14.01,2013-06-18 06:08:00,
2013-06-18 02:09:00,62.4,55.5,29.00,ENE,60,4.9,6.3,78,0.00,,---,0.00,VWS V14.01,2013-06-18 06:09:00,
2013-06-18 02:10:00,62.4,55.5,29.00,SE,125,4.9,4.9,78,0.00,,---,0.00,VWS V14.01,2013-06-18 06:10:00,
2013-06-18 02:11:00,62.4,55.5,29.00,East,89,3.1,4.9,78,0.00,,---,0.00,VWS V14.01,2013-06-18 06:11:00,
2013-06-18 02:12:00,62.4,55.5,28.97,ESE,114,4.0,4.5,78,0.00,,---,0.00,VWS V14.01,2013-06-18 06:12:00,
2013-06-18 02:13:00,69.8,59.2,28.82,SE,139,0.0,0.0,69,0.00,,---,0.00,VWS V14.01,2013-06-18 06:13:00,
2013-06-18 02:14:00,62.4,55.5,28.97,East,80,0.0,4.5,78,0.00,,---,0.00,VWS V14.01,2013-06-18 06:14:00,
2013-06-18 02:16:00,62.2,55.3,28.97,East,96,2.7,3.6,78,0.00,,---,0.00,VWS V14.01,2013-06-18 06:16:00,
2013-06-18 02:17:00,62.2,55.3,28.97,East,96,0.0,3.6,78,0.00,,---,0.00,VWS V14.01,2013-06-18 06:17:00,
2013-06-18 02:18:00,70.0,60.2,28.82,SSE,162,0.0,0.0,71,0.00,,---,0.00,VWS V14.01,2013-06-18 06:18:00,
2013-06-18 02:19:00,62.2,55.3,28.97,East,89,3.1,5.8,78,0.00,,---,0.00,VWS V14.01,2013-06-18 06:19:00,
2013-06-18 02:20:00,62.2,55.3,28.97,ESE,103,5.8,5.8,78,0.00,,---,0.00,VWS V14.01,2013-06-18 06:20:00,
2013-06-18 02:21:00,62.2,55.3,28.97,ESE,111,4.9,7.8,78,0.00,,---,0.00,VWS V14.01,2013-06-18 06:21:00,
2013-06-18 02:22:00,62.1,55.5,28.97,East,95,4.5,7.4,79,0.00,,---,0.00,VWS V14.01,2013-06-18 06:22:00,
2013-06-18 02:23:00,70.0,61.3,28.82,SSE,162,0.0,0.0,74,0.00,,---,0.00,VWS V14.01,2013-06-18 06:23:00,
2013-06-18 02:24:00,62.1,55.5,28.97,ESE,109,0.0,4.5,79,0.00,,---,0.00,VWS V14.01,2013-06-18 06:24:00,
2013-06-18 02:25:00,62.1,55.5,28.97,East,86,4.0,5.4,79,0.00,,---,0.00,VWS V14.01,2013-06-18 06:25:00,
2013-06-18 02:26:00,62.1,55.5,28.97,East,99,3.6,4.5,79,0.00,,---,0.00,VWS V14.01,2013-06-18 06:26:00,
2013-06-18 02:27:00,62.1,55.5,28.97,ESE,113,6.9,6.9,79,0.00,,---,0.00,VWS V14.01,2013-06-18 06:27:00,
2013-06-18 02:28:00,69.8,61.2,28.82,SSE,162,0.0,0.0,74,0.00,,---,0.00,VWS V14.01,2013-06-18 06:28:00,
2013-06-18 02:29:00,61.9,55.3,28.97,East,90,3.1,6.3,79,0.00,,---,0.00,VWS V14.01,2013-06-18 06:29:00,
2013-06-18 02:30:00,61.9,55.3,28.97,SE,138,6.3,6.3,79,0.00,,---,0.00,VWS V14.01,2013-06-18 06:30:00,
2013-06-18 02:31:00,61.9,55.3,28.97,ESE,119,6.3,6.3,79,0.00,,---,0.00,VWS V14.01,2013-06-18 06:31:00,
2013-06-18 02:32:00,61.9,55.7,28.97,ESE,105,4.9,6.3,80,0.00,,---,0.00,VWS V14.01,2013-06-18 06:32:00,
2013-06-18 02:33:00,69.8,61.2,28.82,West,267,0.0,2.7,74,0.00,,---,0.00,VWS V14.01,2013-06-18 06:33:00,
2013-06-18 02:34:00,61.9,55.7,28.97,ESE,119,4.0,6.3,80,0.00,,---,0.00,VWS V14.01,2013-06-18 06:34:00,
2013-06-18 02:35:00,61.9,55.7,28.97,East,96,3.1,4.9,80,0.00,,---,0.00,VWS V14.01,2013-06-18 06:35:00,
2013-06-18 02:36:00,61.9,55.7,28.97,ESE,119,5.8,5.8,80,0.00,,---,0.00,VWS V14.01,2013-06-18 06:36:00,
2013-06-18 02:37:00,61.9,55.7,28.97,ESE,102,4.5,5.8,80,0.00,,---,0.00,VWS V14.01,2013-06-18 06:37:00,
2013-06-18 02:38:00,69.8,61.5,28.82,West,267,0.0,2.7,75,0.00,,---,0.00,VWS V14.01,2013-06-18 06:38:00,
2013-06-18 02:39:00,61.9,55.7,28.97,ENE,78,3.1,4.5,80,0.00,,---,0.00,VWS V14.01,2013-06-18 06:39:00,
2013-06-18 02:40:00,61.7,55.5,28.97,ESE,107,4.0,4.5,80,0.00,,---,0.00,VWS V14.01,2013-06-18 06:40:00,
2013-06-18 02:41:00,61.7,55.5,29.00,ESE,111,2.7,4.0,80,0.00,,---,0.00,VWS V14.01,2013-06-18 06:41:00,
2013-06-18 02:42:00,61.7,55.5,29.00,East,89,3.1,4.5,80,0.00,,---,0.00,VWS V14.01,2013-06-18 06:42:00,
2013-06-18 02:43:00,70.0,61.7,28.82,WSW,242,3.1,5.4,75,0.00,,---,0.00,VWS V14.01,2013-06-18 06:43:00,
2013-06-18 02:44:00,61.7,55.8,29.00,ENE,77,0.0,4.0,81,0.00,,---,0.00,VWS V14.01,2013-06-18 06:44:00,
2013-06-18 02:45:00,61.5,55.6,29.00,ESE,119,3.6,4.0,81,0.00,,---,0.00,VWS V14.01,2013-06-18 06:45:00,
2013-06-18 02:46:00,61.5,55.6,29.00,ESE,111,2.7,4.0,81,0.00,,---,0.00,VWS V14.01,2013-06-18 06:46:00,
2013-06-18 02:47:00,61.5,55.6,29.00,ESE,111,0.0,2.7,81,0.00,,---,0.00,VWS V14.01,2013-06-18 06:47:00,
2013-06-18 02:48:00,70.3,62.0,28.82,WNW,286,2.7,4.9,75,0.00,,---,0.00,VWS V14.01,2013-06-18 06:48:00,
2013-06-18 02:49:00,61.5,55.6,29.00,ESE,105,5.4,5.8,81,0.00,,---,0.00,VWS V14.01,2013-06-18 06:49:00,
2013-06-18 02:50:00,61.3,55.5,29.00,ESE,120,3.6,5.4,81,0.00,,---,0.00,VWS V14.01,2013-06-18 06:50:00,
2013-06-18 02:51:00,61.3,55.5,29.00,East,89,5.4,5.8,81,0.00,,---,0.00,VWS V14.01,2013-06-18 06:51:00,
2013-06-18 02:52:00,61.5,56.0,29.00,ESE,109,3.6,5.4,82,0.00,,---,0.00,VWS V14.01,2013-06-18 06:52:00,
2013-06-18 02:53:00,61.3,55.8,29.00,East,89,3.1,3.6,82,0.00,,---,0.00,VWS V14.01,2013-06-18 06:53:00,
2013-06-18 02:54:00,70.3,62.0,28.82,NW,305,2.7,2.7,75,0.00,,---,0.00,VWS V14.01,2013-06-18 06:54:00,
2013-06-18 02:55:00,61.3,55.8,29.00,ESE,123,3.1,5.4,82,0.00,,---,0.00,VWS V14.01,2013-06-18 06:55:00,
2013-06-18 02:56:00,61.3,55.8,29.00,ESE,123,0.0,3.1,82,0.00,,---,0.00,VWS V14.01,2013-06-18 06:56:00,
2013-06-18 02:57:00,61.3,55.8,29.00,ESE,123,0.0,0.0,82,0.00,,---,0.00,VWS V14.01,2013-06-18 06:57:00,
2013-06-18 02:58:00,61.3,55.8,29.00,ESE,122,5.4,5.4,82,0.00,,---,0.00,VWS V14.01,2013-06-18 06:58:00,
2013-06-18 02:59:00,70.5,63.0,28.82,North,351,4.0,5.4,77,0.00,,---,0.00,VWS V14.01,2013-06-18 06:59:00,
2013-06-18 03:00:00,61.3,55.8,29.00,ENE,70,4.0,4.0,82,0.00,,---,0.00,VWS V14.01,2013-06-18 07:00:00,
2013-06-18 03:01:00,61.3,55.8,29.00,East,90,0.0,4.0,82,0.00,,---,0.00,VWS V14.01,2013-06-18 07:01:00,
2013-06-18 03:02:00,61.3,55.8,29.00,ESE,102,0.0,4.0,82,0.00,,---,0.00,VWS V14.01,2013-06-18 07:02:00,
2013-06-18 03:03:00,61.2,55.6,29.00,ENE,64,2.7,4.0,82,0.00,,---,0.00,VWS V14.01,2013-06-18 07:03:00,
2013-06-18 03:04:00,70.7,63.9,28.85,North,351,4.5,6.3,79,0.00,,---,0.00,VWS V14.01,2013-06-18 07:04:00,
2013-06-18 03:05:00,61.2,55.6,29.00,ESE,112,3.1,3.6,82,0.00,,---,0.00,VWS V14.01,2013-06-18 07:05:00,
2013-06-18 03:06:00,61.2,55.6,29.00,ENE,70,3.6,4.0,82,0.00,,---,0.00,VWS V14.01,2013-06-18 07:06:00,
2013-06-18 03:07:00,61.0,55.5,29.00,ENE,78,3.1,4.0,82,0.00,,---,0.00,VWS V14.01,2013-06-18 07:07:00,
2013-06-18 03:08:00,61.0,55.5,29.00,East,79,0.0,3.1,82,0.00,,---,0.00,VWS V14.01,2013-06-18 07:08:00,
2013-06-18 03:09:00,70.7,63.9,28.85,East,95,0.0,0.0,79,0.00,,---,0.00,VWS V14.01,2013-06-18 07:09:00,
2013-06-18 03:10:00,61.0,55.8,29.00,East,98,0.0,4.0,83,0.00,,---,0.00,VWS V14.01,2013-06-18 07:10:00,
2013-06-18 03:11:00,61.0,55.8,29.00,ENE,70,3.6,4.0,83,0.00,,---,0.00,VWS V14.01,2013-06-18 07:11:00,
2013-06-18 03:12:00,61.0,55.8,29.00,ENE,73,0.0,3.6,83,0.00,,---,0.00,VWS V14.01,2013-06-18 07:12:00,
2013-06-18 03:13:00,61.0,55.8,29.00,ESE,103,3.6,3.6,83,0.00,,---,0.00,VWS V14.01,2013-06-18 07:13:00,
2013-06-18 03:14:00,61.0,55.8,29.00,East,82,0.0,4.5,83,0.00,,---,0.00,VWS V14.01,2013-06-18 07:14:00,
2013-06-18 03:15:00,70.5,63.7,28.85,NNW,336,4.0,4.5,79,0.00,,---,0.00,VWS V14.01,2013-06-18 07:15:00,
2013-06-18 03:16:00,61.0,55.8,29.00,East,85,0.0,4.9,83,0.00,,---,0.00,VWS V14.01,2013-06-18 07:16:00,
2013-06-18 03:17:00,60.8,55.6,29.00,ENE,75,3.6,4.0,83,0.00,,---,0.00,VWS V14.01,2013-06-18 07:17:00,
2013-06-18 03:18:00,60.8,55.6,29.00,ENE,73,3.1,5.4,83,0.00,,---,0.00,VWS V14.01,2013-06-18 07:18:00,
2013-06-18 03:19:00,60.8,55.6,29.00,ENE,73,0.0,3.6,83,0.00,,---,0.00,VWS V14.01,2013-06-18 07:19:00,
2013-06-18 03:20:00,70.5,63.7,28.85,West,267,3.6,6.9,79,0.00,,---,0.00,VWS V14.01,2013-06-18 07:20:00,
2013-06-18 03:21:00,60.8,55.9,29.00,East,95,2.7,5.4,84,0.00,,---,0.00,VWS V14.01,2013-06-18 07:21:00,
2013-06-18 03:22:00,60.8,55.9,29.00,East,89,3.1,4.9,84,0.00,,---,0.00,VWS V14.01,2013-06-18 07:22:00,
2013-06-18 03:23:00,60.8,55.9,29.00,NE,53,3.6,3.6,84,0.00,,---,0.00,VWS V14.01,2013-06-18 07:23:00,
2013-06-18 03:24:00,60.8,55.9,29.00,East,98,0.0,3.6,84,0.00,,---,0.00,VWS V14.01,2013-06-18 07:24:00,
2013-06-18 03:25:00,70.5,63.3,28.85,West,276,0.0,2.7,78,0.00,,---,0.00,VWS V14.01,2013-06-18 07:25:00,
2013-06-18 03:26:00,60.6,55.8,29.00,ESE,109,0.0,0.0,84,0.00,,---,0.00,VWS V14.01,2013-06-18 07:26:00,
2013-06-18 03:27:00,60.6,56.1,29.00,ESE,109,0.0,0.0,85,0.00,,---,0.00,VWS V14.01,2013-06-18 07:27:00,
2013-06-18 03:28:00,60.6,56.1,29.00,ESE,109,0.0,0.0,85,0.00,,---,0.00,VWS V14.01,2013-06-18 07:28:00,
2013-06-18 03:29:00,60.6,56.1,29.00,ESE,109,0.0,0.0,85,0.00,,---,0.00,VWS V14.01,2013-06-18 07:29:00,
2013-06-18 03:30:00,70.3,63.2,28.85,West,267,0.0,3.6,78,0.00,,---,0.00,VWS V14.01,2013-06-18 07:30:00,
2013-06-18 03:31:00,60.4,55.9,29.00,ESE,109,0.0,0.0,85,0.00,,---,0.00,VWS V14.01,2013-06-18 07:31:00,
2013-06-18 03:32:00,60.4,55.9,29.00,East,96,0.0,0.0,85,0.00,,---,0.00,VWS V14.01,2013-06-18 07:32:00,
2013-06-18 03:33:00,60.4,55.9,29.00,East,91,3.1,4.9,85,0.00,,---,0.00,VWS V14.01,2013-06-18 07:33:00,
2013-06-18 03:34:00,60.4,55.9,29.00,East,91,0.0,3.1,85,0.00,,---,0.00,VWS V14.01,2013-06-18 07:34:00,
2013-06-18 03:35:00,70.3,63.2,28.85,West,276,0.0,3.1,78,0.00,,---,0.00,VWS V14.01,2013-06-18 07:35:00,
2013-06-18 03:36:00,60.4,55.9,29.00,ENE,78,0.0,3.6,85,0.00,,---,0.00,VWS V14.01,2013-06-18 07:36:00,
2013-06-18 03:37:00,60.4,55.9,29.00,ESE,104,4.0,4.0,85,0.00,,---,0.00,VWS V14.01,2013-06-18 07:37:00,
2013-06-18 03:38:00,60.4,55.9,29.00,East,79,2.7,4.0,85,0.00,,---,0.00,VWS V14.01,2013-06-18 07:38:00,
2013-06-18 03:39:00,60.4,55.9,29.00,East,79,2.7,2.7,85,0.00,,---,0.00,VWS V14.01,2013-06-18 07:39:00,
2013-06-18 03:40:00,70.2,63.0,28.85,West,276,0.0,0.0,78,0.00,,---,0.00,VWS V14.01,2013-06-18 07:40:00,
2013-06-18 03:41:00,60.4,56.2,29.00,ENE,78,0.0,4.0,86,0.00,,---,0.00,VWS V14.01,2013-06-18 07:41:00,
2013-06-18 03:42:00,60.4,56.2,29.00,ENE,78,0.0,0.0,86,0.00,,---,0.00,VWS V14.01,2013-06-18 07:42:00,
2013-06-18 03:43:00,60.4,56.2,29.00,ENE,63,0.0,0.0,86,0.00,,---,0.00,VWS V14.01,2013-06-18 07:43:00,
2013-06-18 03:44:00,60.4,56.2,29.00,East,83,0.0,0.0,86,0.00,,---,0.00,VWS V14.01,2013-06-18 07:44:00,
2013-06-18 03:45:00,70.0,62.8,28.85,West,276,0.0,0.0,78,0.00,,---,0.00,VWS V14.01,2013-06-18 07:45:00,
2013-06-18 03:46:00,60.3,56.1,29.00,East,92,0.0,0.0,86,0.00,,---,0.00,VWS V14.01,2013-06-18 07:46:00,
2013-06-18 03:47:00,60.3,56.1,29.00,East,92,0.0,0.0,86,0.00,,---,0.00,VWS V14.01,2013-06-18 07:47:00,
2013-06-18 03:48:00,60.3,56.1,29.00,East,92,0.0,0.0,86,0.00,,---,0.00,VWS V14.01,2013-06-18 07:48:00,
2013-06-18 03:49:00,60.3,56.1,29.00,East,92,3.1,3.1,86,0.00,,---,0.00,VWS V14.01,2013-06-18 07:49:00,
2013-06-18 03:50:00,69.8,62.6,28.85,West,276,0.0,0.0,78,0.00,,---,0.00,VWS V14.01,2013-06-18 07:50:00,
2013-06-18 03:51:00,60.3,56.1,29.00,ESE,118,0.0,0.0,86,0.00,,---,0.00,VWS V14.01,2013-06-18 07:51:00,
2013-06-18 03:52:00,60.1,55.9,29.00,SE,138,3.1,3.1,86,0.00,,---,0.00,VWS V14.01,2013-06-18 07:52:00,
2013-06-18 03:53:00,60.1,55.9,29.00,SE,129,0.0,3.1,86,0.00,,---,0.00,VWS V14.01,2013-06-18 07:53:00,
2013-06-18 03:54:00,60.1,55.9,29.00,SE,129,0.0,0.0,86,0.00,,---,0.00,VWS V14.01,2013-06-18 07:54:00,
2013-06-18 03:55:00,69.4,62.3,28.85,West,276,0.0,0.0,78,0.00,,---,0.00,VWS V14.01,2013-06-18 07:55:00,
2013-06-18 03:56:00,60.1,55.9,29.00,SE,129,0.0,0.0,86,0.00,,---,0.00,VWS V14.01,2013-06-18 07:56:00,
2013-06-18 03:57:00,60.1,55.9,29.00,East,82,0.0,0.0,86,0.00,,---,0.00,VWS V14.01,2013-06-18 07:57:00,
2013-06-18 03:58:00,60.1,55.9,29.00,ENE,68,0.0,4.0,86,0.00,,---,0.00,VWS V14.01,2013-06-18 07:58:00,
2013-06-18 03:59:00,59.9,55.7,29.00,East,95,2.7,2.7,86,0.00,,---,0.00,VWS V14.01,2013-06-18 07:59:00,
2013-06-18 04:00:00,69.4,63.0,28.85,West,276,0.0,0.0,80,0.00,,---,0.00,VWS V14.01,2013-06-18 08:00:00,
2013-06-18 04:01:00,59.9,55.7,29.00,East,100,2.7,3.6,86,0.00,,---,0.00,VWS V14.01,2013-06-18 08:01:00,
2013-06-18 04:02:00,59.9,56.0,29.00,NE,55,4.0,4.0,87,0.00,,---,0.00,VWS V14.01,2013-06-18 08:02:00,
2013-06-18 04:03:00,59.9,56.0,29.00,ENE,73,3.6,4.5,87,0.00,,---,0.00,VWS V14.01,2013-06-18 08:03:00,
2013-06-18 04:04:00,59.9,56.0,29.00,East,92,3.6,4.0,87,0.00,,---,0.00,VWS V14.01,2013-06-18 08:04:00,
2013-06-18 04:05:00,69.3,62.8,28.85,West,276,0.0,0.0,80,0.00,,---,0.00,VWS V14.01,2013-06-18 08:05:00,
2013-06-18 04:06:00,59.9,56.0,29.00,East,84,3.1,3.6,87,0.00,,---,0.00,VWS V14.01,2013-06-18 08:06:00,
2013-06-18 04:07:00,60.1,56.2,29.00,ENE,78,6.3,6.3,87,0.00,,---,0.00,VWS V14.01,2013-06-18 08:07:00,
2013-06-18 04:08:00,60.1,56.2,29.00,East,83,3.1,6.3,87,0.00,,---,0.00,VWS V14.01,2013-06-18 08:08:00,
2013-06-18 04:09:00,60.1,56.5,29.00,East,88,0.0,4.5,88,0.00,,---,0.00,VWS V14.01,2013-06-18 08:09:00,
2013-06-18 04:10:00,69.3,63.2,28.85,West,276,0.0,0.0,81,0.00,,---,0.00,VWS V14.01,2013-06-18 08:10:00,
2013-06-18 04:11:00,60.1,56.5,29.00,ESE,107,4.0,4.5,88,0.00,,---,0.00,VWS V14.01,2013-06-18 08:11:00,
2013-06-18 04:12:00,60.1,56.5,29.00,ENE,60,4.0,4.5,88,0.00,,---,0.00,VWS V14.01,2013-06-18 08:12:00,
2013-06-18 04:13:00,60.1,56.5,29.00,ENE,70,6.3,6.7,88,0.00,,---,0.00,VWS V14.01,2013-06-18 08:13:00,
2013-06-18 04:14:00,60.1,56.5,29.00,ESE,108,2.7,6.9,88,0.00,,---,0.00,VWS V14.01,2013-06-18 08:14:00,
2013-06-18 04:15:00,69.1,63.0,28.85,West,276,0.0,0.0,81,0.00,,---,0.00,VWS V14.01,2013-06-18 08:15:00,
2013-06-18 04:16:00,59.9,56.3,29.00,NE,55,0.0,3.6,88,0.00,,---,0.00,VWS V14.01,2013-06-18 08:16:00,
2013-06-18 04:17:00,59.9,56.3,29.00,ESE,122,0.0,4.0,88,0.00,,---,0.00,VWS V14.01,2013-06-18 08:17:00,
2013-06-18 04:18:00,59.9,56.7,29.00,ESE,103,4.5,5.8,89,0.00,,---,0.00,VWS V14.01,2013-06-18 08:18:00,
2013-06-18 04:19:00,59.9,56.7,29.00,NE,52,4.0,6.9,89,0.00,,---,0.00,VWS V14.01,2013-06-18 08:19:00,
2013-06-18 04:20:00,68.9,63.2,28.85,West,276,0.0,0.0,82,0.00,,---,0.00,VWS V14.01,2013-06-18 08:20:00,
2013-06-18 04:21:00,59.7,56.5,29.00,East,101,0.0,4.0,89,0.00,,---,0.00,VWS V14.01,2013-06-18 08:21:00,
2013-06-18 04:22:00,59.7,56.5,29.00,East,91,6.3,6.9,89,0.00,,---,0.00,VWS V14.01,2013-06-18 08:22:00,
2013-06-18 04:23:00,59.7,56.2,29.00,East,94,4.0,6.3,88,0.00,,---,0.00,VWS V14.01,2013-06-18 08:23:00,
2013-06-18 04:24:00,59.7,56.2,29.00,ESE,106,4.5,4.5,88,0.00,,---,0.00,VWS V14.01,2013-06-18 08:24:00,
2013-06-18 04:25:00,68.9,63.5,28.85,West,276,0.0,0.0,83,0.00,,---,0.00,VWS V14.01,2013-06-18 08:25:00,
2013-06-18 04:26:00,59.5,56.0,29.00,East,89,3.6,5.4,88,0.00,,---,0.00,VWS V14.01,2013-06-18 08:26:00,
2013-06-18 04:27:00,59.5,56.0,29.00,East,95,4.5,4.5,88,0.00,,---,0.00,VWS V14.01,2013-06-18 08:27:00,
2013-06-18 04:28:00,59.5,56.0,29.00,ENE,78,3.1,4.5,88,0.00,,---,0.00,VWS V14.01,2013-06-18 08:28:00,
2013-06-18 04:29:00,59.4,55.8,29.00,East,80,4.5,4.5,88,0.00,,---,0.00,VWS V14.01,2013-06-18 08:29:00,
2013-06-18 04:30:00,68.7,63.7,28.85,West,276,0.0,0.0,84,0.00,,---,0.00,VWS V14.01,2013-06-18 08:30:00,
2013-06-18 04:31:00,59.4,55.5,29.00,ENE,75,4.0,4.5,87,0.00,,---,0.00,VWS V14.01,2013-06-18 08:31:00,
2013-06-18 04:32:00,59.4,55.5,29.00,NE,54,3.1,4.5,87,0.00,,---,0.00,VWS V14.01,2013-06-18 08:32:00,
2013-06-18 04:33:00,59.4,55.5,29.00,ENE,73,3.6,4.9,87,0.00,,---,0.00,VWS V14.01,2013-06-18 08:33:00,
2013-06-18 04:34:00,59.4,55.5,29.00,ENE,75,0.0,3.6,87,0.00,,---,0.00,VWS V14.01,2013-06-18 08:34:00,
2013-06-18 04:35:00,68.5,63.9,28.85,West,276,0.0,0.0,85,0.00,,---,0.00,VWS V14.01,2013-06-18 08:35:00,
2013-06-18 04:36:00,59.2,55.3,29.00,ENE,73,3.1,4.5,87,0.00,,---,0.00,VWS V14.01,2013-06-18 08:36:00,
2013-06-18 04:37:00,59.2,55.3,29.00,ENE,72,0.0,3.1,87,0.00,,---,0.00,VWS V14.01,2013-06-18 08:37:00,
2013-06-18 04:38:00,59.2,55.0,29.00,ENE,75,0.0,4.0,86,0.00,,---,0.00,VWS V14.01,2013-06-18 08:38:00,
2013-06-18 04:39:00,59.2,55.0,29.00,ENE,75,0.0,0.0,86,0.00,,---,0.00,VWS V14.01,2013-06-18 08:39:00,
2013-06-18 04:40:00,68.4,63.7,28.85,West,276,0.0,0.0,85,0.00,,---,0.00,VWS V14.01,2013-06-18 08:40:00,
2013-06-18 04:41:00,59.0,54.8,29.00,East,79,0.0,2.7,86,0.00,,---,0.00,VWS V14.01,2013-06-18 08:41:00,
2013-06-18 04:42:00,59.0,54.8,29.00,East,92,0.0,3.6,86,0.00,,---,0.00,VWS V14.01,2013-06-18 08:42:00,
2013-06-18 04:43:00,59.0,54.8,29.00,East,92,0.0,0.0,86,0.00,,---,0.00,VWS V14.01,2013-06-18 08:43:00,
2013-06-18 04:44:00,59.0,54.8,29.00,East,92,0.0,0.0,86,0.00,,---,0.00,VWS V14.01,2013-06-18 08:44:00,
2013-06-18 04:45:00,68.2,63.5,28.85,West,276,0.0,0.0,85,0.00,,---,0.00,VWS V14.01,2013-06-18 08:45:00,
2013-06-18 04:46:00,58.8,54.3,29.00,East,92,0.0,0.0,85,0.00,,---,0.00,VWS V14.01,2013-06-18 08:46:00,
2013-06-18 04:47:00,58.8,54.3,29.00,East,92,0.0,0.0,85,0.00,,---,0.00,VWS V14.01,2013-06-18 08:47:00,
2013-06-18 04:48:00,58.8,54.3,29.00,East,100,3.6,4.0,85,0.00,,---,0.00,VWS V14.01,2013-06-18 08:48:00,
2013-06-18 04:49:00,58.8,54.3,29.00,East,92,4.0,4.5,85,0.00,,---,0.00,VWS V14.01,2013-06-18 08:49:00,
2013-06-18 04:50:00,68.2,63.5,28.85,West,276,0.0,0.0,85,0.00,,---,0.00,VWS V14.01,2013-06-18 08:50:00,
2013-06-18 04:51:00,58.6,54.2,29.00,ENE,75,2.7,3.1,85,0.00,,---,0.00,VWS V14.01,2013-06-18 08:51:00,
2013-06-18 04:52:00,58.6,54.2,29.00,ENE,75,0.0,2.7,85,0.00,,---,0.00,VWS V14.01,2013-06-18 08:52:00,
2013-06-18 04:53:00,58.6,54.2,29.00,ENE,72,2.7,2.7,85,0.00,,---,0.00,VWS V14.01,2013-06-18 08:53:00,
2013-06-18 04:54:00,58.6,54.2,29.00,ESE,103,3.6,3.6,85,0.00,,---,0.00,VWS V14.01,2013-06-18 08:54:00,
2013-06-18 04:55:00,68.0,63.3,28.85,West,276,0.0,0.0,85,0.00,,---,0.00,VWS V14.01,2013-06-18 08:55:00,
2013-06-18 04:56:00,58.5,54.0,29.00,ENE,65,0.0,4.9,85,0.00,,---,0.00,VWS V14.01,2013-06-18 08:56:00,
2013-06-18 04:57:00,58.5,53.7,29.00,ENE,70,4.5,5.8,84,0.00,,---,0.00,VWS V14.01,2013-06-18 08:57:00,
2013-06-18 04:58:00,58.5,53.7,29.00,ESE,103,3.6,4.5,84,0.00,,---,0.00,VWS V14.01,2013-06-18 08:58:00,
2013-06-18 04:59:00,58.3,53.5,29.00,ENE,67,3.1,4.0,84,0.00,,---,0.00,VWS V14.01,2013-06-18 08:59:00,
2013-06-18 05:00:00,68.0,63.3,28.85,West,276,0.0,0.0,85,0.00,,---,0.00,VWS V14.01,2013-06-18 09:00:00,
2013-06-18 05:01:00,58.3,53.5,29.00,ENE,68,0.0,0.0,84,0.00,,---,0.00,VWS V14.01,2013-06-18 09:01:00,
2013-06-18 05:02:00,58.3,53.5,29.00,SE,127,3.1,3.6,84,0.00,,---,0.00,VWS V14.01,2013-06-18 09:02:00,
2013-06-18 05:03:00,58.3,53.2,29.00,NE,54,3.1,4.5,83,0.00,,---,0.00,VWS V14.01,2013-06-18 09:03:00,
2013-06-18 05:04:00,58.1,53.0,29.00,East,98,0.0,4.9,83,0.00,,---,0.00,VWS V14.01,2013-06-18 09:04:00,
2013-06-18 05:05:00,58.1,53.0,29.00,East,84,2.7,4.9,83,0.00,,---,0.00,VWS V14.01,2013-06-18 09:05:00,
2013-06-18 05:06:00,68.0,63.7,28.85,West,276,0.0,0.0,86,0.00,,---,0.00,VWS V14.01,2013-06-18 09:06:00,
2013-06-18 05:07:00,58.1,53.0,29.00,NE,41,4.5,5.4,83,0.00,,---,0.00,VWS V14.01,2013-06-18 09:07:00,
2013-06-18 05:08:00,58.1,52.6,29.00,East,82,4.0,4.5,82,0.00,,---,0.00,VWS V14.01,2013-06-18 09:08:00,
2013-06-18 05:09:00,58.1,52.6,29.00,East,100,2.7,5.8,82,0.00,,---,0.00,VWS V14.01,2013-06-18 09:09:00,
2013-06-18 05:10:00,58.1,52.6,29.00,ENE,78,3.1,3.6,82,0.00,,---,0.00,VWS V14.01,2013-06-18 09:10:00,
2013-06-18 05:11:00,68.2,64.2,28.85,West,276,2.7,3.1,87,0.00,,---,0.00,VWS V14.01,2013-06-18 09:11:00,
2013-06-18 05:12:00,58.1,52.6,29.00,ENE,70,0.0,4.5,82,0.00,,---,0.00,VWS V14.01,2013-06-18 09:12:00,
2013-06-18 05:13:00,58.1,52.3,29.00,East,80,3.1,3.1,81,0.00,,---,0.00,VWS V14.01,2013-06-18 09:13:00,
2013-06-18 05:14:00,57.9,52.1,29.00,ENE,76,3.1,4.0,81,0.00,,---,0.00,VWS V14.01,2013-06-18 09:14:00,
2013-06-18 05:15:00,57.9,52.1,29.00,ESE,104,3.6,4.5,81,0.00,,---,0.00,VWS V14.01,2013-06-18 09:15:00,
2013-06-18 05:16:00,68.0,64.3,28.85,West,276,0.0,0.0,88,0.00,,---,0.00,VWS V14.01,2013-06-18 09:16:00,
2013-06-18 05:17:00,57.9,51.8,29.00,East,85,3.1,5.4,80,0.00,,---,0.00,VWS V14.01,2013-06-18 09:17:00,
2013-06-18 05:18:00,57.9,51.8,29.00,ENE,57,4.5,4.5,80,0.00,,---,0.00,VWS V14.01,2013-06-18 09:18:00,
2013-06-18 05:19:00,57.9,51.5,29.00,East,94,4.0,5.8,79,0.00,,---,0.00,VWS V14.01,2013-06-18 09:19:00,
2013-06-18 05:20:00,57.9,51.5,29.00,East,85,2.7,5.8,79,0.00,,---,0.00,VWS V14.01,2013-06-18 09:20:00,
2013-06-18 05:21:00,67.8,64.5,28.85,West,276,0.0,0.0,89,0.00,,---,0.00,VWS V14.01,2013-06-18 09:21:00,
2013-06-18 05:22:00,57.9,51.1,29.00,ENE,70,0.0,4.5,78,0.00,,---,0.00,VWS V14.01,2013-06-18 09:22:00,
2013-06-18 05:23:00,57.9,51.1,29.00,East,90,0.0,4.0,78,0.00,,---,0.00,VWS V14.01,2013-06-18 09:23:00,
2013-06-18 05:24:00,57.7,50.6,29.00,East,80,2.7,4.5,77,0.00,,---,0.00,VWS V14.01,2013-06-18 09:24:00,
2013-06-18 05:25:00,57.7,50.6,29.00,ENE,71,3.1,4.9,77,0.00,,---,0.00,VWS V14.01,2013-06-18 09:25:00,
2013-06-18 05:26:00,57.7,50.6,29.00,NE,53,0.0,4.9,77,0.00,,---,0.00,VWS V14.01,2013-06-18 09:26:00,
2013-06-18 05:27:00,57.7,50.2,29.00,ENE,62,0.0,3.1,76,0.00,,---,0.00,VWS V14.01,2013-06-18 09:27:00,
2013-06-18 05:28:00,67.6,64.6,28.85,West,276,0.0,0.0,90,0.00,,---,0.00,VWS V14.01,2013-06-18 09:28:00,
2013-06-18 05:29:00,57.7,50.2,29.00,East,81,3.1,4.5,76,0.00,,---,0.00,VWS V14.01,2013-06-18 09:29:00,
2013-06-18 05:30:00,57.6,50.1,29.00,East,91,3.6,5.8,76,0.00,,---,0.00,VWS V14.01,2013-06-18 09:30:00,
2013-06-18 05:31:00,57.6,49.7,29.00,East,94,0.0,4.0,75,0.00,,---,0.00,VWS V14.01,2013-06-18 09:31:00,
2013-06-18 05:32:00,57.6,49.7,29.00,East,95,4.0,4.9,75,0.00,,---,0.00,VWS V14.01,2013-06-18 09:32:00,
2013-06-18 05:33:00,67.5,64.4,28.85,West,276,0.0,0.0,90,0.00,,---,0.00,VWS V14.01,2013-06-18 09:33:00,
2013-06-18 05:34:00,57.6,49.7,29.00,East,79,2.7,4.0,75,0.00,,---,0.00,VWS V14.01,2013-06-18 09:34:00,
2013-06-18 05:35:00,57.6,49.7,29.00,ENE,76,3.6,4.0,75,0.00,,---,0.00,VWS V14.01,2013-06-18 09:35:00,
2013-06-18 05:36:00,57.6,49.3,29.00,East,79,0.0,5.8,74,0.00,,---,0.00,VWS V14.01,2013-06-18 09:36:00,
2013-06-18 05:37:00,57.6,49.3,29.00,ESE,104,4.9,4.9,74,0.00,,---,0.00,VWS V14.01,2013-06-18 09:37:00,
2013-06-18 05:38:00,67.3,64.2,28.85,West,276,0.0,0.0,90,0.00,,---,0.00,VWS V14.01,2013-06-18 09:38:00,
2013-06-18 05:39:00,57.4,49.2,29.00,NE,47,4.0,4.0,74,0.00,,---,0.00,VWS V14.01,2013-06-18 09:39:00,
2013-06-18 05:40:00,57.4,49.2,29.00,East,84,4.0,4.5,74,0.00,,---,0.00,VWS V14.01,2013-06-18 09:40:00,
2013-06-18 05:41:00,57.4,49.2,29.00,East,87,4.0,4.0,74,0.00,,---,0.00,VWS V14.01,2013-06-18 09:41:00,
2013-06-18 05:42:00,57.4,49.2,29.00,East,79,0.0,4.9,74,0.00,,---,0.00,VWS V14.01,2013-06-18 09:42:00,
2013-06-18 05:43:00,57.4,49.2,29.00,East,81,0.0,3.1,74,0.00,,---,0.00,VWS V14.01,2013-06-18 09:43:00,
2013-06-18 05:44:00,66.9,63.9,28.85,West,276,0.0,0.0,90,0.00,,---,0.00,VWS V14.01,2013-06-18 09:44:00,
2013-06-18 05:45:00,57.2,49.0,29.00,East,92,0.0,3.1,74,0.00,,---,0.00,VWS V14.01,2013-06-18 09:45:00,
2013-06-18 05:46:00,57.2,49.0,29.00,East,92,0.0,0.0,74,0.00,,---,0.00,VWS V14.01,2013-06-18 09:46:00,
2013-06-18 05:47:00,57.2,49.0,29.00,NE,46,0.0,0.0,74,0.00,,---,0.00,VWS V14.01,2013-06-18 09:47:00,
2013-06-18 05:48:00,57.2,49.0,29.00,East,79,0.0,0.0,74,0.00,,---,0.00,VWS V14.01,2013-06-18 09:48:00,
2013-06-18 05:49:00,66.9,63.9,28.85,West,276,0.0,0.0,90,0.00,,---,0.00,VWS V14.01,2013-06-18 09:49:00,
2013-06-18 05:50:00,57.2,49.0,29.00,East,100,0.0,4.0,74,0.00,,---,0.00,VWS V14.01,2013-06-18 09:50:00,
2013-06-18 05:51:00,57.2,49.0,29.00,ENE,77,0.0,2.7,74,0.00,,---,0.00,VWS V14.01,2013-06-18 09:51:00,
2013-06-18 05:52:00,57.2,49.0,29.00,ENE,76,4.5,4.5,74,0.00,,---,0.00,VWS V14.01,2013-06-18 09:52:00,
2013-06-18 05:53:00,57.0,48.8,29.00,East,87,3.6,4.5,74,0.00,,---,0.00,VWS V14.01,2013-06-18 09:53:00,
2013-06-18 05:54:00,57.0,48.8,29.00,East,93,0.0,5.4,74,0.00,,---,0.00,VWS V14.01,2013-06-18 09:54:00,
2013-06-18 05:55:00,66.9,64.2,28.85,West,276,0.0,0.0,91,0.00,,---,0.00,VWS V14.01,2013-06-18 09:55:00,
2013-06-18 05:56:00,57.0,48.8,29.00,East,91,0.0,4.5,74,0.00,,---,0.00,VWS V14.01,2013-06-18 09:56:00,
2013-06-18 05:57:00,57.0,48.8,29.03,East,91,0.0,0.0,74,0.00,,---,0.00,VWS V14.01,2013-06-18 09:57:00,
2013-06-18 05:58:00,57.0,48.8,29.03,East,92,0.0,3.1,74,0.00,,---,0.00,VWS V14.01,2013-06-18 09:58:00,
2013-06-18 05:59:00,56.8,48.7,29.03,ENE,62,3.6,3.6,74,0.00,,---,0.00,VWS V14.01,2013-06-18 09:59:00,
2013-06-18 06:00:00,66.6,63.9,28.85,West,276,0.0,0.0,91,0.00,,---,0.00,VWS V14.01,2013-06-18 10:00:00,
2013-06-18 06:01:00,56.8,48.7,29.03,ESE,113,0.0,3.1,74,0.00,,---,0.00,VWS V14.01,2013-06-18 10:01:00,
2013-06-18 06:02:00,56.8,48.7,29.03,East,97,2.7,4.0,74,0.00,,---,0.00,VWS V14.01,2013-06-18 10:02:00,
2013-06-18 06:03:00,56.8,48.7,29.03,ESE,110,4.5,4.9,74,0.00,,---,0.00,VWS V14.01,2013-06-18 10:03:00,
2013-06-18 06:04:00,56.8,48.3,29.03,East,88,3.1,4.5,73,0.00,,---,0.00,VWS V14.01,2013-06-18 10:04:00,
2013-06-18 06:05:00,66.6,63.9,28.85,West,276,0.0,0.0,91,0.00,,---,0.00,VWS V14.01,2013-06-18 10:05:00,
2013-06-18 06:06:00,56.8,48.3,29.03,East,82,0.0,4.0,73,0.00,,---,0.00,VWS V14.01,2013-06-18 10:06:00,
2013-06-18 06:07:00,56.8,48.3,29.03,ENE,74,0.0,4.0,73,0.00,,---,0.00,VWS V14.01,2013-06-18 10:07:00,
2013-06-18 06:08:00,56.8,48.3,29.03,ENE,68,0.0,3.1,73,0.00,,---,0.00,VWS V14.01,2013-06-18 10:08:00,
2013-06-18 06:09:00,56.8,48.3,29.03,ENE,68,0.0,0.0,73,0.00,,---,0.00,VWS V14.01,2013-06-18 10:09:00,
2013-06-18 06:10:00,66.6,63.9,28.85,West,276,0.0,0.0,91,0.00,,---,0.00,VWS V14.01,2013-06-18 10:10:00,
2013-06-18 06:11:00,56.8,48.3,29.03,East,90,0.0,0.0,73,0.00,,---,0.00,VWS V14.01,2013-06-18 10:11:00,
2013-06-18 06:12:00,56.8,48.3,29.03,ENE,76,0.0,3.1,73,0.00,,---,0.00,VWS V14.01,2013-06-18 10:12:00,
2013-06-18 06:13:00,56.7,48.1,29.03,ENE,76,0.0,0.0,73,0.00,,---,0.00,VWS V14.01,2013-06-18 10:13:00,
2013-06-18 06:14:00,56.7,48.1,29.03,ENE,76,0.0,0.0,73,0.00,,---,0.00,VWS V14.01,2013-06-18 10:14:00,
2013-06-18 06:15:00,66.6,63.9,28.85,West,276,0.0,0.0,91,0.00,,---,0.00,VWS V14.01,2013-06-18 10:15:00,
2013-06-18 06:16:00,56.7,48.1,29.03,ENE,76,0.0,0.0,73,0.00,,---,0.00,VWS V14.01,2013-06-18 10:16:00,
2013-06-18 06:17:00,56.7,48.1,29.03,East,91,2.7,3.1,73,0.00,,---,0.00,VWS V14.01,2013-06-18 10:17:00,
2013-06-18 06:18:00,56.7,48.1,29.03,East,91,0.0,2.7,73,0.00,,---,0.00,VWS V14.01,2013-06-18 10:18:00,
2013-06-18 06:19:00,56.7,48.1,29.03,East,91,0.0,0.0,73,0.00,,---,0.00,VWS V14.01,2013-06-18 10:19:00,
2013-06-18 06:20:00,56.7,48.1,29.03,East,91,0.0,2.7,73,0.00,,---,0.00,VWS V14.01,2013-06-18 10:20:00,
2013-06-18 06:21:00,66.2,63.5,28.85,West,276,0.0,0.0,91,0.00,,---,0.00,VWS V14.01,2013-06-18 10:21:00,
2013-06-18 06:22:00,56.7,48.1,29.03,East,91,0.0,0.0,73,0.00,,---,0.00,VWS V14.01,2013-06-18 10:22:00,
2013-06-18 06:23:00,56.7,48.1,29.03,ENE,73,0.0,4.5,73,0.00,,---,0.00,VWS V14.01,2013-06-18 10:23:00,
2013-06-18 06:24:00,56.7,48.1,29.03,East,82,3.6,4.0,73,0.00,,---,0.00,VWS V14.01,2013-06-18 10:24:00,
2013-06-18 06:25:00,56.7,48.1,29.03,ENE,77,0.0,4.0,73,0.00,,---,0.00,VWS V14.01,2013-06-18 10:25:00,
2013-06-18 06:26:00,56.7,48.1,29.03,ENE,77,0.0,0.0,73,0.00,,---,0.00,VWS V14.01,2013-06-18 10:26:00,
2013-06-18 06:27:00,56.7,48.1,29.03,ENE,77,0.0,0.0,73,0.00,,---,0.00,VWS V14.01,2013-06-18 10:27:00,
2013-06-18 06:28:00,66.0,63.3,28.85,West,276,0.0,0.0,91,0.00,,---,0.00,VWS V14.01,2013-06-18 10:28:00,
2013-06-18 06:29:00,56.7,47.8,29.03,ENE,77,0.0,0.0,72,0.00,,---,0.00,VWS V14.01,2013-06-18 10:29:00,
2013-06-18 06:30:00,56.7,47.8,29.03,ENE,77,0.0,0.0,72,0.00,,---,0.00,VWS V14.01,2013-06-18 10:30:00,
2013-06-18 06:31:00,56.7,47.8,29.03,ENE,77,0.0,0.0,72,0.00,,---,0.00,VWS V14.01,2013-06-18 10:31:00,
2013-06-18 06:32:00,56.5,47.6,29.03,ENE,77,0.0,0.0,72,0.00,,---,0.00,VWS V14.01,2013-06-18 10:32:00,
2013-06-18 06:33:00,65.8,63.1,28.85,West,276,0.0,0.0,91,0.00,,---,0.00,VWS V14.01,2013-06-18 10:33:00,
2013-06-18 06:34:00,56.5,47.6,29.03,ENE,77,0.0,0.0,72,0.00,,---,0.00,VWS V14.01,2013-06-18 10:34:00,
2013-06-18 06:35:00,56.5,47.6,29.03,ENE,77,0.0,0.0,72,0.00,,---,0.00,VWS V14.01,2013-06-18 10:35:00,
2013-06-18 06:36:00,56.5,47.6,29.03,ENE,77,0.0,0.0,72,0.00,,---,0.00,VWS V14.01,2013-06-18 10:36:00,
2013-06-18 06:37:00,56.5,47.6,29.03,ENE,77,0.0,0.0,72,0.00,,---,0.00,VWS V14.01,2013-06-18 10:37:00,
2013-06-18 06:38:00,65.8,63.1,28.85,West,276,0.0,0.0,91,0.00,,---,0.00,VWS V14.01,2013-06-18 10:38:00,
2013-06-18 06:39:00,56.5,47.6,29.03,ENE,77,0.0,0.0,72,0.00,,---,0.00,VWS V14.01,2013-06-18 10:39:00,
2013-06-18 06:40:00,56.7,47.8,29.03,ENE,77,0.0,0.0,72,0.00,,---,0.00,VWS V14.01,2013-06-18 10:40:00,
2013-06-18 06:41:00,56.7,47.8,29.03,ENE,77,0.0,0.0,72,0.00,,---,0.00,VWS V14.01,2013-06-18 10:41:00,
2013-06-18 06:42:00,56.7,47.8,29.03,ENE,77,0.0,3.6,72,0.00,,---,0.00,VWS V14.01,2013-06-18 10:42:00,
2013-06-18 06:43:00,65.8,63.5,28.85,West,276,0.0,0.0,92,0.00,,---,0.00,VWS V14.01,2013-06-18 10:43:00,
2013-06-18 06:44:00,56.7,48.1,29.03,East,94,0.0,4.5,73,0.00,,---,0.00,VWS V14.01,2013-06-18 10:44:00,
2013-06-18 06:45:00,56.7,48.1,29.03,East,94,0.0,0.0,73,0.00,,---,0.00,VWS V14.01,2013-06-18 10:45:00,
2013-06-18 06:46:00,56.7,48.1,29.03,East,99,0.0,3.1,73,0.00,,---,0.00,VWS V14.01,2013-06-18 10:46:00,
2013-06-18 06:47:00,56.7,48.1,29.03,East,99,0.0,0.0,73,0.00,,---,0.00,VWS V14.01,2013-06-18 10:47:00,
2013-06-18 06:48:00,66.0,63.6,28.85,West,276,0.0,0.0,92,0.00,,---,0.00,VWS V14.01,2013-06-18 10:48:00,
2013-06-18 06:49:00,56.7,48.5,29.03,East,99,0.0,0.0,74,0.00,,---,0.00,VWS V14.01,2013-06-18 10:49:00,
2013-06-18 06:50:00,56.8,48.7,29.03,East,87,0.0,4.0,74,0.00,,---,0.00,VWS V14.01,2013-06-18 10:50:00,
2013-06-18 06:51:00,56.8,48.7,29.03,East,91,5.8,5.8,74,0.00,,---,0.00,VWS V14.01,2013-06-18 10:51:00,
2013-06-18 06:52:00,56.8,48.7,29.03,ENE,71,0.0,5.8,74,0.00,,---,0.00,VWS V14.01,2013-06-18 10:52:00,
2013-06-18 06:53:00,56.8,48.7,29.03,East,97,5.8,5.8,74,0.00,,---,0.00,VWS V14.01,2013-06-18 10:53:00,
2013-06-18 06:54:00,56.8,48.7,29.03,East,91,0.0,5.8,74,0.00,,---,0.00,VWS V14.01,2013-06-18 10:54:00,
2013-06-18 06:55:00,66.2,63.8,28.85,West,276,0.0,0.0,92,0.00,,---,0.00,VWS V14.01,2013-06-18 10:55:00,
2013-06-18 06:56:00,56.8,48.7,29.03,East,81,0.0,5.8,74,0.00,,---,0.00,VWS V14.01,2013-06-18 10:56:00,
2013-06-18 06:57:00,57.0,48.8,29.06,NE,53,4.5,4.5,74,0.00,,---,0.00,VWS V14.01,2013-06-18 10:57:00,
2013-06-18 06:58:00,57.0,48.8,29.06,East,88,4.0,4.5,74,0.00,,---,0.00,VWS V14.01,2013-06-18 10:58:00,
2013-06-18 06:59:00,57.0,48.8,29.06,ENE,75,0.0,4.0,74,0.00,,---,0.00,VWS V14.01,2013-06-18 10:59:00,
2013-06-18 07:00:00,57.0,48.8,29.06,ENE,73,0.0,4.5,74,0.00,,---,0.00,VWS V14.01,2013-06-18 11:00:00,
2013-06-18 07:01:00,57.0,48.8,29.06,ENE,74,3.1,3.6,74,0.00,,---,0.00,VWS V14.01,2013-06-18 11:01:00,
2013-06-18 07:02:00,66.6,64.5,28.85,West,276,0.0,0.0,93,0.00,,---,0.00,VWS V14.01,2013-06-18 11:02:00,
2013-06-18 07:03:00,57.2,49.0,29.06,East,87,4.0,5.4,74,0.00,,---,0.00,VWS V14.01,2013-06-18 11:03:00,
2013-06-18 07:04:00,57.2,48.6,29.06,ENE,76,3.1,5.4,73,0.00,,---,0.00,VWS V14.01,2013-06-18 11:04:00,
2013-06-18 07:05:00,57.2,48.6,29.06,ESE,106,4.5,4.5,73,0.00,,---,0.00,VWS V14.01,2013-06-18 11:05:00,
2013-06-18 07:06:00,57.2,48.3,29.06,ENE,57,0.0,4.9,72,0.00,,---,0.00,VWS V14.01,2013-06-18 11:06:00,
2013-06-18 07:07:00,66.7,64.7,28.85,West,276,0.0,0.0,93,0.00,,---,0.00,VWS V14.01,2013-06-18 11:07:00,
2013-06-18 07:08:00,57.4,48.1,29.06,East,87,4.0,4.5,71,0.00,,---,0.00,VWS V14.01,2013-06-18 11:08:00,
2013-06-18 07:09:00,57.6,48.2,29.06,SE,137,2.7,5.8,71,0.00,,---,0.00,VWS V14.01,2013-06-18 11:09:00,
2013-06-18 07:10:00,57.6,47.9,29.06,ENE,68,0.0,4.5,70,0.00,,---,0.00,VWS V14.01,2013-06-18 11:10:00,
2013-06-18 07:11:00,57.6,47.9,29.06,East,85,3.6,4.9,70,0.00,,---,0.00,VWS V14.01,2013-06-18 11:11:00,
2013-06-18 07:12:00,57.6,47.9,29.06,ENE,76,2.7,5.4,70,0.00,,---,0.00,VWS V14.01,2013-06-18 11:12:00,
2013-06-18 07:13:00,66.9,64.8,28.85,West,276,2.7,3.6,93,0.00,,---,0.00,VWS V14.01,2013-06-18 11:13:00,
2013-06-18 07:14:00,57.7,47.7,29.06,East,101,3.6,4.5,69,0.00,,---,0.00,VWS V14.01,2013-06-18 11:14:00,
2013-06-18 07:15:00,57.9,47.4,29.06,East,93,5.4,6.7,68,0.00,,---,0.00,VWS V14.01,2013-06-18 11:15:00,
2013-06-18 07:16:00,57.9,47.0,29.06,ESE,110,4.9,5.4,67,0.00,,---,0.00,VWS V14.01,2013-06-18 11:16:00,
2013-06-18 07:17:00,57.9,47.0,29.06,East,98,5.8,6.3,67,0.00,,---,0.00,VWS V14.01,2013-06-18 11:17:00,
2013-06-18 07:18:00,58.1,46.8,29.06,ESE,102,4.9,5.8,66,0.00,,---,0.00,VWS V14.01,2013-06-18 11:18:00,
2013-06-18 07:19:00,58.1,46.4,29.06,ENE,57,5.4,6.3,65,0.00,,---,0.00,VWS V14.01,2013-06-18 11:19:00,
2013-06-18 07:20:00,58.1,45.6,29.06,East,95,4.9,6.3,63,0.00,,---,0.00,VWS V14.01,2013-06-18 11:20:00,
2013-06-18 07:21:00,58.3,45.8,29.06,ENE,70,3.1,6.3,63,0.00,,---,0.00,VWS V14.01,2013-06-18 11:21:00,
2013-06-18 07:22:00,58.3,45.3,29.06,East,89,4.0,5.4,62,0.00,,---,0.00,VWS V14.01,2013-06-18 11:22:00,
2013-06-18 07:23:00,58.5,45.5,29.06,East,94,5.4,5.4,62,0.00,,---,0.00,VWS V14.01,2013-06-18 11:23:00,
2013-06-18 07:24:00,58.5,45.5,29.06,ESE,108,3.6,5.8,62,0.00,,---,0.00,VWS V14.01,2013-06-18 11:24:00,
2013-06-18 07:25:00,58.5,45.1,29.06,ENE,57,3.1,4.0,61,0.00,,---,0.00,VWS V14.01,2013-06-18 11:25:00,
2013-06-18 07:26:00,58.6,45.2,29.06,ENE,75,3.6,6.7,61,0.00,,---,0.00,VWS V14.01,2013-06-18 11:26:00,
2013-06-18 07:27:00,58.6,44.8,29.06,East,94,4.0,7.4,60,0.00,,---,0.00,VWS V14.01,2013-06-18 11:27:00,
2013-06-18 07:28:00,67.6,65.6,28.85,North,351,4.5,5.4,93,0.00,,---,0.00,VWS V14.01,2013-06-18 11:28:00,
2013-06-18 07:29:00,58.8,44.5,29.06,ENE,59,4.9,6.3,59,0.00,,---,0.00,VWS V14.01,2013-06-18 11:29:00,
2013-06-18 07:30:00,58.8,44.5,29.06,East,84,3.6,5.4,59,0.00,,---,0.00,VWS V14.01,2013-06-18 11:30:00,
2013-06-18 07:31:00,58.8,44.5,29.06,East,79,4.5,5.8,59,0.00,,---,0.00,VWS V14.01,2013-06-18 11:31:00,
2013-06-18 07:32:00,59.0,44.3,29.06,SE,145,4.0,4.5,58,0.00,,---,0.00,VWS V14.01,2013-06-18 11:32:00,
2013-06-18 07:33:00,67.8,66.0,28.85,WNW,298,0.0,4.0,94,0.00,,---,0.00,VWS V14.01,2013-06-18 11:33:00,
2013-06-18 07:34:00,59.2,44.4,29.06,ESE,123,6.3,8.3,58,0.00,,---,0.00,VWS V14.01,2013-06-18 11:34:00,
2013-06-18 07:35:00,59.2,44.4,29.06,East,100,4.0,7.8,58,0.00,,---,0.00,VWS V14.01,2013-06-18 11:35:00,
2013-06-18 07:36:00,59.2,44.4,29.06,ENE,74,3.6,4.5,58,0.00,,---,0.00,VWS V14.01,2013-06-18 11:36:00,
2013-06-18 07:37:00,59.4,44.6,29.06,East,98,5.4,5.8,58,0.00,,---,0.00,VWS V14.01,2013-06-18 11:37:00,
2013-06-18 07:38:00,59.4,44.6,29.06,East,101,5.4,6.9,58,0.00,,---,0.00,VWS V14.01,2013-06-18 11:38:00,
2013-06-18 07:39:00,59.5,44.3,29.06,ENE,61,3.1,5.4,57,0.00,,---,0.00,VWS V14.01,2013-06-18 11:39:00,
2013-06-18 07:40:00,59.5,43.8,29.06,ESE,108,4.5,6.3,56,0.00,,---,0.00,VWS V14.01,2013-06-18 11:40:00,
2013-06-18 07:41:00,59.7,44.0,29.06,ESE,108,5.8,6.3,56,0.00,,---,0.00,VWS V14.01,2013-06-18 11:41:00,
2013-06-18 07:42:00,68.4,66.6,28.85,NW,316,4.0,4.0,94,0.00,,---,0.00,VWS V14.01,2013-06-18 11:42:00,
2013-06-18 07:43:00,59.7,43.5,29.06,ESE,110,6.9,6.9,55,0.00,,---,0.00,VWS V14.01,2013-06-18 11:43:00,
2013-06-18 07:44:00,59.9,43.7,29.06,East,86,0.0,6.9,55,0.00,,---,0.00,VWS V14.01,2013-06-18 11:44:00,
2013-06-18 07:45:00,60.1,43.9,29.06,NE,39,5.4,5.4,55,0.00,,---,0.00,VWS V14.01,2013-06-18 11:45:00,
2013-06-18 07:46:00,60.1,43.9,29.06,East,93,4.5,5.4,55,0.00,,---,0.00,VWS V14.01,2013-06-18 11:46:00,
2013-06-18 07:47:00,60.3,44.0,29.06,ESE,114,6.3,6.3,55,0.00,,---,0.00,VWS V14.01,2013-06-18 11:47:00,
2013-06-18 07:48:00,60.4,43.2,29.06,East,79,4.5,6.3,53,0.00,,---,0.00,VWS V14.01,2013-06-18 11:48:00,
2013-06-18 07:49:00,60.4,42.2,29.06,ENE,66,4.0,8.7,51,0.00,,---,0.00,VWS V14.01,2013-06-18 11:49:00,
2013-06-18 07:50:00,60.4,41.7,29.06,ESE,121,4.9,5.8,50,0.00,,---,0.00,VWS V14.01,2013-06-18 11:50:00,
2013-06-18 07:51:00,60.6,41.9,29.06,ENE,68,0.0,4.9,50,0.00,,---,0.00,VWS V14.01,2013-06-18 11:51:00,
2013-06-18 07:52:00,60.6,42.4,29.06,SSE,155,5.8,5.8,51,0.00,,---,0.00,VWS V14.01,2013-06-18 11:52:00,
2013-06-18 07:53:00,60.8,42.6,29.06,ESE,120,3.6,6.7,51,0.00,,---,0.00,VWS V14.01,2013-06-18 11:53:00,
2013-06-18 07:54:00,68.9,66.8,28.85,North,3,0.0,0.0,93,0.00,,---,0.00,VWS V14.01,2013-06-18 11:54:00,
2013-06-18 07:55:00,61.0,42.2,29.06,ESE,111,4.0,6.3,50,0.00,,---,0.00,VWS V14.01,2013-06-18 11:55:00,
2013-06-18 07:56:00,61.2,42.4,29.06,East,94,6.7,6.7,50,0.00,,---,0.00,VWS V14.01,2013-06-18 11:56:00,
2013-06-18 07:57:00,61.3,41.5,29.06,SE,130,5.4,6.9,48,0.00,,---,0.00,VWS V14.01,2013-06-18 11:57:00,
2013-06-18 07:58:00,61.5,41.7,29.06,East,91,4.9,9.2,48,0.00,,---,0.00,VWS V14.01,2013-06-18 11:58:00,
2013-06-18 07:59:00,61.5,41.1,29.06,ENE,73,6.3,7.4,47,0.00,,---,0.00,VWS V14.01,2013-06-18 11:59:00,
2013-06-18 08:00:00,61.7,41.3,29.06,ENE,77,4.9,6.3,47,0.00,,---,0.00,VWS V14.01,2013-06-18 12:00:00,
2013-06-18 08:01:00,61.9,40.9,29.06,ESE,123,6.7,6.7,46,0.00,,---,0.00,VWS V14.01,2013-06-18 12:01:00,
2013-06-18 08:02:00,62.8,41.7,29.06,ENE,72,3.6,6.9,46,0.00,,---,0.00,VWS V14.01,2013-06-18 12:02:00,
2013-06-18 08:03:00,64.2,43.6,29.06,ESE,110,4.9,4.9,47,0.00,,---,0.00,VWS V14.01,2013-06-18 12:03:00,
2013-06-18 08:04:00,65.8,45.1,29.06,ENE,71,4.5,5.4,47,0.00,,---,0.00,VWS V14.01,2013-06-18 12:04:00,
2013-06-18 08:05:00,67.5,45.4,29.06,East,101,5.4,5.4,45,0.00,,---,0.00,VWS V14.01,2013-06-18 12:05:00,
2013-06-18 08:06:00,68.9,44.9,29.06,SE,127,4.9,6.3,42,0.00,,---,0.00,VWS V14.01,2013-06-18 12:06:00,
2013-06-18 08:07:00,69.6,44.9,29.06,ENE,69,4.5,4.9,41,0.00,,---,0.00,VWS V14.01,2013-06-18 12:07:00,
2013-06-18 08:08:00,71.1,44.9,29.06,NE,46,3.1,4.9,39,0.00,,---,0.00,VWS V14.01,2013-06-18 12:08:00,
2013-06-18 08:09:00,75.2,72.1,28.88,NNE,25,0.0,0.0,90,0.00,,---,0.00,VWS V14.01,2013-06-18 12:09:00,
2013-06-18 08:10:00,73.8,41.3,29.06,East,99,9.2,10.1,31,0.00,,---,0.00,VWS V14.01,2013-06-18 12:10:00,
2013-06-18 08:11:00,74.1,39.0,29.06,East,89,6.3,9.2,28,0.00,,---,0.00,VWS V14.01,2013-06-18 12:11:00,
2013-06-18 08:12:00,74.1,37.1,29.06,NE,49,4.0,6.3,26,0.00,,---,0.00,VWS V14.01,2013-06-18 12:12:00,
2013-06-18 08:13:00,74.5,36.4,29.06,ENE,57,3.6,4.5,25,0.00,,---,0.00,VWS V14.01,2013-06-18 12:13:00,
2013-06-18 08:14:00,75.4,37.2,29.06,East,83,3.6,5.4,25,0.00,,---,0.00,VWS V14.01,2013-06-18 12:14:00,
2013-06-18 08:15:00,76.6,37.2,29.06,ENE,71,4.5,6.7,24,0.00,,---,0.00,VWS V14.01,2013-06-18 12:15:00,
2013-06-18 08:16:00,76.1,34.5,29.06,ENE,63,0.0,4.5,22,0.00,,---,0.00,VWS V14.01,2013-06-18 12:16:00,
2013-06-18 08:17:00,81.0,65.3,28.88,NNE,27,0.0,0.0,59,0.00,,---,0.00,VWS V14.01,2013-06-18 12:17:00,
2013-06-18 08:18:00,76.8,34.0,29.06,ENE,70,4.5,6.7,21,0.00,,---,0.00,VWS V14.01,2013-06-18 12:18:00,
2013-06-18 08:19:00,77.0,34.1,29.06,East,98,4.0,5.4,21,0.00,,---,0.00,VWS V14.01,2013-06-18 12:19:00,
2013-06-18 08:20:00,77.4,34.4,29.06,ENE,69,3.1,4.9,21,0.00,,---,0.00,VWS V14.01,2013-06-18 12:20:00,
2013-06-18 08:21:00,77.4,35.6,29.06,ENE,72,0.0,3.6,22,0.00,,---,0.00,VWS V14.01,2013-06-18 12:21:00,
2013-06-18 08:22:00,77.5,35.7,29.06,ENE,71,3.6,4.5,22,0.00,,---,0.00,VWS V14.01,2013-06-18 12:22:00,
2013-06-18 08:23:00,78.6,35.5,29.06,East,90,0.0,4.5,21,0.00,,---,0.00,VWS V14.01,2013-06-18 12:23:00,
2013-06-18 08:24:00,79.2,35.9,29.06,NE,41,0.0,4.0,21,0.00,,---,0.00,VWS V14.01,2013-06-18 12:24:00,
2013-06-18 08:25:00,78.6,35.5,29.06,East,80,0.0,3.1,21,0.00,,---,0.00,VWS V14.01,2013-06-18 12:25:00,
2013-06-18 08:26:00,79.7,36.3,29.06,East,80,0.0,0.0,21,0.00,,---,0.00,VWS V14.01,2013-06-18 12:26:00,
2013-06-18 08:27:00,79.9,36.5,29.06,East,98,4.9,4.9,21,0.00,,---,0.00,VWS V14.01,2013-06-18 12:27:00,
2013-06-18 08:28:00,87.3,52.1,28.88,East,99,0.0,0.0,30,0.00,,---,0.00,VWS V14.01,2013-06-18 12:28:00,
2013-06-18 08:29:00,81.1,36.3,29.06,ENE,57,0.0,4.9,20,0.00,,---,0.00,VWS V14.01,2013-06-18 12:29:00,
2013-06-18 08:30:00,80.6,35.9,29.06,ENE,76,0.0,0.0,20,0.00,,---,0.00,VWS V14.01,2013-06-18 12:30:00,
2013-06-18 08:31:00,81.3,36.5,29.06,NE,51,4.9,4.9,20,0.00,,---,0.00,VWS V14.01,2013-06-18 12:31:00,
2013-06-18 08:32:00,82.4,36.0,29.06,ENE,68,4.5,6.3,19,0.00,,---,0.00,VWS V14.01,2013-06-18 12:32:00,
2013-06-18 08:33:00,82.2,35.9,29.06,NE,34,3.6,6.3,19,0.00,,---,0.00,VWS V14.01,2013-06-18 12:33:00,
2013-06-18 08:34:00,81.1,35.0,29.06,ESE,112,6.7,6.7,19,0.00,,---,0.00,VWS V14.01,2013-06-18 12:34:00,
2013-06-18 08:35:00,79.7,45.6,28.88,ENE,73,0.0,4.5,30,0.00,,---,0.00,VWS V14.01,2013-06-18 12:35:00,
2013-06-18 08:36:00,80.8,34.7,29.06,ENE,62,2.7,4.5,19,0.00,,---,0.00,VWS V14.01,2013-06-18 12:36:00,
2013-06-18 08:37:00,81.0,36.2,29.06,ENE,75,3.6,4.9,20,0.00,,---,0.00,VWS V14.01,2013-06-18 12:37:00,
2013-06-18 08:38:00,80.2,34.3,29.06,East,85,0.0,3.6,19,0.00,,---,0.00,VWS V14.01,2013-06-18 12:38:00,
2013-06-18 08:39:00,81.5,35.3,29.06,East,98,2.7,5.4,19,0.00,,---,0.00,VWS V14.01,2013-06-18 12:39:00,
2013-06-18 08:40:00,81.7,35.5,29.06,East,89,3.6,5.4,19,0.00,,---,0.00,VWS V14.01,2013-06-18 12:40:00,
2013-06-18 08:41:00,77.9,49.6,28.88,East,95,0.0,0.0,37,0.00,,---,0.00,VWS V14.01,2013-06-18 12:41:00,
2013-06-18 08:42:00,82.0,31.5,29.06,ESE,106,5.4,7.8,16,0.00,,---,0.00,VWS V14.01,2013-06-18 12:42:00,
2013-06-18 08:43:00,81.9,31.3,29.06,East,95,2.7,6.7,16,0.00,,---,0.00,VWS V14.01,2013-06-18 12:43:00,
2013-06-18 08:44:00,81.5,32.5,29.06,East,94,5.4,5.8,17,0.00,,---,0.00,VWS V14.01,2013-06-18 12:44:00,
2013-06-18 08:45:00,82.0,31.5,29.06,ESE,106,4.9,5.4,16,0.00,,---,0.00,VWS V14.01,2013-06-18 12:45:00,
2013-06-18 08:46:00,82.4,31.8,29.06,ESE,120,5.8,5.8,16,0.00,,---,0.00,VWS V14.01,2013-06-18 12:46:00,
2013-06-18 08:47:00,82.2,31.6,29.06,East,88,0.0,5.8,16,0.00,,---,0.00,VWS V14.01,2013-06-18 12:47:00,
2013-06-18 08:48:00,81.1,32.2,29.06,NE,47,0.0,3.6,17,0.00,,---,0.00,VWS V14.01,2013-06-18 12:48:00,
2013-06-18 08:49:00,81.3,51.1,28.88,East,82,0.0,0.0,35,0.00,,---,0.00,VWS V14.01,2013-06-18 12:49:00,
2013-06-18 08:50:00,82.0,31.5,29.06,ENE,77,4.5,6.9,16,0.00,,---,0.00,VWS V14.01,2013-06-18 12:50:00,
2013-06-18 08:51:00,81.5,32.5,29.06,East,97,5.8,6.3,17,0.00,,---,0.00,VWS V14.01,2013-06-18 12:51:00,
2013-06-18 08:52:00,80.4,31.7,29.06,East,84,5.8,5.8,17,0.00,,---,0.00,VWS V14.01,2013-06-18 12:52:00,
2013-06-18 08:53:00,79.7,31.1,29.06,East,94,6.7,7.8,17,0.00,,---,0.00,VWS V14.01,2013-06-18 12:53:00,
2013-06-18 08:54:00,78.1,29.8,29.06,East,98,4.5,6.9,17,0.00,,---,0.00,VWS V14.01,2013-06-18 12:54:00,
2013-06-18 08:55:00,76.8,30.1,29.06,SE,127,5.4,7.4,18,0.00,,---,0.00,VWS V14.01,2013-06-18 12:55:00,
2013-06-18 08:56:00,76.3,29.7,29.06,ENE,68,4.5,7.4,18,0.00,,---,0.00,VWS V14.01,2013-06-18 12:56:00,
2013-06-18 08:57:00,75.4,29.0,29.09,SE,131,5.8,5.8,18,0.00,,---,0.00,VWS V14.01,2013-06-18 12:57:00,
2013-06-18 08:58:00,74.8,31.1,29.09,SE,127,7.4,7.4,20,0.00,,---,0.00,VWS V14.01,2013-06-18 12:58:00,
2013-06-18 08:59:00,74.1,31.7,29.09,ESE,104,3.6,8.3,21,0.00,,---,0.00,VWS V14.01,2013-06-18 12:59:00,
2013-06-18 09:00:00,73.2,31.0,29.09,East,84,6.3,6.3,21,0.00,,---,0.00,VWS V14.01,2013-06-18 13:00:00,
2013-06-18 09:01:00,72.7,30.5,29.09,ESE,118,6.3,7.8,21,0.00,,---,0.00,VWS V14.01,2013-06-18 13:01:00,
2013-06-18 09:02:00,72.0,31.1,29.09,ENE,76,4.9,6.3,22,0.00,,---,0.00,VWS V14.01,2013-06-18 13:02:00,
2013-06-18 09:03:00,71.4,30.6,29.09,ESE,116,7.4,7.4,22,0.00,,---,0.00,VWS V14.01,2013-06-18 13:03:00,
2013-06-18 09:04:00,71.1,30.3,29.09,ESE,109,0.0,7.4,22,0.00,,---,0.00,VWS V14.01,2013-06-18 13:04:00,
2013-06-18 09:05:00,70.9,32.3,29.09,ESE,107,4.5,5.4,24,0.00,,---,0.00,VWS V14.01,2013-06-18 13:05:00,
2013-06-18 09:06:00,70.9,33.3,29.09,ESE,106,2.7,5.4,25,0.00,,---,0.00,VWS V14.01,2013-06-18 13:06:00,
2013-06-18 09:07:00,70.7,33.2,29.09,East,101,2.7,6.3,25,0.00,,---,0.00,VWS V14.01,2013-06-18 13:07:00,
2013-06-18 09:08:00,70.5,34.0,29.09,ESE,107,0.0,3.1,26,0.00,,---,0.00,VWS V14.01,2013-06-18 13:08:00,
2013-06-18 09:09:00,70.3,34.8,29.09,ESE,104,4.0,4.0,27,0.00,,---,0.00,VWS V14.01,2013-06-18 13:09:00,
2013-06-18 09:10:00,70.0,35.4,29.09,East,81,0.0,4.0,28,0.00,,---,0.00,VWS V14.01,2013-06-18 13:10:00,
2013-06-18 09:11:00,69.8,37.0,29.09,East,84,0.0,0.0,30,0.00,,---,0.00,VWS V14.01,2013-06-18 13:11:00,
2013-06-18 09:12:00,69.6,38.5,29.09,East,88,0.0,3.1,32,0.00,,---,0.00,VWS V14.01,2013-06-18 13:12:00,
2013-06-18 09:13:00,69.6,38.5,29.09,ESE,102,4.9,4.9,32,0.00,,---,0.00,VWS V14.01,2013-06-18 13:13:00,
2013-06-18 09:14:00,69.4,38.3,29.09,East,97,4.9,4.9,32,0.00,,---,0.00,VWS V14.01,2013-06-18 13:14:00,
2013-06-18 09:15:00,69.3,37.4,29.09,East,93,5.8,6.7,31,0.00,,---,0.00,VWS V14.01,2013-06-18 13:15:00,
2013-06-18 09:16:00,69.1,36.4,29.09,SE,128,6.3,7.4,30,0.00,,---,0.00,VWS V14.01,2013-06-18 13:16:00,
2013-06-18 09:17:00,68.7,36.1,29.09,SE,127,5.8,7.8,30,0.00,,---,0.00,VWS V14.01,2013-06-18 13:17:00,
2013-06-18 09:18:00,68.5,35.9,29.09,ENE,66,4.9,6.7,30,0.00,,---,0.00,VWS V14.01,2013-06-18 13:18:00,
2013-06-18 09:19:00,68.4,37.4,29.09,ESE,120,5.8,6.3,32,0.00,,---,0.00,VWS V14.01,2013-06-18 13:19:00,
2013-06-18 09:20:00,68.2,37.2,29.09,ENE,77,6.9,8.3,32,0.00,,---,0.00,VWS V14.01,2013-06-18 13:20:00,
2013-06-18 09:21:00,68.2,37.2,29.09,East,99,5.4,6.9,32,0.00,,---,0.00,VWS V14.01,2013-06-18 13:21:00,
2013-06-18 09:22:00,68.0,37.1,29.09,East,97,4.5,6.3,32,0.00,,---,0.00,VWS V14.01,2013-06-18 13:22:00,
2013-06-18 09:23:00,68.0,37.1,29.09,ESE,118,5.4,6.7,32,0.00,,---,0.00,VWS V14.01,2013-06-18 13:23:00,
2013-06-18 09:24:00,67.8,36.9,29.09,ESE,107,6.7,6.9,32,0.00,,---,0.00,VWS V14.01,2013-06-18 13:24:00,
2013-06-18 09:25:00,67.8,36.9,29.09,ESE,113,5.4,7.4,32,0.00,,---,0.00,VWS V14.01,2013-06-18 13:25:00,
2013-06-18 09:26:00,67.8,36.9,29.09,ESE,112,2.7,6.3,32,0.00,,---,0.00,VWS V14.01,2013-06-18 13:26:00,
2013-06-18 09:27:00,68.0,37.8,29.09,ENE,71,4.5,5.4,33,0.00,,---,0.00,VWS V14.01,2013-06-18 13:27:00,
2013-06-18 09:28:00,68.2,38.8,29.09,ENE,78,2.7,4.5,34,0.00,,---,0.00,VWS V14.01,2013-06-18 13:28:00,
2013-06-18 09:29:00,68.4,38.2,29.09,East,88,0.0,2.7,33,0.00,,---,0.00,VWS V14.01,2013-06-18 13:29:00,
2013-06-18 09:30:00,68.5,38.3,29.09,ESE,104,4.5,8.3,33,0.00,,---,0.00,VWS V14.01,2013-06-18 13:30:00,
2013-06-18 09:31:00,68.5,39.1,29.09,ESE,105,2.7,5.4,34,0.00,,---,0.00,VWS V14.01,2013-06-18 13:31:00,
2013-06-18 09:32:00,68.7,40.0,29.09,ESE,123,4.0,4.0,35,0.00,,---,0.00,VWS V14.01,2013-06-18 13:32:00,
2013-06-18 09:33:00,68.9,38.6,29.09,SSE,154,4.0,5.4,33,0.00,,---,0.00,VWS V14.01,2013-06-18 13:33:00,
2013-06-18 09:34:00,68.9,38.6,29.09,East,99,3.1,6.9,33,0.00,,---,0.00,VWS V14.01,2013-06-18 13:34:00,
2013-06-18 09:35:00,68.9,38.6,29.09,ESE,119,4.5,5.8,33,0.00,,---,0.00,VWS V14.01,2013-06-18 13:35:00,
2013-06-18 09:36:00,68.9,37.8,29.09,East,100,5.4,7.4,32,0.00,,---,0.00,VWS V14.01,2013-06-18 13:36:00,
2013-06-18 09:37:00,68.9,37.8,29.09,East,94,4.5,6.9,32,0.00,,---,0.00,VWS V14.01,2013-06-18 13:37:00,
2013-06-18 09:38:00,68.9,37.8,29.09,East,97,4.9,5.8,32,0.00,,---,0.00,VWS V14.01,2013-06-18 13:38:00,
2013-06-18 09:39:00,68.7,37.7,29.09,ESE,110,8.7,9.2,32,0.00,,---,0.00,VWS V14.01,2013-06-18 13:39:00,
2013-06-18 09:40:00,68.5,37.5,29.09,East,80,6.7,8.7,32,0.00,,---,0.00,VWS V14.01,2013-06-18 13:40:00,
2013-06-18 09:41:00,68.2,37.2,29.09,ESE,113,5.4,6.7,32,0.00,,---,0.00,VWS V14.01,2013-06-18 13:41:00,
2013-06-18 09:42:00,68.0,37.1,29.09,East,100,4.9,6.7,32,0.00,,---,0.00,VWS V14.01,2013-06-18 13:42:00,
2013-06-18 09:43:00,68.0,37.8,29.09,East,91,4.0,8.3,33,0.00,,---,0.00,VWS V14.01,2013-06-18 13:43:00,
2013-06-18 09:44:00,68.0,37.8,29.09,SE,130,5.4,6.3,33,0.00,,---,0.00,VWS V14.01,2013-06-18 13:44:00,
2013-06-18 09:45:00,68.0,37.8,29.09,ESE,116,4.5,7.4,33,0.00,,---,0.00,VWS V14.01,2013-06-18 13:45:00,
2013-06-18 09:46:00,68.0,37.8,29.09,ESE,120,5.8,5.8,33,0.00,,---,0.00,VWS V14.01,2013-06-18 13:46:00,
2013-06-18 09:47:00,68.0,37.8,29.09,ENE,72,6.9,7.4,33,0.00,,---,0.00,VWS V14.01,2013-06-18 13:47:00,
2013-06-18 09:48:00,68.2,38.0,29.09,East,85,3.6,6.9,33,0.00,,---,0.00,VWS V14.01,2013-06-18 13:48:00,
2013-06-18 09:49:00,68.2,38.8,29.09,ENE,71,0.0,4.5,34,0.00,,---,0.00,VWS V14.01,2013-06-18 13:49:00,
2013-06-18 09:50:00,68.5,39.1,29.09,SE,124,4.5,4.9,34,0.00,,---,0.00,VWS V14.01,2013-06-18 13:50:00,
2013-06-18 09:51:00,68.9,39.4,29.09,ESE,102,3.1,6.9,34,0.00,,---,0.00,VWS V14.01,2013-06-18 13:51:00,
2013-06-18 09:52:00,69.1,39.6,29.09,ENE,62,0.0,5.8,34,0.00,,---,0.00,VWS V14.01,2013-06-18 13:52:00,
2013-06-18 09:53:00,69.3,39.7,29.09,East,99,5.4,6.3,34,0.00,,---,0.00,VWS V14.01,2013-06-18 13:53:00,
2013-06-18 09:54:00,69.6,39.3,29.09,ENE,76,4.0,6.3,33,0.00,,---,0.00,VWS V14.01,2013-06-18 13:54:00,
2013-06-18 09:55:00,69.8,40.2,29.09,East,84,3.6,6.3,34,0.00,,---,0.00,VWS V14.01,2013-06-18 13:55:00,
2013-06-18 09:56:00,70.0,40.3,29.09,ESE,122,4.9,6.3,34,0.00,,---,0.00,VWS V14.01,2013-06-18 13:56:00,
2013-06-18 09:57:00,70.3,39.9,29.09,SE,131,6.7,6.7,33,0.00,,---,0.00,VWS V14.01,2013-06-18 13:57:00,
2013-06-18 09:58:00,70.2,38.1,29.09,ESE,105,4.9,6.7,31,0.00,,---,0.00,VWS V14.01,2013-06-18 13:58:00,
2013-06-18 09:59:00,70.0,37.2,29.09,ESE,111,4.5,5.8,30,0.00,,---,0.00,VWS V14.01,2013-06-18 13:59:00,
2013-06-18 10:00:00,70.0,38.8,29.09,East,101,5.4,5.4,32,0.00,,---,0.00,VWS V14.01,2013-06-18 14:00:00,
2013-06-18 10:01:00,70.2,39.0,29.09,East,86,4.5,7.8,32,0.00,,---,0.00,VWS V14.01,2013-06-18 14:01:00,
2013-06-18 10:02:00,70.5,40.8,29.09,East,92,0.0,4.5,34,0.00,,---,0.00,VWS V14.01,2013-06-18 14:02:00,
2013-06-18 10:03:00,70.5,40.8,29.09,ENE,58,4.9,4.9,34,0.00,,---,0.00,VWS V14.01,2013-06-18 14:03:00,
2013-06-18 10:04:00,70.7,39.4,29.09,East,91,4.9,6.7,32,0.00,,---,0.00,VWS V14.01,2013-06-18 14:04:00,
2013-06-18 10:05:00,70.7,40.2,29.09,East,80,4.5,4.9,33,0.00,,---,0.00,VWS V14.01,2013-06-18 14:05:00,
2013-06-18 10:06:00,70.7,39.4,29.09,East,85,0.0,4.5,32,0.00,,---,0.00,VWS V14.01,2013-06-18 14:06:00,
2013-06-18 10:07:00,70.9,39.6,29.09,SE,129,0.0,5.8,32,0.00,,---,0.00,VWS V14.01,2013-06-18 14:07:00,
2013-06-18 10:08:00,71.2,39.9,29.09,East,87,4.5,4.5,32,0.00,,---,0.00,VWS V14.01,2013-06-18 14:08:00,
2013-06-18 10:09:00,71.4,40.0,29.09,East,86,6.3,6.3,32,0.00,,---,0.00,VWS V14.01,2013-06-18 14:09:00,
2013-06-18 10:10:00,71.6,40.2,29.09,SSE,155,2.7,7.4,32,0.00,,---,0.00,VWS V14.01,2013-06-18 14:10:00,
2013-06-18 10:11:00,71.6,37.7,29.09,ENE,67,6.7,7.4,29,0.00,,---,0.00,VWS V14.01,2013-06-18 14:11:00,
2013-06-18 10:12:00,71.6,38.6,29.09,East,80,0.0,6.7,30,0.00,,---,0.00,VWS V14.01,2013-06-18 14:12:00,
2013-06-18 10:13:00,71.8,39.5,29.09,ESE,113,6.9,6.9,31,0.00,,---,0.00,VWS V14.01,2013-06-18 14:13:00,
2013-06-18 10:14:00,71.6,35.9,29.09,SE,127,6.7,7.8,27,0.00,,---,0.00,VWS V14.01,2013-06-18 14:14:00,
2013-06-18 10:15:00,71.4,36.7,29.09,East,95,4.9,6.7,28,0.00,,---,0.00,VWS V14.01,2013-06-18 14:15:00,
2013-06-18 10:16:00,71.2,37.4,29.09,ENE,68,3.6,4.9,29,0.00,,---,0.00,VWS V14.01,2013-06-18 14:16:00,
2013-06-18 10:17:00,71.4,38.4,29.09,ENE,58,4.0,6.9,30,0.00,,---,0.00,VWS V14.01,2013-06-18 14:17:00,
2013-06-18 10:18:00,71.6,39.4,29.09,ENE,60,0.0,4.9,31,0.00,,---,0.00,VWS V14.01,2013-06-18 14:18:00,
2013-06-18 10:19:00,71.8,40.4,29.09,ENE,62,0.0,3.6,32,0.00,,---,0.00,VWS V14.01,2013-06-18 14:19:00,
2013-06-18 10:20:00,72.0,40.5,29.09,East,84,3.1,3.6,32,0.00,,---,0.00,VWS V14.01,2013-06-18 14:20:00,
2013-06-18 10:21:00,72.1,39.0,29.09,East,92,4.9,7.4,30,0.00,,---,0.00,VWS V14.01,2013-06-18 14:21:00,
2013-06-18 10:22:00,72.0,37.1,29.09,East,80,5.4,6.3,28,0.00,,---,0.00,VWS V14.01,2013-06-18 14:22:00,
2013-06-18 10:23:00,71.8,37.0,29.09,SE,132,4.0,5.4,28,0.00,,---,0.00,VWS V14.01,2013-06-18 14:23:00,
2013-06-18 10:24:00,71.8,37.0,29.09,ENE,71,4.9,4.9,28,0.00,,---,0.00,VWS V14.01,2013-06-18 14:24:00,
2013-06-18 10:25:00,72.1,37.3,29.09,NE,45,5.4,6.3,28,0.00,,---,0.00,VWS V14.01,2013-06-18 14:25:00,
2013-06-18 10:26:00,72.3,38.3,29.09,ENE,67,2.7,5.4,29,0.00,,---,0.00,VWS V14.01,2013-06-18 14:26:00,
2013-06-18 10:27:00,72.5,35.7,29.09,SE,126,5.4,5.8,26,0.00,,---,0.00,VWS V14.01,2013-06-18 14:27:00,
2013-06-18 10:28:00,72.5,33.7,29.09,East,86,4.5,6.3,24,0.00,,---,0.00,VWS V14.01,2013-06-18 14:28:00,
2013-06-18 10:29:00,72.5,33.7,29.09,East,101,5.4,6.3,24,0.00,,---,0.00,VWS V14.01,2013-06-18 14:29:00,
2013-06-18 10:30:00,72.7,32.8,29.09,ENE,67,4.9,6.9,23,0.00,,---,0.00,VWS V14.01,2013-06-18 14:30:00,
2013-06-18 10:31:00,72.7,32.8,29.09,ESE,114,5.4,6.7,23,0.00,,---,0.00,VWS V14.01,2013-06-18 14:31:00,
2013-06-18 10:32:00,72.7,32.8,29.09,East,96,3.1,5.4,23,0.00,,---,0.00,VWS V14.01,2013-06-18 14:32:00,
2013-06-18 10:33:00,72.7,32.8,29.09,ESE,104,7.8,7.8,23,0.00,,---,0.00,VWS V14.01,2013-06-18 14:33:00,
2013-06-18 10:34:00,72.7,32.8,29.09,SE,146,4.9,7.8,23,0.00,,---,0.00,VWS V14.01,2013-06-18 14:34:00,
2013-06-18 10:35:00,72.7,32.8,29.09,ENE,59,6.7,6.7,23,0.00,,---,0.00,VWS V14.01,2013-06-18 14:35:00,
2013-06-18 10:36:00,72.7,32.8,29.09,East,89,5.8,6.7,23,0.00,,---,0.00,VWS V14.01,2013-06-18 14:36:00,
2013-06-18 10:37:00,72.9,32.9,29.09,North,10,3.6,5.8,23,0.00,,---,0.00,VWS V14.01,2013-06-18 14:37:00,
2013-06-18 10:38:00,73.0,33.1,29.09,ENE,68,0.0,4.5,23,0.00,,---,0.00,VWS V14.01,2013-06-18 14:38:00,
2013-06-18 10:39:00,73.2,33.2,29.09,ENE,63,0.0,5.8,23,0.00,,---,0.00,VWS V14.01,2013-06-18 14:39:00,
2013-06-18 10:40:00,73.6,35.6,29.09,NE,46,5.8,6.7,25,0.00,,---,0.00,VWS V14.01,2013-06-18 14:40:00,
2013-06-18 10:41:00,73.6,34.6,29.09,NE,49,3.6,6.3,24,0.00,,---,0.00,VWS V14.01,2013-06-18 14:41:00,
2013-06-18 10:42:00,73.8,34.8,29.09,ENE,78,2.7,4.5,24,0.00,,---,0.00,VWS V14.01,2013-06-18 14:42:00,
2013-06-18 10:43:00,74.1,36.1,29.09,ENE,73,0.0,2.7,25,0.00,,---,0.00,VWS V14.01,2013-06-18 14:43:00,
2013-06-18 10:44:00,74.3,34.1,29.09,SE,126,5.4,5.4,23,0.00,,---,0.00,VWS V14.01,2013-06-18 14:44:00,
2013-06-18 10:45:00,74.3,33.0,29.09,SE,134,4.0,6.9,22,0.00,,---,0.00,VWS V14.01,2013-06-18 14:45:00,
2013-06-18 10:46:00,74.3,33.0,29.09,ESE,106,4.5,7.8,22,0.00,,---,0.00,VWS V14.01,2013-06-18 14:46:00,
2013-06-18 10:47:00,74.3,31.9,29.09,SE,129,7.8,7.8,21,0.00,,---,0.00,VWS V14.01,2013-06-18 14:47:00,
2013-06-18 10:48:00,74.1,31.7,29.09,SE,129,6.7,9.2,21,0.00,,---,0.00,VWS V14.01,2013-06-18 14:48:00,
2013-06-18 10:49:00,74.1,32.9,29.09,ESE,104,7.8,10.1,22,0.00,,---,0.00,VWS V14.01,2013-06-18 14:49:00,
2013-06-18 10:50:00,73.9,32.7,29.09,East,99,6.7,7.8,22,0.00,,---,0.00,VWS V14.01,2013-06-18 14:50:00,
2013-06-18 10:51:00,73.8,32.6,29.09,ESE,120,6.9,7.4,22,0.00,,---,0.00,VWS V14.01,2013-06-18 14:51:00,
2013-06-18 10:52:00,73.6,32.4,29.09,SE,124,4.9,7.4,22,0.00,,---,0.00,VWS V14.01,2013-06-18 14:52:00,
2013-06-18 10:53:00,73.4,32.3,29.09,ESE,120,0.0,5.8,22,0.00,,---,0.00,VWS V14.01,2013-06-18 14:53:00,
2013-06-18 10:54:00,73.6,32.4,29.09,SE,127,4.0,6.9,22,0.00,,---,0.00,VWS V14.01,2013-06-18 14:54:00,
2013-06-18 10:55:00,73.8,32.6,29.09,ESE,104,4.9,5.4,22,0.00,,---,0.00,VWS V14.01,2013-06-18 14:55:00,
2013-06-18 10:56:00,73.9,32.7,29.09,East,86,3.1,6.9,22,0.00,,---,0.00,VWS V14.01,2013-06-18 14:56:00,
2013-06-18 10:57:00,74.1,34.0,29.09,SE,134,4.5,5.4,23,0.00,,---,0.00,VWS V14.01,2013-06-18 14:57:00,
2013-06-18 10:58:00,74.5,32.0,29.09,East,99,2.7,6.3,21,0.00,,---,0.00,VWS V14.01,2013-06-18 14:58:00,
2013-06-18 10:59:00,74.7,32.2,29.09,East,89,4.0,6.7,21,0.00,,---,0.00,VWS V14.01,2013-06-18 14:59:00,
2013-06-18 11:00:00,74.8,32.3,29.09,East,96,3.6,4.9,21,0.00,,---,0.00,VWS V14.01,2013-06-18 15:00:00,
2013-06-18 11:01:00,75.0,32.5,29.09,East,86,2.7,6.7,21,0.00,,---,0.00,VWS V14.01,2013-06-18 15:01:00,
2013-06-18 11:02:00,75.0,32.5,29.09,ESE,117,3.1,5.4,21,0.00,,---,0.00,VWS V14.01,2013-06-18 15:02:00,
2013-06-18 11:03:00,75.0,32.5,29.09,ESE,106,7.8,7.8,21,0.00,,---,0.00,VWS V14.01,2013-06-18 15:03:00,
2013-06-18 11:04:00,74.7,32.2,29.09,ESE,116,6.9,9.2,21,0.00,,---,0.00,VWS V14.01,2013-06-18 15:04:00,
2013-06-18 11:05:00,74.1,31.7,29.09,SE,124,4.0,7.8,21,0.00,,---,0.00,VWS V14.01,2013-06-18 15:05:00,
2013-06-18 11:06:00,74.1,31.7,29.09,ENE,75,3.1,5.4,21,0.00,,---,0.00,VWS V14.01,2013-06-18 15:06:00,
2013-06-18 11:07:00,74.3,33.0,29.09,SSE,152,0.0,3.6,22,0.00,,---,0.00,VWS V14.01,2013-06-18 15:07:00,
2013-06-18 11:08:00,74.5,33.2,29.09,ESE,109,5.8,6.9,22,0.00,,---,0.00,VWS V14.01,2013-06-18 15:08:00,
2013-06-18 11:09:00,74.7,32.2,29.09,ESE,104,6.9,7.8,21,0.00,,---,0.00,VWS V14.01,2013-06-18 15:09:00,
2013-06-18 11:10:00,74.5,32.0,29.09,ESE,110,4.0,8.3,21,0.00,,---,0.00,VWS V14.01,2013-06-18 15:10:00,
2013-06-18 11:11:00,74.5,32.0,29.09,ESE,123,5.4,5.8,21,0.00,,---,0.00,VWS V14.01,2013-06-18 15:11:00,
2013-06-18 11:12:00,74.7,32.2,29.09,SSE,151,4.0,5.8,21,0.00,,---,0.00,VWS V14.01,2013-06-18 15:12:00,
2013-06-18 11:13:00,74.7,32.2,29.09,SE,140,4.9,4.9,21,0.00,,---,0.00,VWS V14.01,2013-06-18 15:13:00,
2013-06-18 11:14:00,75.0,32.5,29.09,East,99,4.5,4.9,21,0.00,,---,0.00,VWS V14.01,2013-06-18 15:14:00,
2013-06-18 11:15:00,75.4,32.8,29.09,East,90,5.4,5.4,21,0.00,,---,0.00,VWS V14.01,2013-06-18 15:15:00,
2013-06-18 11:16:00,75.6,32.9,29.09,East,85,4.0,5.4,21,0.00,,---,0.00,VWS V14.01,2013-06-18 15:16:00,
2013-06-18 11:17:00,75.9,34.4,29.09,ENE,76,0.0,4.0,22,0.00,,---,0.00,VWS V14.01,2013-06-18 15:17:00,
2013-06-18 11:18:00,76.3,34.7,29.09,ENE,74,3.6,5.4,22,0.00,,---,0.00,VWS V14.01,2013-06-18 15:18:00,
2013-06-18 11:19:00,76.5,34.8,29.09,ENE,75,0.0,3.6,22,0.00,,---,0.00,VWS V14.01,2013-06-18 15:19:00,
2013-06-18 11:20:00,76.6,33.8,29.09,ENE,75,0.0,0.0,21,0.00,,---,0.00,VWS V14.01,2013-06-18 15:20:00,
2013-06-18 11:21:00,76.8,35.1,29.09,NW,319,0.0,0.0,22,0.00,,---,0.00,VWS V14.01,2013-06-18 15:21:00,
2013-06-18 11:22:00,76.8,34.0,29.09,NW,319,0.0,2.7,21,0.00,,---,0.00,VWS V14.01,2013-06-18 15:22:00,
2013-06-18 11:23:00,77.2,34.3,29.09,SSE,155,3.1,4.9,21,0.00,,---,0.00,VWS V14.01,2013-06-18 15:23:00,
2013-06-18 11:24:00,77.4,33.2,29.09,SE,129,4.5,4.9,20,0.00,,---,0.00,VWS V14.01,2013-06-18 15:24:00,
2013-06-18 11:25:00,77.5,33.3,29.09,ESE,120,6.7,9.2,20,0.00,,---,0.00,VWS V14.01,2013-06-18 15:25:00,
2013-06-18 11:26:00,77.5,33.3,29.09,SE,125,7.4,7.4,20,0.00,,---,0.00,VWS V14.01,2013-06-18 15:26:00,
2013-06-18 11:27:00,77.2,33.0,29.09,East,84,4.0,8.3,20,0.00,,---,0.00,VWS V14.01,2013-06-18 15:27:00,
2013-06-18 11:28:00,76.8,32.8,29.09,East,90,4.5,6.7,20,0.00,,---,0.00,VWS V14.01,2013-06-18 15:28:00,
2013-06-18 11:29:00,76.5,32.5,29.09,ESE,112,4.9,7.8,20,0.00,,---,0.00,VWS V14.01,2013-06-18 15:29:00,
2013-06-18 11:30:00,76.5,32.5,29.09,ESE,103,4.5,6.3,20,0.00,,---,0.00,VWS V14.01,2013-06-18 15:30:00,
2013-06-18 11:31:00,76.6,32.6,29.09,ESE,113,5.8,5.8,20,0.00,,---,0.00,VWS V14.01,2013-06-18 15:31:00,
2013-06-18 11:32:00,76.8,32.8,29.09,ESE,105,0.0,6.7,20,0.00,,---,0.00,VWS V14.01,2013-06-18 15:32:00,
2013-06-18 11:33:00,77.2,33.0,29.09,ESE,105,0.0,0.0,20,0.00,,---,0.00,VWS V14.01,2013-06-18 15:33:00,
2013-06-18 11:34:00,77.4,33.2,29.09,SSE,148,4.9,4.9,20,0.00,,---,0.00,VWS V14.01,2013-06-18 15:34:00,
2013-06-18 11:35:00,77.5,33.3,29.09,ESE,123,7.4,7.4,20,0.00,,---,0.00,VWS V14.01,2013-06-18 15:35:00,
2013-06-18 11:36:00,77.5,33.3,29.09,ESE,118,4.0,7.4,20,0.00,,---,0.00,VWS V14.01,2013-06-18 15:36:00,
2013-06-18 11:37:00,77.9,34.9,29.09,North,10,3.1,5.8,21,0.00,,---,0.00,VWS V14.01,2013-06-18 15:37:00,
2013-06-18 11:38:00,78.3,35.2,29.09,ESE,110,0.0,4.0,21,0.00,,---,0.00,VWS V14.01,2013-06-18 15:38:00,
2013-06-18 11:39:00,78.3,33.9,29.09,ESE,106,6.9,6.9,20,0.00,,---,0.00,VWS V14.01,2013-06-18 15:39:00,
2013-06-18 11:40:00,78.4,34.1,29.09,East,88,4.9,8.3,20,0.00,,---,0.00,VWS V14.01,2013-06-18 15:40:00,
2013-06-18 11:41:00,78.4,34.1,29.09,ESE,115,7.8,7.8,20,0.00,,---,0.00,VWS V14.01,2013-06-18 15:41:00,
2013-06-18 11:42:00,78.3,33.9,29.09,ESE,123,4.9,7.8,20,0.00,,---,0.00,VWS V14.01,2013-06-18 15:42:00,
2013-06-18 11:43:00,78.3,33.9,29.09,East,98,0.0,4.9,20,0.00,,---,0.00,VWS V14.01,2013-06-18 15:43:00,
2013-06-18 11:44:00,78.4,34.1,29.09,East,98,7.4,7.4,20,0.00,,---,0.00,VWS V14.01,2013-06-18 15:44:00,
2013-06-18 11:45:00,78.4,34.1,29.09,ESE,105,4.5,7.4,20,0.00,,---,0.00,VWS V14.01,2013-06-18 15:45:00,
2013-06-18 11:46:00,78.3,29.9,29.09,SSE,152,5.8,7.8,17,0.00,,---,0.00,VWS V14.01,2013-06-18 15:46:00,
2013-06-18 11:47:00,77.9,29.6,29.09,East,93,4.9,5.8,17,0.00,,---,0.00,VWS V14.01,2013-06-18 15:47:00,
2013-06-18 11:48:00,78.1,29.8,29.09,SE,134,3.6,4.9,17,0.00,,---,0.00,VWS V14.01,2013-06-18 15:48:00,
2013-06-18 11:49:00,78.3,29.9,29.09,SE,129,2.7,4.0,17,0.00,,---,0.00,VWS V14.01,2013-06-18 15:49:00,
2013-06-18 11:50:00,78.6,30.2,29.09,ENE,68,5.4,5.4,17,0.00,,---,0.00,VWS V14.01,2013-06-18 15:50:00,
2013-06-18 11:51:00,78.6,30.2,29.09,SE,124,6.3,7.4,17,0.00,,---,0.00,VWS V14.01,2013-06-18 15:51:00,
2013-06-18 11:52:00,78.6,30.2,29.09,SE,146,5.4,6.9,17,0.00,,---,0.00,VWS V14.01,2013-06-18 15:52:00,
2013-06-18 11:53:00,78.3,29.9,29.09,SE,132,4.0,6.7,17,0.00,,---,0.00,VWS V14.01,2013-06-18 15:53:00,
2013-06-18 11:54:00,78.3,29.9,29.09,SE,135,4.5,5.8,17,0.00,,---,0.00,VWS V14.01,2013-06-18 15:54:00,
2013-06-18 11:55:00,78.4,34.1,29.09,East,98,0.0,5.8,20,0.00,,---,0.00,VWS V14.01,2013-06-18 15:55:00,
2013-06-18 11:56:00,78.6,34.2,29.09,ENE,66,2.7,3.1,20,0.00,,---,0.00,VWS V14.01,2013-06-18 15:56:00,
2013-06-18 11:57:00,78.8,30.4,29.09,ENE,58,3.1,4.0,17,0.00,,---,0.00,VWS V14.01,2013-06-18 15:57:00,
2013-06-18 11:58:00,79.2,30.6,29.09,East,97,5.8,6.3,17,0.00,,---,0.00,VWS V14.01,2013-06-18 15:58:00,
2013-06-18 11:59:00,79.2,30.6,29.09,ESE,120,5.8,6.7,17,0.00,,---,0.00,VWS V14.01,2013-06-18 15:59:00,
2013-06-18 12:00:00,79.2,34.7,29.09,East,84,4.5,6.3,20,0.00,,---,0.00,VWS V14.01,2013-06-18 16:00:00,
2013-06-18 12:01:00,79.3,30.8,29.09,East,85,4.9,4.9,17,0.00,,---,0.00,VWS V14.01,2013-06-18 16:01:00,
2013-06-18 12:02:00,79.2,30.6,29.09,East,98,4.9,4.9,17,0.00,,---,0.00,VWS V14.01,2013-06-18 16:02:00,
2013-06-18 12:03:00,79.5,35.0,29.09,NE,34,3.6,4.9,20,0.00,,---,0.00,VWS V14.01,2013-06-18 16:03:00,
2013-06-18 12:04:00,79.5,35.0,29.09,SE,138,3.6,4.9,20,0.00,,---,0.00,VWS V14.01,2013-06-18 16:04:00,
2013-06-18 12:05:00,79.7,35.1,29.09,ESE,120,3.1,5.8,20,0.00,,---,0.00,VWS V14.01,2013-06-18 16:05:00,
2013-06-18 12:06:00,79.5,30.9,29.09,East,93,4.5,4.5,17,0.00,,---,0.00,VWS V14.01,2013-06-18 16:06:00,
2013-06-18 12:07:00,79.3,30.8,29.09,SE,144,5.4,6.7,17,0.00,,---,0.00,VWS V14.01,2013-06-18 16:07:00,
2013-06-18 12:08:00,79.2,30.6,29.09,SE,137,5.4,6.3,17,0.00,,---,0.00,VWS V14.01,2013-06-18 16:08:00,
2013-06-18 12:09:00,79.3,34.8,29.09,ESE,103,4.5,8.3,20,0.00,,---,0.00,VWS V14.01,2013-06-18 16:09:00,
2013-06-18 12:10:00,79.5,30.9,29.09,ESE,119,4.0,6.7,17,0.00,,---,0.00,VWS V14.01,2013-06-18 16:10:00,
2013-06-18 12:11:00,79.7,31.1,29.09,ESE,119,0.0,4.0,17,0.00,,---,0.00,VWS V14.01,2013-06-18 16:11:00,
2013-06-18 12:12:00,79.7,31.1,29.09,SE,145,0.0,0.0,17,0.00,,---,0.00,VWS V14.01,2013-06-18 16:12:00,
2013-06-18 12:13:00,79.9,31.2,29.09,East,92,4.0,4.0,17,0.00,,---,0.00,VWS V14.01,2013-06-18 16:13:00,
2013-06-18 12:14:00,80.1,34.1,29.09,ENE,73,4.9,7.8,19,0.00,,---,0.00,VWS V14.01,2013-06-18 16:14:00,
2013-06-18 12:15:00,80.2,34.3,29.09,NE,43,0.0,4.9,19,0.00,,---,0.00,VWS V14.01,2013-06-18 16:15:00,
2013-06-18 12:16:00,80.4,34.4,29.09,ESE,123,4.5,7.8,19,0.00,,---,0.00,VWS V14.01,2013-06-18 16:16:00,
2013-06-18 12:17:00,80.6,31.8,29.09,SE,138,3.6,5.8,17,0.00,,---,0.00,VWS V14.01,2013-06-18 16:17:00,
2013-06-18 12:18:00,80.6,31.8,29.09,SE,132,2.7,3.6,17,0.00,,---,0.00,VWS V14.01,2013-06-18 16:18:00,
2013-06-18 12:19:00,80.6,31.8,29.09,ESE,110,2.7,4.0,17,0.00,,---,0.00,VWS V14.01,2013-06-18 16:19:00,
2013-06-18 12:20:00,80.8,32.0,29.09,ESE,117,4.9,6.3,17,0.00,,---,0.00,VWS V14.01,2013-06-18 16:20:00,
2013-06-18 12:21:00,80.4,26.9,29.09,ESE,117,3.1,4.9,14,0.00,,---,0.00,VWS V14.01,2013-06-18 16:21:00,
2013-06-18 12:22:00,80.4,31.7,29.09,ESE,109,4.5,4.9,17,0.00,,---,0.00,VWS V14.01,2013-06-18 16:22:00,
2013-06-18 12:23:00,80.4,31.7,29.09,ENE,71,2.7,5.4,17,0.00,,---,0.00,VWS V14.01,2013-06-18 16:23:00,
2013-06-18 12:24:00,80.6,31.8,29.09,SE,133,0.0,6.7,17,0.00,,---,0.00,VWS V14.01,2013-06-18 16:24:00,
2013-06-18 12:25:00,81.0,32.1,29.09,SE,145,4.0,4.0,17,0.00,,---,0.00,VWS V14.01,2013-06-18 16:25:00,
2013-06-18 12:26:00,81.3,32.4,29.09,SE,130,3.1,4.9,17,0.00,,---,0.00,VWS V14.01,2013-06-18 16:26:00,
2013-06-18 12:27:00,81.5,31.0,29.09,ENE,75,4.0,5.8,16,0.00,,---,0.00,VWS V14.01,2013-06-18 16:27:00,
2013-06-18 12:28:00,81.7,31.2,29.09,East,83,3.6,4.0,16,0.00,,---,0.00,VWS V14.01,2013-06-18 16:28:00,
2013-06-18 12:29:00,81.9,31.3,29.09,ESE,103,4.5,5.8,16,0.00,,---,0.00,VWS V14.01,2013-06-18 16:29:00,
2013-06-18 12:30:00,82.0,31.5,29.09,East,96,4.9,5.8,16,0.00,,---,0.00,VWS V14.01,2013-06-18 16:30:00,
2013-06-18 12:31:00,82.2,31.6,29.09,SE,131,0.0,5.4,16,0.00,,---,0.00,VWS V14.01,2013-06-18 16:31:00,
2013-06-18 12:32:00,82.4,31.8,29.09,ESE,122,6.9,6.9,16,0.00,,---,0.00,VWS V14.01,2013-06-18 16:32:00,
2013-06-18 12:33:00,82.0,28.2,29.09,SW,228,2.7,6.9,14,0.00,,---,0.00,VWS V14.01,2013-06-18 16:33:00,
2013-06-18 12:34:00,82.0,28.2,29.09,SSW,201,3.6,3.6,14,0.00,,---,0.00,VWS V14.01,2013-06-18 16:34:00,
2013-06-18 12:35:00,82.2,28.3,29.09,East,97,6.3,6.3,14,0.00,,---,0.00,VWS V14.01,2013-06-18 16:35:00,
2013-06-18 12:36:00,82.4,28.5,29.09,ESE,115,5.4,9.2,14,0.00,,---,0.00,VWS V14.01,2013-06-18 16:36:00,
2013-06-18 12:37:00,81.9,28.0,29.09,ESE,114,5.8,8.7,14,0.00,,---,0.00,VWS V14.01,2013-06-18 16:37:00,
2013-06-18 12:38:00,81.5,32.5,29.09,East,90,5.4,6.7,17,0.00,,---,0.00,VWS V14.01,2013-06-18 16:38:00,
2013-06-18 12:39:00,81.1,27.5,29.09,ESE,105,4.9,5.4,14,0.00,,---,0.00,VWS V14.01,2013-06-18 16:39:00,
2013-06-18 12:40:00,80.8,27.2,29.09,ESE,120,6.3,9.2,14,0.00,,---,0.00,VWS V14.01,2013-06-18 16:40:00,
2013-06-18 12:41:00,80.8,27.2,29.09,ENE,71,2.7,6.3,14,0.00,,---,0.00,VWS V14.01,2013-06-18 16:41:00,
2013-06-18 12:42:00,80.8,32.0,29.09,SSE,147,4.9,4.9,17,0.00,,---,0.00,VWS V14.01,2013-06-18 16:42:00,
2013-06-18 12:43:00,81.0,27.3,29.09,SE,136,4.9,6.3,14,0.00,,---,0.00,VWS V14.01,2013-06-18 16:43:00,
2013-06-18 12:44:00,81.0,27.3,29.09,SE,138,4.5,5.4,14,0.00,,---,0.00,VWS V14.01,2013-06-18 16:44:00,
2013-06-18 12:45:00,81.0,32.1,29.09,ESE,106,6.7,9.2,17,0.00,,---,0.00,VWS V14.01,2013-06-18 16:45:00,
2013-06-18 12:46:00,81.0,27.3,29.09,SE,142,4.0,6.7,14,0.00,,---,0.00,VWS V14.01,2013-06-18 16:46:00,
2013-06-18 12:47:00,81.0,27.3,29.09,East,80,4.0,4.0,14,0.00,,---,0.00,VWS V14.01,2013-06-18 16:47:00,
2013-06-18 12:48:00,81.1,32.2,29.09,ESE,106,3.6,5.8,17,0.00,,---,0.00,VWS V14.01,2013-06-18 16:48:00,
2013-06-18 12:49:00,81.5,32.5,29.09,South,175,4.9,6.9,17,0.00,,---,0.00,VWS V14.01,2013-06-18 16:49:00,
2013-06-18 12:50:00,81.5,27.8,29.09,West,273,3.1,4.9,14,0.00,,---,0.00,VWS V14.01,2013-06-18 16:50:00,
2013-06-18 12:51:00,81.7,27.9,29.09,SE,141,0.0,4.5,14,0.00,,---,0.00,VWS V14.01,2013-06-18 16:51:00,
2013-06-18 12:52:00,81.7,31.2,29.09,ESE,122,4.5,6.7,16,0.00,,---,0.00,VWS V14.01,2013-06-18 16:52:00,
2013-06-18 12:53:00,81.9,28.0,29.09,East,101,6.9,7.8,14,0.00,,---,0.00,VWS V14.01,2013-06-18 16:53:00,
2013-06-18 12:54:00,81.7,27.9,29.09,ESE,119,4.5,6.9,14,0.00,,---,0.00,VWS V14.01,2013-06-18 16:54:00,
2013-06-18 12:55:00,81.7,27.9,29.09,SE,125,4.5,4.5,14,0.00,,---,0.00,VWS V14.01,2013-06-18 16:55:00,
2013-06-18 12:56:00,82.0,28.2,29.09,SE,141,0.0,5.4,14,0.00,,---,0.00,VWS V14.01,2013-06-18 16:56:00,
2013-06-18 12:57:00,82.2,28.3,29.09,ESE,110,3.1,3.1,14,0.00,,---,0.00,VWS V14.01,2013-06-18 16:57:00,
2013-06-18 12:58:00,82.6,31.9,29.09,NNE,21,2.7,4.5,16,0.00,,---,0.00,VWS V14.01,2013-06-18 16:58:00,
2013-06-18 12:59:00,82.9,32.2,29.09,North,351,2.7,3.6,16,0.00,,---,0.00,VWS V14.01,2013-06-18 16:59:00,
2013-06-18 13:00:00,83.3,32.5,29.09,North,6,2.7,2.7,16,0.00,,---,0.00,VWS V14.01,2013-06-18 17:00:00,
2013-06-18 13:01:00,83.5,32.6,29.09,NE,54,0.0,3.1,16,0.00,,---,0.00,VWS V14.01,2013-06-18 17:01:00,
2013-06-18 13:02:00,83.8,32.9,29.09,East,95,4.5,4.5,16,0.00,,---,0.00,VWS V14.01,2013-06-18 17:02:00,
2013-06-18 13:03:00,84.0,33.0,29.09,ENE,72,3.1,4.5,16,0.00,,---,0.00,VWS V14.01,2013-06-18 17:03:00,
2013-06-18 13:04:00,83.8,32.9,29.09,East,86,3.6,6.7,16,0.00,,---,0.00,VWS V14.01,2013-06-18 17:04:00,
2013-06-18 13:05:00,83.7,32.8,29.09,East,101,7.8,7.8,16,0.00,,---,0.00,VWS V14.01,2013-06-18 17:05:00,
2013-06-18 13:06:00,83.8,32.9,29.09,East,101,5.4,7.8,16,0.00,,---,0.00,VWS V14.01,2013-06-18 17:06:00,
2013-06-18 13:07:00,83.8,32.9,29.09,NNE,22,3.1,6.3,16,0.00,,---,0.00,VWS V14.01,2013-06-18 17:07:00,
2013-06-18 13:08:00,83.8,32.9,29.09,ENE,59,3.1,6.3,16,0.00,,---,0.00,VWS V14.01,2013-06-18 17:08:00,
2013-06-18 13:09:00,83.5,27.5,29.09,East,90,4.0,5.4,13,0.00,,---,0.00,VWS V14.01,2013-06-18 17:09:00,
2013-06-18 13:10:00,83.1,29.0,29.09,NNE,24,3.6,5.4,14,0.00,,---,0.00,VWS V14.01,2013-06-18 17:10:00,
2013-06-18 13:11:00,83.3,32.5,29.09,East,90,4.9,5.8,16,0.00,,---,0.00,VWS V14.01,2013-06-18 17:11:00,
2013-06-18 13:12:00,83.1,32.3,29.06,East,100,5.4,6.9,16,0.00,,---,0.00,VWS V14.01,2013-06-18 17:12:00,
2013-06-18 13:13:00,83.1,29.0,29.06,ESE,108,0.0,5.8,14,0.00,,---,0.00,VWS V14.01,2013-06-18 17:13:00,
2013-06-18 13:14:00,83.3,29.2,29.06,ESE,112,3.1,3.6,14,0.00,,---,0.00,VWS V14.01,2013-06-18 17:14:00,
2013-06-18 13:15:00,83.3,27.4,29.06,SE,137,3.6,4.9,13,0.00,,---,0.00,VWS V14.01,2013-06-18 17:15:00,
2013-06-18 13:16:00,83.3,29.2,29.06,SSE,161,0.0,5.4,14,0.00,,---,0.00,VWS V14.01,2013-06-18 17:16:00,
2013-06-18 13:17:00,83.5,27.5,29.06,East,101,6.3,6.3,13,0.00,,---,0.00,VWS V14.01,2013-06-18 17:17:00,
2013-06-18 13:18:00,83.3,27.4,29.06,East,88,2.7,6.3,13,0.00,,---,0.00,VWS V14.01,2013-06-18 17:18:00,
2013-06-18 13:19:00,83.3,27.4,29.06,SE,135,6.9,6.9,13,0.00,,---,0.00,VWS V14.01,2013-06-18 17:19:00,
2013-06-18 13:20:00,83.3,29.2,29.06,SSE,149,6.7,6.9,14,0.00,,---,0.00,VWS V14.01,2013-06-18 17:20:00,
2013-06-18 13:21:00,82.8,28.8,29.06,SE,139,5.8,7.4,14,0.00,,---,0.00,VWS V14.01,2013-06-18 17:21:00,
2013-06-18 13:22:00,82.4,28.5,29.06,SE,135,6.3,8.3,14,0.00,,---,0.00,VWS V14.01,2013-06-18 17:22:00,
2013-06-18 13:23:00,81.9,28.0,29.06,ESE,120,4.5,6.3,14,0.00,,---,0.00,VWS V14.01,2013-06-18 17:23:00,
2013-06-18 13:24:00,81.5,27.8,29.06,ESE,110,4.9,4.9,14,0.00,,---,0.00,VWS V14.01,2013-06-18 17:24:00,
2013-06-18 13:25:00,81.7,27.9,29.06,East,94,3.6,5.8,14,0.00,,---,0.00,VWS V14.01,2013-06-18 17:25:00,
2013-06-18 13:26:00,82.2,31.6,29.06,NNE,24,4.5,4.5,16,0.00,,---,0.00,VWS V14.01,2013-06-18 17:26:00,
2013-06-18 13:27:00,82.2,28.3,29.06,SE,126,4.5,6.9,14,0.00,,---,0.00,VWS V14.01,2013-06-18 17:27:00,
2013-06-18 13:28:00,82.2,28.3,29.06,ESE,120,9.2,9.2,14,0.00,,---,0.00,VWS V14.01,2013-06-18 17:28:00,
2013-06-18 13:29:00,81.7,27.9,29.06,SE,124,3.1,9.2,14,0.00,,---,0.00,VWS V14.01,2013-06-18 17:29:00,
2013-06-18 13:30:00,81.7,27.9,29.06,East,87,4.0,4.9,14,0.00,,---,0.00,VWS V14.01,2013-06-18 17:30:00,
2013-06-18 13:31:00,81.7,27.9,29.06,ESE,106,4.5,5.4,14,0.00,,---,0.00,VWS V14.01,2013-06-18 17:31:00,
2013-06-18 13:32:00,81.5,27.8,29.06,ESE,116,6.3,9.6,14,0.00,,---,0.00,VWS V14.01,2013-06-18 17:32:00,
2013-06-18 13:33:00,81.5,27.8,29.06,East,84,5.8,6.9,14,0.00,,---,0.00,VWS V14.01,2013-06-18 17:33:00,
2013-06-18 13:34:00,81.7,27.9,29.06,East,98,4.0,9.2,14,0.00,,---,0.00,VWS V14.01,2013-06-18 17:34:00,
2013-06-18 13:35:00,82.2,31.6,29.06,East,92,0.0,4.5,16,0.00,,---,0.00,VWS V14.01,2013-06-18 17:35:00,
2013-06-18 13:36:00,82.8,32.0,29.06,ESE,107,3.6,4.5,16,0.00,,---,0.00,VWS V14.01,2013-06-18 17:36:00,
2013-06-18 13:37:00,83.5,32.6,29.06,ESE,108,4.5,5.8,16,0.00,,---,0.00,VWS V14.01,2013-06-18 17:37:00,
2013-06-18 13:38:00,83.8,32.9,29.06,East,93,6.3,6.9,16,0.00,,---,0.00,VWS V14.01,2013-06-18 17:38:00,
2013-06-18 13:39:00,83.7,27.7,29.06,ESE,119,2.7,6.9,13,0.00,,---,0.00,VWS V14.01,2013-06-18 17:39:00,
2013-06-18 13:40:00,83.1,29.0,29.06,SE,129,4.9,4.9,14,0.00,,---,0.00,VWS V14.01,2013-06-18 17:40:00,
2013-06-18 13:41:00,82.8,28.8,29.06,East,95,4.5,8.7,14,0.00,,---,0.00,VWS V14.01,2013-06-18 17:41:00,
2013-06-18 13:42:00,82.4,28.5,29.06,ESE,110,0.0,6.3,14,0.00,,---,0.00,VWS V14.01,2013-06-18 17:42:00,
2013-06-18 13:43:00,82.6,28.6,29.06,ESE,110,0.0,0.0,14,0.00,,---,0.00,VWS V14.01,2013-06-18 17:43:00,
2013-06-18 13:44:00,82.8,28.8,29.06,ENE,62,0.0,4.5,14,0.00,,---,0.00,VWS V14.01,2013-06-18 17:44:00,
2013-06-18 13:45:00,83.1,29.0,29.06,SE,126,3.6,3.6,14,0.00,,---,0.00,VWS V14.01,2013-06-18 17:45:00,
2013-06-18 13:46:00,83.5,27.5,29.06,SE,125,0.0,5.8,13,0.00,,---,0.00,VWS V14.01,2013-06-18 17:46:00,
2013-06-18 13:47:00,83.5,27.5,29.06,East,84,5.8,6.9,13,0.00,,---,0.00,VWS V14.01,2013-06-18 17:47:00,
2013-06-18 13:48:00,83.1,29.0,29.06,ENE,67,3.6,6.7,14,0.00,,---,0.00,VWS V14.01,2013-06-18 17:48:00,
2013-06-18 13:49:00,83.1,29.0,29.06,ENE,59,4.5,5.8,14,0.00,,---,0.00,VWS V14.01,2013-06-18 17:49:00,
2013-06-18 13:50:00,82.9,28.9,29.06,NE,44,4.5,8.3,14,0.00,,---,0.00,VWS V14.01,2013-06-18 17:50:00,
2013-06-18 13:51:00,82.6,28.6,29.06,SE,124,5.8,7.8,14,0.00,,---,0.00,VWS V14.01,2013-06-18 17:51:00,
2013-06-18 13:52:00,82.0,28.2,29.06,ESE,109,5.8,8.3,14,0.00,,---,0.00,VWS V14.01,2013-06-18 17:52:00,
2013-06-18 13:53:00,81.5,27.8,29.06,SSE,152,3.6,6.7,14,0.00,,---,0.00,VWS V14.01,2013-06-18 17:53:00,
2013-06-18 13:54:00,81.3,27.6,29.06,East,79,3.1,5.8,14,0.00,,---,0.00,VWS V14.01,2013-06-18 17:54:00,
2013-06-18 13:55:00,81.9,28.0,29.06,SE,129,0.0,3.1,14,0.00,,---,0.00,VWS V14.01,2013-06-18 17:55:00,
2013-06-18 13:56:00,82.2,28.3,29.06,ESE,122,0.0,0.0,14,0.00,,---,0.00,VWS V14.01,2013-06-18 17:56:00,
2013-06-18 13:57:00,82.6,28.6,29.06,SE,142,3.6,5.8,14,0.00,,---,0.00,VWS V14.01,2013-06-18 17:57:00,
2013-06-18 13:58:00,82.9,28.9,29.06,ENE,68,3.1,4.9,14,0.00,,---,0.00,VWS V14.01,2013-06-18 17:58:00,
2013-06-18 13:59:00,83.1,29.0,29.06,South,173,4.5,5.4,14,0.00,,---,0.00,VWS V14.01,2013-06-18 17:59:00,
2013-06-18 14:00:00,83.1,29.0,29.06,ESE,123,4.5,5.4,14,0.00,,---,0.00,VWS V14.01,2013-06-18 18:00:00,
2013-06-18 14:01:00,83.1,29.0,29.06,SSE,159,2.7,5.4,14,0.00,,---,0.00,VWS V14.01,2013-06-18 18:01:00,
2013-06-18 14:02:00,83.3,29.2,29.06,SE,140,0.0,6.3,14,0.00,,---,0.00,VWS V14.01,2013-06-18 18:02:00,
2013-06-18 14:03:00,83.5,27.5,29.06,SE,140,0.0,2.7,13,0.00,,---,0.00,VWS V14.01,2013-06-18 18:03:00,
2013-06-18 14:04:00,83.7,27.7,29.06,SE,140,2.7,2.7,13,0.00,,---,0.00,VWS V14.01,2013-06-18 18:04:00,
2013-06-18 14:05:00,84.0,27.9,29.06,SE,140,0.0,2.7,13,0.00,,---,0.00,VWS V14.01,2013-06-18 18:05:00,
2013-06-18 14:06:00,84.2,28.1,29.06,ESE,111,4.9,5.8,13,0.00,,---,0.00,VWS V14.01,2013-06-18 18:06:00,
2013-06-18 14:07:00,84.6,28.4,29.06,NNE,32,0.0,4.9,13,0.00,,---,0.00,VWS V14.01,2013-06-18 18:07:00,
2013-06-18 14:08:00,84.7,28.5,29.06,North,351,0.0,3.1,13,0.00,,---,0.00,VWS V14.01,2013-06-18 18:08:00,
2013-06-18 14:09:00,84.7,28.5,29.06,North,1,0.0,0.0,13,0.00,,---,0.00,VWS V14.01,2013-06-18 18:09:00,
2013-06-18 14:10:00,85.1,28.8,29.06,SE,130,9.2,9.2,13,0.00,,---,0.00,VWS V14.01,2013-06-18 18:10:00,
2013-06-18 14:11:00,84.4,28.2,29.06,East,86,5.8,9.2,13,0.00,,---,0.00,VWS V14.01,2013-06-18 18:11:00,
2013-06-18 14:12:00,84.2,28.1,29.06,East,85,4.5,5.8,13,0.00,,---,0.00,VWS V14.01,2013-06-18 18:12:00,
2013-06-18 14:13:00,84.4,28.2,29.06,ENE,71,4.9,4.9,13,0.00,,---,0.00,VWS V14.01,2013-06-18 18:13:00,
2013-06-18 14:14:00,84.6,28.4,29.06,ESE,108,4.9,6.7,13,0.00,,---,0.00,VWS V14.01,2013-06-18 18:14:00,
2013-06-18 14:15:00,84.7,28.5,29.06,East,92,4.5,4.9,13,0.00,,---,0.00,VWS V14.01,2013-06-18 18:15:00,
2013-06-18 14:16:00,84.9,28.6,29.06,East,90,0.0,4.5,13,0.00,,---,0.00,VWS V14.01,2013-06-18 18:16:00,
2013-06-18 14:17:00,84.9,28.6,29.06,East,101,0.0,4.0,13,0.00,,---,0.00,VWS V14.01,2013-06-18 18:17:00,
2013-06-18 14:18:00,85.1,28.8,29.06,NW,307,0.0,0.0,13,0.00,,---,0.00,VWS V14.01,2013-06-18 18:18:00,
2013-06-18 14:19:00,85.5,29.1,29.06,West,266,3.1,3.6,13,0.00,,---,0.00,VWS V14.01,2013-06-18 18:19:00,
2013-06-18 14:20:00,85.8,29.4,29.06,WNW,287,0.0,4.9,13,0.00,,---,0.00,VWS V14.01,2013-06-18 18:20:00,
2013-06-18 14:21:00,86.2,29.6,29.06,NNW,341,3.1,4.5,13,0.00,,---,0.00,VWS V14.01,2013-06-18 18:21:00,
2013-06-18 14:22:00,86.4,29.8,29.06,NNE,30,0.0,4.5,13,0.00,,---,0.00,VWS V14.01,2013-06-18 18:22:00,
2013-06-18 14:23:00,86.5,29.9,29.06,SE,131,0.0,4.9,13,0.00,,---,0.00,VWS V14.01,2013-06-18 18:23:00,
2013-06-18 14:24:00,86.5,29.9,29.06,SE,130,0.0,0.0,13,0.00,,---,0.00,VWS V14.01,2013-06-18 18:24:00,
2013-06-18 14:25:00,86.2,29.6,29.06,South,182,3.1,3.1,13,0.00,,---,0.00,VWS V14.01,2013-06-18 18:25:00,
2013-06-18 14:26:00,86.4,29.8,29.06,East,97,0.0,4.5,13,0.00,,---,0.00,VWS V14.01,2013-06-18 18:26:00,
2013-06-18 14:27:00,86.5,29.9,29.06,East,81,0.0,2.7,13,0.00,,---,0.00,VWS V14.01,2013-06-18 18:27:00,
2013-06-18 14:28:00,86.7,35.2,29.06,East,81,0.0,0.0,16,0.00,,---,0.00,VWS V14.01,2013-06-18 18:28:00,
2013-06-18 14:29:00,87.1,30.3,29.06,East,98,3.1,4.5,13,0.00,,---,0.00,VWS V14.01,2013-06-18 18:29:00,
2013-06-18 14:30:00,86.9,30.2,29.06,ESE,108,3.1,6.9,13,0.00,,---,0.00,VWS V14.01,2013-06-18 18:30:00,
2013-06-18 14:31:00,86.5,29.9,29.06,ESE,106,0.0,3.6,13,0.00,,---,0.00,VWS V14.01,2013-06-18 18:31:00,
2013-06-18 14:32:00,86.7,30.0,29.06,East,96,0.0,0.0,13,0.00,,---,0.00,VWS V14.01,2013-06-18 18:32:00,
2013-06-18 14:33:00,86.9,30.2,29.06,East,96,0.0,3.1,13,0.00,,---,0.00,VWS V14.01,2013-06-18 18:33:00,
2013-06-18 14:34:00,87.1,30.3,29.06,East,96,2.7,2.7,13,0.00,,---,0.00,VWS V14.01,2013-06-18 18:34:00,
2013-06-18 14:35:00,87.3,30.5,29.06,East,96,0.0,2.7,13,0.00,,---,0.00,VWS V14.01,2013-06-18 18:35:00,
2013-06-18 14:36:00,87.4,30.6,29.06,East,96,0.0,0.0,13,0.00,,---,0.00,VWS V14.01,2013-06-18 18:36:00,
2013-06-18 14:37:00,87.3,30.5,29.06,NNE,16,2.7,3.6,13,0.00,,---,0.00,VWS V14.01,2013-06-18 18:37:00,
2013-06-18 14:38:00,87.1,30.3,29.06,East,99,0.0,2.7,13,0.00,,---,0.00,VWS V14.01,2013-06-18 18:38:00,
2013-06-18 14:39:00,87.1,30.3,29.06,ENE,63,0.0,0.0,13,0.00,,---,0.00,VWS V14.01,2013-06-18 18:39:00,
2013-06-18 14:40:00,86.9,30.2,29.06,East,99,4.0,4.9,13,0.00,,---,0.00,VWS V14.01,2013-06-18 18:40:00,
2013-06-18 14:41:00,86.5,29.9,29.06,ENE,59,3.6,4.0,13,0.00,,---,0.00,VWS V14.01,2013-06-18 18:41:00,
2013-06-18 14:42:00,86.2,29.6,29.06,East,98,3.1,4.0,13,0.00,,---,0.00,VWS V14.01,2013-06-18 18:42:00,
2013-06-18 14:43:00,85.8,29.4,29.06,East,86,3.1,5.4,13,0.00,,---,0.00,VWS V14.01,2013-06-18 18:43:00,
2013-06-18 14:44:00,85.6,29.2,29.06,East,101,7.4,8.3,13,0.00,,---,0.00,VWS V14.01,2013-06-18 18:44:00,
2013-06-18 14:45:00,84.9,28.6,29.06,SE,136,7.4,8.7,13,0.00,,---,0.00,VWS V14.01,2013-06-18 18:45:00,
2013-06-18 14:46:00,84.2,28.1,29.06,ESE,106,7.4,7.8,13,0.00,,---,0.00,VWS V14.01,2013-06-18 18:46:00,
2013-06-18 14:47:00,83.5,27.5,29.06,ESE,114,4.5,7.4,13,0.00,,---,0.00,VWS V14.01,2013-06-18 18:47:00,
2013-06-18 14:48:00,83.1,29.0,29.06,SE,134,5.4,6.9,14,0.00,,---,0.00,VWS V14.01,2013-06-18 18:48:00,
2013-06-18 14:49:00,82.8,28.8,29.06,SE,146,0.0,6.7,14,0.00,,---,0.00,VWS V14.01,2013-06-18 18:49:00,
2013-06-18 14:50:00,82.9,28.9,29.06,SE,133,3.6,4.5,14,0.00,,---,0.00,VWS V14.01,2013-06-18 18:50:00,
2013-06-18 14:51:00,82.9,28.9,29.06,ESE,120,2.7,4.0,14,0.00,,---,0.00,VWS V14.01,2013-06-18 18:51:00,
2013-06-18 14:52:00,83.1,29.0,29.06,SE,139,0.0,5.8,14,0.00,,---,0.00,VWS V14.01,2013-06-18 18:52:00,
2013-06-18 14:53:00,83.5,27.5,29.06,SE,142,3.6,3.6,13,0.00,,---,0.00,VWS V14.01,2013-06-18 18:53:00,
2013-06-18 14:54:00,84.0,27.9,29.06,WSW,241,3.6,3.6,13,0.00,,---,0.00,VWS V14.01,2013-06-18 18:54:00,
2013-06-18 14:55:00,84.4,28.2,29.06,SSE,154,3.1,3.6,13,0.00,,---,0.00,VWS V14.01,2013-06-18 18:55:00,
2013-06-18 14:56:00,84.7,28.5,29.06,SSE,154,0.0,3.6,13,0.00,,---,0.00,VWS V14.01,2013-06-18 18:56:00,
2013-06-18 14:57:00,85.1,28.8,29.06,SSE,161,0.0,0.0,13,0.00,,---,0.00,VWS V14.01,2013-06-18 18:57:00,
2013-06-18 14:58:00,85.6,29.2,29.06,SSE,161,0.0,0.0,13,0.00,,---,0.00,VWS V14.01,2013-06-18 18:58:00,
2013-06-18 14:59:00,86.2,29.6,29.06,SW,219,0.0,3.6,13,0.00,,---,0.00,VWS V14.01,2013-06-18 18:59:00,
2013-06-18 15:00:00,86.7,30.0,29.06,ESE,119,5.8,5.8,13,0.00,,---,0.00,VWS V14.01,2013-06-18 19:00:00,
2013-06-18 15:01:00,86.7,30.0,29.06,SE,143,4.9,6.9,13,0.00,,---,0.00,VWS V14.01,2013-06-18 19:01:00,
2013-06-18 15:02:00,86.4,29.8,29.06,East,101,4.5,7.8,13,0.00,,---,0.00,VWS V14.01,2013-06-18 19:02:00,
2013-06-18 15:03:00,86.0,29.5,29.06,ESE,102,7.8,7.8,13,0.00,,---,0.00,VWS V14.01,2013-06-18 19:03:00,
2013-06-18 15:04:00,85.3,28.9,29.06,ESE,112,8.3,9.2,13,0.00,,---,0.00,VWS V14.01,2013-06-18 19:04:00,
2013-06-18 15:05:00,84.4,28.2,29.06,South,172,3.6,8.3,13,0.00,,---,0.00,VWS V14.01,2013-06-18 19:05:00,
2013-06-18 15:06:00,83.8,27.8,29.06,SSE,152,5.4,6.3,13,0.00,,---,0.00,VWS V14.01,2013-06-18 19:06:00,
2013-06-18 15:07:00,83.5,27.5,29.06,SE,138,3.1,5.4,13,0.00,,---,0.00,VWS V14.01,2013-06-18 19:07:00,
2013-06-18 15:08:00,83.7,27.7,29.06,ESE,114,5.8,6.9,13,0.00,,---,0.00,VWS V14.01,2013-06-18 19:08:00,
2013-06-18 15:09:00,83.7,27.7,29.06,SE,145,3.6,5.8,13,0.00,,---,0.00,VWS V14.01,2013-06-18 19:09:00,
2013-06-18 15:10:00,83.7,27.7,29.06,SE,134,2.7,4.9,13,0.00,,---,0.00,VWS V14.01,2013-06-18 19:10:00,
2013-06-18 15:11:00,83.7,27.7,29.06,SE,141,6.9,7.4,13,0.00,,---,0.00,VWS V14.01,2013-06-18 19:11:00,
2013-06-18 15:12:00,83.1,29.0,29.06,SE,134,6.7,7.8,14,0.00,,---,0.00,VWS V14.01,2013-06-18 19:12:00,
2013-06-18 15:13:00,82.8,28.8,29.06,ESE,109,6.7,7.4,14,0.00,,---,0.00,VWS V14.01,2013-06-18 19:13:00,
2013-06-18 15:14:00,82.4,28.5,29.06,ESE,115,5.4,7.4,14,0.00,,---,0.00,VWS V14.01,2013-06-18 19:14:00,
2013-06-18 15:15:00,82.4,28.5,29.06,South,180,3.6,5.4,14,0.00,,---,0.00,VWS V14.01,2013-06-18 19:15:00,
2013-06-18 15:16:00,82.6,28.6,29.06,SW,222,0.0,4.0,14,0.00,,---,0.00,VWS V14.01,2013-06-18 19:16:00,
2013-06-18 15:17:00,82.9,28.9,29.06,SSW,208,0.0,3.6,14,0.00,,---,0.00,VWS V14.01,2013-06-18 19:17:00,
2013-06-18 15:18:00,83.3,27.4,29.06,ESE,112,4.5,4.5,13,0.00,,---,0.00,VWS V14.01,2013-06-18 19:18:00,
2013-06-18 15:19:00,83.5,27.5,29.06,SSE,150,0.0,4.5,13,0.00,,---,0.00,VWS V14.01,2013-06-18 19:19:00,
2013-06-18 15:20:00,83.8,27.8,29.06,ESE,113,4.5,4.5,13,0.00,,---,0.00,VWS V14.01,2013-06-18 19:20:00,
2013-06-18 15:21:00,83.8,27.8,29.06,SSE,147,4.5,4.9,13,0.00,,---,0.00,VWS V14.01,2013-06-18 19:21:00,
2013-06-18 15:22:00,83.7,27.7,29.06,SE,140,4.0,4.5,13,0.00,,---,0.00,VWS V14.01,2013-06-18 19:22:00,
2013-06-18 15:23:00,83.7,27.7,29.06,SE,141,5.8,6.3,13,0.00,,---,0.00,VWS V14.01,2013-06-18 19:23:00,
2013-06-18 15:24:00,83.7,27.7,29.06,SE,126,5.8,6.7,13,0.00,,---,0.00,VWS V14.01,2013-06-18 19:24:00,
2013-06-18 15:25:00,83.7,27.7,29.06,SSE,154,2.7,5.8,13,0.00,,---,0.00,VWS V14.01,2013-06-18 19:25:00,
2013-06-18 15:26:00,83.5,27.5,29.06,ESE,104,7.4,7.4,13,0.00,,---,0.00,VWS V14.01,2013-06-18 19:26:00,
2013-06-18 15:27:00,82.9,28.9,29.06,ESE,112,4.9,7.8,14,0.00,,---,0.00,VWS V14.01,2013-06-18 19:27:00,
2013-06-18 15:28:00,82.9,28.9,29.06,East,79,4.9,5.8,14,0.00,,---,0.00,VWS V14.01,2013-06-18 19:28:00,
2013-06-18 15:29:00,82.8,28.8,29.06,East,100,5.8,7.4,14,0.00,,---,0.00,VWS V14.01,2013-06-18 19:29:00,
2013-06-18 15:30:00,82.8,28.8,29.06,ESE,110,6.3,8.3,14,0.00,,---,0.00,VWS V14.01,2013-06-18 19:30:00,
2013-06-18 15:31:00,82.6,28.6,29.06,SE,130,6.3,8.3,14,0.00,,---,0.00,VWS V14.01,2013-06-18 19:31:00,
2013-06-18 15:32:00,82.6,28.6,29.06,ENE,65,3.1,6.3,14,0.00,,---,0.00,VWS V14.01,2013-06-18 19:32:00,
2013-06-18 15:33:00,82.9,28.9,29.06,ENE,66,0.0,3.1,14,0.00,,---,0.00,VWS V14.01,2013-06-18 19:33:00,
2013-06-18 15:34:00,83.5,32.6,29.06,NE,49,0.0,0.0,16,0.00,,---,0.00,VWS V14.01,2013-06-18 19:34:00,
2013-06-18 15:35:00,84.0,27.9,29.06,ENE,69,0.0,0.0,13,0.00,,---,0.00,VWS V14.01,2013-06-18 19:35:00,
2013-06-18 15:36:00,84.6,33.5,29.06,ENE,69,0.0,0.0,16,0.00,,---,0.00,VWS V14.01,2013-06-18 19:36:00,
2013-06-18 15:37:00,84.9,33.8,29.06,ESE,108,4.5,4.5,16,0.00,,---,0.00,VWS V14.01,2013-06-18 19:37:00,
2013-06-18 15:38:00,85.1,28.8,29.06,ENE,76,0.0,4.5,13,0.00,,---,0.00,VWS V14.01,2013-06-18 19:38:00,
2013-06-18 15:39:00,85.1,28.8,29.06,ENE,76,0.0,0.0,13,0.00,,---,0.00,VWS V14.01,2013-06-18 19:39:00,
2013-06-18 15:40:00,85.6,29.2,29.06,ENE,78,3.6,3.6,13,0.00,,---,0.00,VWS V14.01,2013-06-18 19:40:00,
2013-06-18 15:41:00,85.8,29.4,29.06,East,92,6.9,8.7,13,0.00,,---,0.00,VWS V14.01,2013-06-18 19:41:00,
2013-06-18 15:42:00,85.5,29.1,29.06,SE,124,5.8,7.8,13,0.00,,---,0.00,VWS V14.01,2013-06-18 19:42:00,
2013-06-18 15:43:00,84.6,28.4,29.06,ESE,107,6.7,6.7,13,0.00,,---,0.00,VWS V14.01,2013-06-18 19:43:00,
2013-06-18 15:44:00,83.8,27.8,29.06,SE,124,5.4,6.7,13,0.00,,---,0.00,VWS V14.01,2013-06-18 19:44:00,
2013-06-18 15:45:00,83.7,27.7,29.06,ESE,122,4.5,7.8,13,0.00,,---,0.00,VWS V14.01,2013-06-18 19:45:00,
2013-06-18 15:46:00,83.5,27.5,29.06,South,181,4.5,4.5,13,0.00,,---,0.00,VWS V14.01,2013-06-18 19:46:00,
2013-06-18 15:47:00,83.7,27.7,29.06,ESE,123,5.8,5.8,13,0.00,,---,0.00,VWS V14.01,2013-06-18 19:47:00,
2013-06-18 15:48:00,83.8,27.8,29.06,SSE,167,4.9,5.8,13,0.00,,---,0.00,VWS V14.01,2013-06-18 19:48:00,
2013-06-18 15:49:00,83.8,27.8,29.06,SE,144,5.4,5.4,13,0.00,,---,0.00,VWS V14.01,2013-06-18 19:49:00,
2013-06-18 15:50:00,84.0,27.9,29.06,SE,134,3.1,5.4,13,0.00,,---,0.00,VWS V14.01,2013-06-18 19:50:00,
2013-06-18 15:51:00,84.2,28.1,29.06,East,88,4.9,4.9,13,0.00,,---,0.00,VWS V14.01,2013-06-18 19:51:00,
2013-06-18 15:52:00,84.4,28.2,29.06,East,83,4.9,9.6,13,0.00,,---,0.00,VWS V14.01,2013-06-18 19:52:00,
2013-06-18 15:53:00,84.4,28.2,29.06,ESE,109,5.8,6.7,13,0.00,,---,0.00,VWS V14.01,2013-06-18 19:53:00,
2013-06-18 15:54:00,84.6,28.4,29.06,ESE,105,0.0,5.8,13,0.00,,---,0.00,VWS V14.01,2013-06-18 19:54:00,
2013-06-18 15:55:00,84.9,28.6,29.06,ESE,105,0.0,0.0,13,0.00,,---,0.00,VWS V14.01,2013-06-18 19:55:00,
2013-06-18 15:56:00,85.1,28.8,29.06,SE,124,6.7,6.7,13,0.00,,---,0.00,VWS V14.01,2013-06-18 19:56:00,
2013-06-18 15:57:00,84.9,28.6,29.03,SE,124,2.7,6.7,13,0.00,,---,0.00,VWS V14.01,2013-06-18 19:57:00,
2013-06-18 15:58:00,85.1,28.8,29.03,East,86,3.1,3.1,13,0.00,,---,0.00,VWS V14.01,2013-06-18 19:58:00,
2013-06-18 15:59:00,85.3,28.9,29.03,ENE,72,0.0,3.1,13,0.00,,---,0.00,VWS V14.01,2013-06-18 19:59:00,
2013-06-18 16:00:00,85.6,29.2,29.03,ENE,72,0.0,0.0,13,0.00,,---,0.00,VWS V14.01,2013-06-18 20:00:00,
2013-06-18 16:01:00,86.0,29.5,29.03,NNE,24,0.0,3.1,13,0.00,,---,0.00,VWS V14.01,2013-06-18 20:01:00,
2013-06-18 16:02:00,86.2,29.6,29.03,ENE,74,3.6,4.5,13,0.00,,---,0.00,VWS V14.01,2013-06-18 20:02:00,
2013-06-18 16:03:00,86.4,29.8,29.03,East,101,0.0,3.6,13,0.00,,---,0.00,VWS V14.01,2013-06-18 20:03:00,
2013-06-18 16:04:00,86.4,29.8,29.03,East,99,2.7,4.5,13,0.00,,---,0.00,VWS V14.01,2013-06-18 20:04:00,
2013-06-18 16:05:00,86.2,29.6,29.03,East,99,0.0,2.7,13,0.00,,---,0.00,VWS V14.01,2013-06-18 20:05:00,
2013-06-18 16:06:00,86.0,29.5,29.03,East,86,3.6,4.0,13,0.00,,---,0.00,VWS V14.01,2013-06-18 20:06:00,
2013-06-18 16:07:00,86.0,29.5,29.03,SE,125,0.0,4.5,13,0.00,,---,0.00,VWS V14.01,2013-06-18 20:07:00,
2013-06-18 16:08:00,86.2,29.6,29.03,SE,125,0.0,0.0,13,0.00,,---,0.00,VWS V14.01,2013-06-18 20:08:00,
2013-06-18 16:09:00,86.4,29.8,29.03,SE,125,0.0,0.0,13,0.00,,---,0.00,VWS V14.01,2013-06-18 20:09:00,
2013-06-18 16:10:00,86.5,29.9,29.03,SE,125,0.0,0.0,13,0.00,,---,0.00,VWS V14.01,2013-06-18 20:10:00,
2013-06-18 16:11:00,86.9,30.2,29.03,East,90,0.0,0.0,13,0.00,,---,0.00,VWS V14.01,2013-06-18 20:11:00,
2013-06-18 16:12:00,86.9,30.2,29.03,SE,132,3.1,3.6,13,0.00,,---,0.00,VWS V14.01,2013-06-18 20:12:00,
2013-06-18 16:13:00,87.1,30.3,29.03,ESE,123,9.2,9.2,13,0.00,,---,0.00,VWS V14.01,2013-06-18 20:13:00,
2013-06-18 16:14:00,86.5,29.9,29.03,ESE,117,5.8,9.2,13,0.00,,---,0.00,VWS V14.01,2013-06-18 20:14:00,
2013-06-18 16:15:00,86.0,29.5,29.03,ESE,113,6.7,7.8,13,0.00,,---,0.00,VWS V14.01,2013-06-18 20:15:00,
2013-06-18 16:16:00,85.5,29.1,29.03,SSE,155,4.5,6.7,13,0.00,,---,0.00,VWS V14.01,2013-06-18 20:16:00,
2013-06-18 16:17:00,85.1,28.8,29.03,SW,229,3.1,4.9,13,0.00,,---,0.00,VWS V14.01,2013-06-18 20:17:00,
2013-06-18 16:18:00,85.5,29.1,29.03,SSW,198,0.0,3.6,13,0.00,,---,0.00,VWS V14.01,2013-06-18 20:18:00,
2013-06-18 16:19:00,85.8,29.4,29.03,East,95,3.6,3.6,13,0.00,,---,0.00,VWS V14.01,2013-06-18 20:19:00,
2013-06-18 16:20:00,86.0,29.5,29.03,SE,129,3.6,5.8,13,0.00,,---,0.00,VWS V14.01,2013-06-18 20:20:00,
2013-06-18 16:21:00,86.2,29.6,29.03,East,91,5.4,5.8,13,0.00,,---,0.00,VWS V14.01,2013-06-18 20:21:00,
2013-06-18 16:22:00,85.6,29.2,29.03,ENE,68,2.7,6.3,13,0.00,,---,0.00,VWS V14.01,2013-06-18 20:22:00,
2013-06-18 16:23:00,85.6,29.2,29.03,NNW,334,0.0,2.7,13,0.00,,---,0.00,VWS V14.01,2013-06-18 20:23:00,
2013-06-18 16:24:00,85.6,29.2,29.03,NNW,341,0.0,0.0,13,0.00,,---,0.00,VWS V14.01,2013-06-18 20:24:00,
2013-06-18 16:25:00,85.8,29.4,29.03,NW,321,4.0,4.0,13,0.00,,---,0.00,VWS V14.01,2013-06-18 20:25:00,
2013-06-18 16:26:00,85.6,29.2,29.03,NNW,345,0.0,4.0,13,0.00,,---,0.00,VWS V14.01,2013-06-18 20:26:00,
2013-06-18 16:27:00,85.6,29.2,29.03,NNW,345,0.0,2.7,13,0.00,,---,0.00,VWS V14.01,2013-06-18 20:27:00,
2013-06-18 16:28:00,85.5,29.1,29.03,East,83,3.6,3.6,13,0.00,,---,0.00,VWS V14.01,2013-06-18 20:28:00,
2013-06-18 16:29:00,85.5,29.1,29.03,ENE,77,2.7,4.0,13,0.00,,---,0.00,VWS V14.01,2013-06-18 20:29:00,
2013-06-18 16:30:00,85.3,28.9,29.03,East,100,5.8,6.3,13,0.00,,---,0.00,VWS V14.01,2013-06-18 20:30:00,
2013-06-18 16:31:00,84.7,28.5,29.03,ESE,115,4.9,7.8,13,0.00,,---,0.00,VWS V14.01,2013-06-18 20:31:00,
2013-06-18 16:32:00,84.4,28.2,29.03,ESE,106,8.7,8.7,13,0.00,,---,0.00,VWS V14.01,2013-06-18 20:32:00,
2013-06-18 16:33:00,84.0,27.9,29.03,ESE,105,6.7,9.2,13,0.00,,---,0.00,VWS V14.01,2013-06-18 20:33:00,
2013-06-18 16:34:00,83.7,27.7,29.03,ENE,69,4.9,8.3,13,0.00,,---,0.00,VWS V14.01,2013-06-18 20:34:00,
2013-06-18 16:35:00,83.7,27.7,29.03,ESE,113,4.9,4.9,13,0.00,,---,0.00,VWS V14.01,2013-06-18 20:35:00,
2013-06-18 16:36:00,83.7,27.7,29.03,ESE,108,4.5,4.9,13,0.00,,---,0.00,VWS V14.01,2013-06-18 20:36:00,
2013-06-18 16:37:00,83.7,27.7,29.03,ESE,119,0.0,4.5,13,0.00,,---,0.00,VWS V14.01,2013-06-18 20:37:00,
2013-06-18 16:38:00,84.2,28.1,29.03,NW,306,0.0,3.1,13,0.00,,---,0.00,VWS V14.01,2013-06-18 20:38:00,
2013-06-18 16:39:00,84.6,33.5,29.03,NW,306,0.0,0.0,16,0.00,,---,0.00,VWS V14.01,2013-06-18 20:39:00,
2013-06-18 16:40:00,84.7,33.6,29.03,NW,306,0.0,0.0,16,0.00,,---,0.00,VWS V14.01,2013-06-18 20:40:00,
2013-06-18 16:41:00,85.1,33.9,29.03,East,86,4.9,5.4,16,0.00,,---,0.00,VWS V14.01,2013-06-18 20:41:00,
2013-06-18 16:42:00,84.9,28.6,29.03,East,97,0.0,4.9,13,0.00,,---,0.00,VWS V14.01,2013-06-18 20:42:00,
2013-06-18 16:43:00,84.9,33.8,29.03,East,82,0.0,2.7,16,0.00,,---,0.00,VWS V14.01,2013-06-18 20:43:00,
2013-06-18 16:44:00,85.1,28.8,29.03,ESE,108,5.4,5.4,13,0.00,,---,0.00,VWS V14.01,2013-06-18 20:44:00,
2013-06-18 16:45:00,84.7,28.5,29.03,SE,126,6.3,6.7,13,0.00,,---,0.00,VWS V14.01,2013-06-18 20:45:00,
2013-06-18 16:46:00,84.4,28.2,29.03,ESE,114,5.4,6.3,13,0.00,,---,0.00,VWS V14.01,2013-06-18 20:46:00,
2013-06-18 16:47:00,84.2,28.1,29.03,ESE,106,0.0,5.4,13,0.00,,---,0.00,VWS V14.01,2013-06-18 20:47:00,
2013-06-18 16:48:00,84.2,28.1,29.03,ESE,111,0.0,3.1,13,0.00,,---,0.00,VWS V14.01,2013-06-18 20:48:00,
2013-06-18 16:49:00,84.2,28.1,29.03,NW,304,2.7,2.7,13,0.00,,---,0.00,VWS V14.01,2013-06-18 20:49:00,
2013-06-18 16:50:00,84.4,28.2,29.03,NW,304,0.0,2.7,13,0.00,,---,0.00,VWS V14.01,2013-06-18 20:50:00,
2013-06-18 16:51:00,84.6,28.4,29.03,ENE,69,0.0,4.5,13,0.00,,---,0.00,VWS V14.01,2013-06-18 20:51:00,
2013-06-18 16:52:00,84.7,28.5,29.03,ESE,115,3.6,6.3,13,0.00,,---,0.00,VWS V14.01,2013-06-18 20:52:00,
2013-06-18 16:53:00,84.7,28.5,29.03,ESE,112,2.7,5.8,13,0.00,,---,0.00,VWS V14.01,2013-06-18 20:53:00,
2013-06-18 16:54:00,84.6,28.4,29.03,ESE,114,3.6,4.0,13,0.00,,---,0.00,VWS V14.01,2013-06-18 20:54:00,
2013-06-18 16:55:00,84.2,28.1,29.03,ESE,105,6.3,6.3,13,0.00,,---,0.00,VWS V14.01,2013-06-18 20:55:00,
2013-06-18 16:56:00,83.7,27.7,29.03,East,101,6.9,8.3,13,0.00,,---,0.00,VWS V14.01,2013-06-18 20:56:00,
2013-06-18 16:57:00,83.3,27.4,29.03,SE,135,3.1,6.9,13,0.00,,---,0.00,VWS V14.01,2013-06-18 20:57:00,
2013-06-18 16:58:00,83.3,29.2,29.03,ENE,70,3.1,4.5,14,0.00,,---,0.00,VWS V14.01,2013-06-18 20:58:00,
2013-06-18 16:59:00,83.5,27.5,29.03,East,83,0.0,4.0,13,0.00,,---,0.00,VWS V14.01,2013-06-18 20:59:00,
2013-06-18 17:00:00,83.7,32.8,29.03,East,83,0.0,0.0,16,0.00,,---,0.00,VWS V14.01,2013-06-18 21:00:00,
2013-06-18 17:01:00,83.8,32.9,29.03,East,84,0.0,0.0,16,0.00,,---,0.00,VWS V14.01,2013-06-18 21:01:00,
2013-06-18 17:02:00,84.0,27.9,29.03,East,84,0.0,0.0,13,0.00,,---,0.00,VWS V14.01,2013-06-18 21:02:00,
2013-06-18 17:03:00,84.2,28.1,29.03,East,86,0.0,0.0,13,0.00,,---,0.00,VWS V14.01,2013-06-18 21:03:00,
2013-06-18 17:04:00,84.4,28.2,29.03,SE,132,0.0,3.1,13,0.00,,---,0.00,VWS V14.01,2013-06-18 21:04:00,
2013-06-18 17:05:00,84.4,28.2,29.03,ESE,122,0.0,3.1,13,0.00,,---,0.00,VWS V14.01,2013-06-18 21:05:00,
2013-06-18 17:06:00,84.6,28.4,29.03,ESE,105,0.0,3.6,13,0.00,,---,0.00,VWS V14.01,2013-06-18 21:06:00,
2013-06-18 17:07:00,84.9,28.6,29.03,NW,316,0.0,0.0,13,0.00,,---,0.00,VWS V14.01,2013-06-18 21:07:00,
2013-06-18 17:08:00,84.9,28.6,29.03,WNW,302,0.0,3.1,13,0.00,,---,0.00,VWS V14.01,2013-06-18 21:08:00,
2013-06-18 17:09:00,85.1,28.8,29.03,WNW,300,0.0,0.0,13,0.00,,---,0.00,VWS V14.01,2013-06-18 21:09:00,
2013-06-18 17:10:00,85.3,28.9,29.03,East,81,4.5,4.9,13,0.00,,---,0.00,VWS V14.01,2013-06-18 21:10:00,
2013-06-18 17:11:00,85.1,28.8,29.03,ENE,69,0.0,4.5,13,0.00,,---,0.00,VWS V14.01,2013-06-18 21:11:00,
2013-06-18 17:12:00,85.3,34.1,29.03,ENE,69,0.0,0.0,16,0.00,,---,0.00,VWS V14.01,2013-06-18 21:12:00,
2013-06-18 17:13:00,85.5,29.1,29.03,ENE,69,0.0,0.0,13,0.00,,---,0.00,VWS V14.01,2013-06-18 21:13:00,
2013-06-18 17:14:00,85.5,29.1,29.03,NNW,327,0.0,0.0,13,0.00,,---,0.00,VWS V14.01,2013-06-18 21:14:00,
2013-06-18 17:15:00,85.5,29.1,29.03,ENE,62,0.0,0.0,13,0.00,,---,0.00,VWS V14.01,2013-06-18 21:15:00,
2013-06-18 17:16:00,85.3,28.9,29.03,ENE,62,0.0,0.0,13,0.00,,---,0.00,VWS V14.01,2013-06-18 21:16:00,
2013-06-18 17:17:00,85.3,28.9,29.03,ENE,62,0.0,0.0,13,0.00,,---,0.00,VWS V14.01,2013-06-18 21:17:00,
2013-06-18 17:18:00,85.1,28.8,29.03,ESE,110,3.6,4.5,13,0.00,,---,0.00,VWS V14.01,2013-06-18 21:18:00,
2013-06-18 17:19:00,84.9,28.6,29.03,ESE,114,0.0,4.9,13,0.00,,---,0.00,VWS V14.01,2013-06-18 21:19:00,
2013-06-18 17:20:00,84.9,28.6,29.03,ENE,70,4.9,5.4,13,0.00,,---,0.00,VWS V14.01,2013-06-18 21:20:00,
2013-06-18 17:21:00,84.9,28.6,29.03,East,97,4.9,5.8,13,0.00,,---,0.00,VWS V14.01,2013-06-18 21:21:00,
2013-06-18 17:22:00,84.6,28.4,29.03,East,89,4.5,5.8,13,0.00,,---,0.00,VWS V14.01,2013-06-18 21:22:00,
2013-06-18 17:23:00,84.4,28.2,29.03,East,82,0.0,4.5,13,0.00,,---,0.00,VWS V14.01,2013-06-18 21:23:00,
2013-06-18 17:24:00,84.2,28.1,29.03,East,90,2.7,4.0,13,0.00,,---,0.00,VWS V14.01,2013-06-18 21:24:00,
2013-06-18 17:25:00,84.0,27.9,29.03,SE,134,4.5,4.5,13,0.00,,---,0.00,VWS V14.01,2013-06-18 21:25:00,
2013-06-18 17:26:00,84.0,27.9,29.03,SE,127,0.0,5.8,13,0.00,,---,0.00,VWS V14.01,2013-06-18 21:26:00,
2013-06-18 17:27:00,84.0,27.9,29.03,NNW,329,0.0,4.9,13,0.00,,---,0.00,VWS V14.01,2013-06-18 21:27:00,
2013-06-18 17:28:00,84.0,27.9,29.03,ENE,65,0.0,0.0,13,0.00,,---,0.00,VWS V14.01,2013-06-18 21:28:00,
2013-06-18 17:29:00,84.0,27.9,29.03,ENE,67,0.0,0.0,13,0.00,,---,0.00,VWS V14.01,2013-06-18 21:29:00,
2013-06-18 17:30:00,84.0,27.9,29.03,East,80,4.5,5.4,13,0.00,,---,0.00,VWS V14.01,2013-06-18 21:30:00,
2013-06-18 17:31:00,83.8,27.8,29.03,NE,55,5.4,6.3,13,0.00,,---,0.00,VWS V14.01,2013-06-18 21:31:00,
2013-06-18 17:32:00,83.8,27.8,29.03,ESE,117,4.9,6.3,13,0.00,,---,0.00,VWS V14.01,2013-06-18 21:32:00,
2013-06-18 17:33:00,84.0,33.0,29.03,ESE,118,0.0,4.9,16,0.00,,---,0.00,VWS V14.01,2013-06-18 21:33:00,
2013-06-18 17:34:00,84.2,33.2,29.03,SE,131,5.8,7.8,16,0.00,,---,0.00,VWS V14.01,2013-06-18 21:34:00,
2013-06-18 17:35:00,83.8,27.8,29.03,SE,136,4.0,6.3,13,0.00,,---,0.00,VWS V14.01,2013-06-18 21:35:00,
2013-06-18 17:36:00,83.7,27.7,29.03,ESE,112,8.3,8.3,13,0.00,,---,0.00,VWS V14.01,2013-06-18 21:36:00,
2013-06-18 17:37:00,83.3,27.4,29.03,ESE,107,3.1,9.2,13,0.00,,---,0.00,VWS V14.01,2013-06-18 21:37:00,
2013-06-18 17:38:00,83.3,29.2,29.03,East,81,3.1,4.5,14,0.00,,---,0.00,VWS V14.01,2013-06-18 21:38:00,
2013-06-18 17:39:00,83.3,29.2,29.03,East,96,0.0,4.0,14,0.00,,---,0.00,VWS V14.01,2013-06-18 21:39:00,
2013-06-18 17:40:00,83.3,29.2,29.03,East,96,0.0,0.0,14,0.00,,---,0.00,VWS V14.01,2013-06-18 21:40:00,
2013-06-18 17:41:00,83.3,29.2,29.03,ESE,107,6.7,6.7,14,0.00,,---,0.00,VWS V14.01,2013-06-18 21:41:00,
2013-06-18 17:42:00,83.1,29.0,29.03,ENE,77,3.1,6.7,14,0.00,,---,0.00,VWS V14.01,2013-06-18 21:42:00,
2013-06-18 17:43:00,83.1,29.0,29.03,East,98,4.0,4.5,14,0.00,,---,0.00,VWS V14.01,2013-06-18 21:43:00,
2013-06-18 17:44:00,83.1,29.0,29.03,East,83,4.5,5.4,14,0.00,,---,0.00,VWS V14.01,2013-06-18 21:44:00,
2013-06-18 17:45:00,83.1,29.0,29.03,South,185,3.1,6.9,14,0.00,,---,0.00,VWS V14.01,2013-06-18 21:45:00,
2013-06-18 17:46:00,82.8,28.8,29.03,ESE,110,4.5,5.8,14,0.00,,---,0.00,VWS V14.01,2013-06-18 21:46:00,
2013-06-18 17:47:00,82.2,28.3,29.03,ESE,122,6.7,7.8,14,0.00,,---,0.00,VWS V14.01,2013-06-18 21:47:00,
2013-06-18 17:48:00,81.7,27.9,29.03,SSE,151,4.5,7.8,14,0.00,,---,0.00,VWS V14.01,2013-06-18 21:48:00,
2013-06-18 17:49:00,81.5,27.8,29.03,East,92,4.0,5.8,14,0.00,,---,0.00,VWS V14.01,2013-06-18 21:49:00,
2013-06-18 17:50:00,81.5,27.8,29.03,SE,136,0.0,4.0,14,0.00,,---,0.00,VWS V14.01,2013-06-18 21:50:00,
2013-06-18 17:51:00,81.7,27.9,29.03,SE,128,3.6,3.6,14,0.00,,---,0.00,VWS V14.01,2013-06-18 21:51:00,
2013-06-18 17:52:00,81.9,28.0,29.03,SE,129,0.0,4.9,14,0.00,,---,0.00,VWS V14.01,2013-06-18 21:52:00,
2013-06-18 17:53:00,82.2,28.3,29.03,SE,129,0.0,3.1,14,0.00,,---,0.00,VWS V14.01,2013-06-18 21:53:00,
2013-06-18 17:54:00,82.2,28.3,29.03,ESE,119,4.0,4.0,14,0.00,,---,0.00,VWS V14.01,2013-06-18 21:54:00,
2013-06-18 17:55:00,82.2,28.3,29.03,East,99,2.7,6.3,14,0.00,,---,0.00,VWS V14.01,2013-06-18 21:55:00,
2013-06-18 17:56:00,82.0,28.2,29.03,ENE,76,4.0,4.0,14,0.00,,---,0.00,VWS V14.01,2013-06-18 21:56:00,
2013-06-18 17:57:00,82.2,28.3,29.03,East,88,4.9,6.3,14,0.00,,---,0.00,VWS V14.01,2013-06-18 21:57:00,
2013-06-18 17:58:00,82.4,28.5,29.03,ESE,119,3.6,6.3,14,0.00,,---,0.00,VWS V14.01,2013-06-18 21:58:00,
2013-06-18 17:59:00,82.4,28.5,29.03,SE,128,5.4,7.4,14,0.00,,---,0.00,VWS V14.01,2013-06-18 21:59:00,
2013-06-18 18:00:00,82.2,28.3,29.03,East,97,4.5,5.8,14,0.00,,---,0.00,VWS V14.01,2013-06-18 22:00:00,
2013-06-18 18:01:00,82.2,28.3,29.03,ENE,74,3.6,4.5,14,0.00,,---,0.00,VWS V14.01,2013-06-18 22:01:00,
2013-06-18 18:02:00,82.0,28.2,29.03,East,98,3.1,4.0,14,0.00,,---,0.00,VWS V14.01,2013-06-18 22:02:00,
2013-06-18 18:03:00,82.0,28.2,29.03,East,88,0.0,3.1,14,0.00,,---,0.00,VWS V14.01,2013-06-18 22:03:00,
2013-06-18 18:04:00,82.2,31.6,29.03,East,88,0.0,0.0,16,0.00,,---,0.00,VWS V14.01,2013-06-18 22:04:00,
2013-06-18 18:05:00,82.4,31.8,29.03,East,88,0.0,0.0,16,0.00,,---,0.00,VWS V14.01,2013-06-18 22:05:00,
2013-06-18 18:06:00,82.6,31.9,29.03,East,88,0.0,0.0,16,0.00,,---,0.00,VWS V14.01,2013-06-18 22:06:00,
2013-06-18 18:07:00,82.8,32.0,29.03,East,88,0.0,0.0,16,0.00,,---,0.00,VWS V14.01,2013-06-18 22:07:00,
2013-06-18 18:08:00,82.9,32.2,29.03,East,88,0.0,0.0,16,0.00,,---,0.00,VWS V14.01,2013-06-18 22:08:00,
2013-06-18 18:09:00,83.1,29.0,29.03,East,87,0.0,0.0,14,0.00,,---,0.00,VWS V14.01,2013-06-18 22:09:00,
2013-06-18 18:10:00,83.3,32.5,29.03,East,87,0.0,0.0,16,0.00,,---,0.00,VWS V14.01,2013-06-18 22:10:00,
2013-06-18 18:11:00,83.3,27.4,29.03,East,93,2.7,4.0,13,0.00,,---,0.00,VWS V14.01,2013-06-18 22:11:00,
2013-06-18 18:12:00,83.3,27.4,29.03,East,93,0.0,2.7,13,0.00,,---,0.00,VWS V14.01,2013-06-18 22:12:00,
2013-06-18 18:13:00,83.3,27.4,29.03,ESE,112,0.0,0.0,13,0.00,,---,0.00,VWS V14.01,2013-06-18 22:13:00,
2013-06-18 18:14:00,83.7,27.7,29.03,ESE,112,0.0,0.0,13,0.00,,---,0.00,VWS V14.01,2013-06-18 22:14:00,
2013-06-18 18:15:00,83.8,27.8,29.03,ESE,112,0.0,0.0,13,0.00,,---,0.00,VWS V14.01,2013-06-18 22:15:00,
2013-06-18 18:16:00,84.2,28.1,29.03,ESE,112,0.0,0.0,13,0.00,,---,0.00,VWS V14.01,2013-06-18 22:16:00,
2013-06-18 18:17:00,84.6,28.4,29.03,ESE,112,0.0,0.0,13,0.00,,---,0.00,VWS V14.01,2013-06-18 22:17:00,
2013-06-18 18:18:00,84.9,28.6,29.03,ESE,112,0.0,0.0,13,0.00,,---,0.00,VWS V14.01,2013-06-18 22:18:00,
2013-06-18 18:19:00,84.9,28.6,29.03,SE,136,5.4,6.3,13,0.00,,---,0.00,VWS V14.01,2013-06-18 22:19:00,
2013-06-18 18:20:00,85.1,28.8,29.03,ESE,110,0.0,5.4,13,0.00,,---,0.00,VWS V14.01,2013-06-18 22:20:00,
2013-06-18 18:21:00,85.6,29.2,29.03,WSW,250,0.0,4.0,13,0.00,,---,0.00,VWS V14.01,2013-06-18 22:21:00,
2013-06-18 18:22:00,86.0,29.5,29.03,WSW,250,0.0,0.0,13,0.00,,---,0.00,VWS V14.01,2013-06-18 22:22:00,
2013-06-18 18:23:00,86.4,29.8,29.03,WSW,250,0.0,0.0,13,0.00,,---,0.00,VWS V14.01,2013-06-18 22:23:00,
2013-06-18 18:24:00,86.7,30.0,29.03,WSW,250,0.0,0.0,13,0.00,,---,0.00,VWS V14.01,2013-06-18 22:24:00,
2013-06-18 18:25:00,86.9,30.2,29.03,East,79,0.0,0.0,13,0.00,,---,0.00,VWS V14.01,2013-06-18 22:25:00,
2013-06-18 18:26:00,87.1,30.3,29.03,ENE,69,3.6,4.5,13,0.00,,---,0.00,VWS V14.01,2013-06-18 22:26:00,
2013-06-18 18:27:00,87.1,30.3,29.03,ESE,113,6.3,6.3,13,0.00,,---,0.00,VWS V14.01,2013-06-18 22:27:00,
2013-06-18 18:28:00,86.5,29.9,29.03,ESE,113,3.1,6.7,13,0.00,,---,0.00,VWS V14.01,2013-06-18 22:28:00,
2013-06-18 18:29:00,86.7,30.0,29.03,ESE,113,0.0,3.1,13,0.00,,---,0.00,VWS V14.01,2013-06-18 22:29:00,
2013-06-18 18:30:00,87.3,30.5,29.03,ESE,113,0.0,0.0,13,0.00,,---,0.00,VWS V14.01,2013-06-18 22:30:00,
2013-06-18 18:31:00,87.8,30.9,29.03,East,83,4.0,4.0,13,0.00,,---,0.00,VWS V14.01,2013-06-18 22:31:00,
2013-06-18 18:32:00,88.2,31.2,29.03,East,99,4.9,4.9,13,0.00,,---,0.00,VWS V14.01,2013-06-18 22:32:00,
2013-06-18 18:33:00,88.2,31.2,29.03,SE,134,3.1,4.9,13,0.00,,---,0.00,VWS V14.01,2013-06-18 22:33:00,
2013-06-18 18:34:00,87.8,30.9,29.03,SSE,157,3.1,4.9,13,0.00,,---,0.00,VWS V14.01,2013-06-18 22:34:00,
2013-06-18 18:35:00,88.5,31.5,29.03,SSE,157,0.0,3.1,13,0.00,,---,0.00,VWS V14.01,2013-06-18 22:35:00,
2013-06-18 18:36:00,89.4,30.2,29.03,NNE,21,0.0,2.7,12,0.00,,---,0.00,VWS V14.01,2013-06-18 22:36:00,
2013-06-18 18:37:00,90.9,31.3,29.03,NNE,21,0.0,0.0,12,0.00,,---,0.00,VWS V14.01,2013-06-18 22:37:00,
2013-06-18 18:38:00,91.4,31.7,29.03,NNE,21,0.0,0.0,12,0.00,,---,0.00,VWS V14.01,2013-06-18 22:38:00,
2013-06-18 18:39:00,91.2,31.6,29.03,ENE,69,0.0,3.6,12,0.00,,---,0.00,VWS V14.01,2013-06-18 22:39:00,
2013-06-18 18:40:00,90.1,30.7,29.03,ENE,71,0.0,0.0,12,0.00,,---,0.00,VWS V14.01,2013-06-18 22:40:00,
2013-06-18 18:41:00,89.1,29.9,29.03,ENE,73,0.0,0.0,12,0.00,,---,0.00,VWS V14.01,2013-06-18 22:41:00,
2013-06-18 18:42:00,88.9,29.8,29.03,ENE,73,0.0,0.0,12,0.00,,---,0.00,VWS V14.01,2013-06-18 22:42:00,
2013-06-18 18:43:00,89.4,30.2,29.03,ENE,73,0.0,0.0,12,0.00,,---,0.00,VWS V14.01,2013-06-18 22:43:00,
2013-06-18 18:44:00,89.6,30.3,29.03,ENE,73,0.0,0.0,12,0.00,,---,0.00,VWS V14.01,2013-06-18 22:44:00,
2013-06-18 18:45:00,88.9,29.8,29.03,ESE,121,4.9,4.9,12,0.00,,---,0.00,VWS V14.01,2013-06-18 22:45:00,
2013-06-18 18:46:00,88.7,31.6,29.03,ESE,121,0.0,4.9,13,0.00,,---,0.00,VWS V14.01,2013-06-18 22:46:00,
2013-06-18 18:47:00,89.2,30.0,29.03,ESE,121,0.0,0.0,12,0.00,,---,0.00,VWS V14.01,2013-06-18 22:47:00,
2013-06-18 18:48:00,89.1,29.9,29.03,East,84,3.6,3.6,12,0.00,,---,0.00,VWS V14.01,2013-06-18 22:48:00,
2013-06-18 18:49:00,89.6,30.3,29.03,SSE,148,4.0,4.5,12,0.00,,---,0.00,VWS V14.01,2013-06-18 22:49:00,
2013-06-18 18:50:00,89.6,30.3,29.03,SSE,153,3.1,4.0,12,0.00,,---,0.00,VWS V14.01,2013-06-18 22:50:00,
2013-06-18 18:51:00,89.4,30.2,29.03,SE,132,5.4,5.4,12,0.00,,---,0.00,VWS V14.01,2013-06-18 22:51:00,
2013-06-18 18:52:00,89.1,29.9,29.03,SSE,158,3.6,5.4,12,0.00,,---,0.00,VWS V14.01,2013-06-18 22:52:00,
2013-06-18 18:53:00,89.2,30.0,29.03,SSE,150,3.1,4.5,12,0.00,,---,0.00,VWS V14.01,2013-06-18 22:53:00,
2013-06-18 18:54:00,88.3,31.3,29.03,SE,139,4.5,4.5,13,0.00,,---,0.00,VWS V14.01,2013-06-18 22:54:00,
2013-06-18 18:55:00,87.8,30.9,29.03,ESE,114,0.0,4.5,13,0.00,,---,0.00,VWS V14.01,2013-06-18 22:55:00,
2013-06-18 18:56:00,88.7,29.6,29.03,ESE,114,0.0,0.0,12,0.00,,---,0.00,VWS V14.01,2013-06-18 22:56:00,
2013-06-18 18:57:00,88.7,31.6,29.03,East,99,3.1,3.1,13,0.00,,---,0.00,VWS V14.01,2013-06-18 22:57:00,
2013-06-18 18:58:00,88.3,31.3,29.03,ESE,122,4.0,4.5,13,0.00,,---,0.00,VWS V14.01,2013-06-18 22:58:00,
2013-06-18 18:59:00,88.0,31.0,29.03,ENE,70,4.9,5.4,13,0.00,,---,0.00,VWS V14.01,2013-06-18 22:59:00,
2013-06-18 19:00:00,87.8,30.9,29.03,East,89,4.0,4.9,13,0.00,,---,0.00,VWS V14.01,2013-06-18 23:00:00,
2013-06-18 19:01:00,87.6,30.8,29.03,ESE,118,4.5,5.8,13,0.00,,---,0.00,VWS V14.01,2013-06-18 23:01:00,
2013-06-18 19:02:00,88.3,31.3,29.03,ESE,109,3.6,4.5,13,0.00,,---,0.00,VWS V14.01,2013-06-18 23:02:00,
2013-06-18 19:03:00,88.5,31.5,29.03,SE,137,0.0,4.5,13,0.00,,---,0.00,VWS V14.01,2013-06-18 23:03:00,
2013-06-18 19:04:00,88.7,31.6,29.03,SE,137,0.0,2.7,13,0.00,,---,0.00,VWS V14.01,2013-06-18 23:04:00,
2013-06-18 19:05:00,88.5,31.5,29.03,SE,128,3.1,4.9,13,0.00,,---,0.00,VWS V14.01,2013-06-18 23:05:00,
2013-06-18 19:06:00,88.0,31.0,29.03,SE,128,6.7,6.7,13,0.00,,---,0.00,VWS V14.01,2013-06-18 23:06:00,
2013-06-18 19:07:00,88.2,31.2,29.03,ESE,121,0.0,6.7,13,0.00,,---,0.00,VWS V14.01,2013-06-18 23:07:00,
2013-06-18 19:08:00,88.2,31.2,29.03,East,83,0.0,3.1,13,0.00,,---,0.00,VWS V14.01,2013-06-18 23:08:00,
2013-06-18 19:09:00,88.2,31.2,29.03,ESE,104,5.4,5.4,13,0.00,,---,0.00,VWS V14.01,2013-06-18 23:09:00,
2013-06-18 19:10:00,87.8,30.9,29.03,ESE,109,4.0,5.4,13,0.00,,---,0.00,VWS V14.01,2013-06-18 23:10:00,
2013-06-18 19:11:00,88.2,31.2,29.03,East,101,0.0,4.0,13,0.00,,---,0.00,VWS V14.01,2013-06-18 23:11:00,
2013-06-18 19:12:00,88.2,31.2,29.03,SE,137,3.6,4.5,13,0.00,,---,0.00,VWS V14.01,2013-06-18 23:12:00,
2013-06-18 19:13:00,87.6,30.8,29.03,ESE,108,2.7,4.9,13,0.00,,---,0.00,VWS V14.01,2013-06-18 23:13:00,
2013-06-18 19:14:00,88.5,31.5,29.03,ESE,108,0.0,3.6,13,0.00,,---,0.00,VWS V14.01,2013-06-18 23:14:00,
2013-06-18 19:15:00,89.6,35.9,28.88,ENE,76,0.0,0.0,15,0.00,,---,0.00,VWS V14.01,2013-06-18 23:15:00,
2013-06-18 19:16:00,90.1,30.7,29.03,ESE,108,0.0,0.0,12,0.00,,---,0.00,VWS V14.01,2013-06-18 23:16:00,
2013-06-18 19:17:00,90.1,30.7,29.03,ESE,108,0.0,0.0,12,0.00,,---,0.00,VWS V14.01,2013-06-18 23:17:00,
2013-06-18 19:18:00,90.0,30.6,29.03,ESE,112,3.1,4.0,12,0.00,,---,0.00,VWS V14.01,2013-06-18 23:18:00,
2013-06-18 19:19:00,90.0,30.6,29.03,East,100,2.7,4.5,12,0.00,,---,0.00,VWS V14.01,2013-06-18 23:19:00,
2013-06-18 19:20:00,90.1,30.7,29.03,ESE,106,4.0,4.9,12,0.00,,---,0.00,VWS V14.01,2013-06-18 23:20:00,
2013-06-18 19:21:00,90.0,30.6,29.03,ESE,111,2.7,5.4,12,0.00,,---,0.00,VWS V14.01,2013-06-18 23:21:00,
2013-06-18 19:22:00,90.7,31.2,29.03,East,94,3.6,4.0,12,0.00,,---,0.00,VWS V14.01,2013-06-18 23:22:00,
2013-06-18 19:23:00,90.3,30.9,29.03,ESE,112,4.0,4.9,12,0.00,,---,0.00,VWS V14.01,2013-06-18 23:23:00,
2013-06-18 19:24:00,90.5,31.0,29.03,East,95,3.6,4.5,12,0.00,,---,0.00,VWS V14.01,2013-06-18 23:24:00,
2013-06-18 19:25:00,90.0,30.6,29.03,ENE,78,4.5,4.9,12,0.00,,---,0.00,VWS V14.01,2013-06-18 23:25:00,
2013-06-18 19:26:00,91.6,31.9,28.88,North,356,0.0,0.0,12,0.00,,---,0.00,VWS V14.01,2013-06-18 23:26:00,
2013-06-18 19:27:00,88.9,29.8,29.03,ESE,102,4.9,6.7,12,0.00,,---,0.00,VWS V14.01,2013-06-18 23:27:00,
2013-06-18 19:28:00,88.9,29.8,29.03,ESE,117,5.8,6.3,12,0.00,,---,0.00,VWS V14.01,2013-06-18 23:28:00,
2013-06-18 19:29:00,88.3,31.3,29.03,ESE,111,5.4,6.3,13,0.00,,---,0.00,VWS V14.01,2013-06-18 23:29:00,
2013-06-18 19:30:00,88.2,31.2,29.03,ESE,107,3.6,5.4,13,0.00,,---,0.00,VWS V14.01,2013-06-18 23:30:00,
2013-06-18 19:31:00,91.6,31.9,28.88,ENE,71,3.6,4.9,12,0.00,,---,0.00,VWS V14.01,2013-06-18 23:31:00,
2013-06-18 19:32:00,89.4,30.2,29.03,ESE,107,0.0,0.0,12,0.00,,---,0.00,VWS V14.01,2013-06-18 23:32:00,
2013-06-18 19:33:00,89.4,30.2,29.03,ESE,107,0.0,0.0,12,0.00,,---,0.00,VWS V14.01,2013-06-18 23:33:00,
2013-06-18 19:34:00,89.8,30.5,29.03,ESE,107,0.0,0.0,12,0.00,,---,0.00,VWS V14.01,2013-06-18 23:34:00,
2013-06-18 19:35:00,90.7,31.2,29.03,ESE,107,0.0,0.0,12,0.00,,---,0.00,VWS V14.01,2013-06-18 23:35:00,
2013-06-18 19:36:00,90.9,31.3,28.88,East,98,0.0,2.7,12,0.00,,---,0.00,VWS V14.01,2013-06-18 23:36:00,
2013-06-18 19:37:00,90.9,31.3,29.03,East,95,3.1,4.5,12,0.00,,---,0.00,VWS V14.01,2013-06-18 23:37:00,
2013-06-18 19:38:00,90.1,30.7,29.03,East,92,0.0,3.1,12,0.00,,---,0.00,VWS V14.01,2013-06-18 23:38:00,
2013-06-18 19:39:00,89.8,30.5,29.03,East,91,2.7,3.1,12,0.00,,---,0.00,VWS V14.01,2013-06-18 23:39:00,
2013-06-18 19:40:00,89.6,30.3,29.03,ESE,118,0.0,3.6,12,0.00,,---,0.00,VWS V14.01,2013-06-18 23:40:00,
2013-06-18 19:41:00,89.6,30.3,29.03,ESE,118,0.0,0.0,12,0.00,,---,0.00,VWS V14.01,2013-06-18 23:41:00,
2013-06-18 19:42:00,88.9,29.8,28.88,East,89,0.0,4.5,12,0.00,,---,0.00,VWS V14.01,2013-06-18 23:42:00,
2013-06-18 19:43:00,88.0,31.0,29.03,ESE,118,0.0,0.0,13,0.00,,---,0.00,VWS V14.01,2013-06-18 23:43:00,
2013-06-18 19:44:00,87.1,30.3,29.03,ENE,76,3.1,3.1,13,0.00,,---,0.00,VWS V14.01,2013-06-18 23:44:00,
2013-06-18 19:45:00,85.8,29.4,29.03,East,92,0.0,4.0,13,0.00,,---,0.00,VWS V14.01,2013-06-18 23:45:00,
2013-06-18 19:46:00,85.1,28.8,29.03,East,79,0.0,3.6,13,0.00,,---,0.00,VWS V14.01,2013-06-18 23:46:00,
2013-06-18 19:47:00,86.0,29.5,28.91,East,89,0.0,0.0,13,0.00,,---,0.00,VWS V14.01,2013-06-18 23:47:00,
2013-06-18 19:48:00,83.5,27.5,29.03,East,83,3.1,5.8,13,0.00,,---,0.00,VWS V14.01,2013-06-18 23:48:00,
2013-06-18 19:49:00,82.9,28.9,29.03,East,83,0.0,3.1,14,0.00,,---,0.00,VWS V14.01,2013-06-18 23:49:00,
2013-06-18 19:50:00,82.4,28.5,29.03,East,83,0.0,0.0,14,0.00,,---,0.00,VWS V14.01,2013-06-18 23:50:00,
2013-06-18 19:51:00,82.0,28.2,29.03,East,83,0.0,0.0,14,0.00,,---,0.00,VWS V14.01,2013-06-18 23:51:00,
2013-06-18 19:52:00,82.6,36.2,28.91,North,9,0.0,0.0,19,0.00,,---,0.00,VWS V14.01,2013-06-18 23:52:00,
2013-06-18 19:53:00,81.5,27.8,29.03,East,83,0.0,0.0,14,0.00,,---,0.00,VWS V14.01,2013-06-18 23:53:00,
2013-06-18 19:54:00,81.0,27.3,29.03,East,83,0.0,0.0,14,0.00,,---,0.00,VWS V14.01,2013-06-18 23:54:00,
2013-06-18 19:55:00,80.6,27.0,29.03,East,83,0.0,0.0,14,0.00,,---,0.00,VWS V14.01,2013-06-18 23:55:00,
2013-06-18 19:56:00,80.4,26.9,29.03,East,83,0.0,0.0,14,0.00,,---,0.00,VWS V14.01,2013-06-18 23:56:00,
2013-06-18 19:57:00,80.4,37.0,28.91,SW,232,0.0,0.0,21,0.00,,---,0.00,VWS V14.01,2013-06-18 23:57:00,
2013-06-18 19:58:00,79.7,26.3,29.03,East,83,0.0,0.0,14,0.00,,---,0.00,VWS V14.01,2013-06-18 23:58:00,
2013-06-18 19:59:00,79.7,28.0,29.03,East,83,0.0,0.0,15,0.00,,---,0.00,VWS V14.01,2013-06-18 23:59:00,
2013-06-18 20:00:00,79.3,27.7,29.03,East,83,0.0,0.0,15,0.00,,---,0.00,VWS V14.01,2013-06-19 00:00:00,
2013-06-18 20:01:00,79.2,27.6,29.03,East,83,0.0,0.0,15,0.00,,---,0.00,VWS V14.01,2013-06-19 00:01:00,
2013-06-18 20:02:00,79.0,39.2,28.91,WNW,284,0.0,0.0,24,0.00,,---,0.00,VWS V14.01,2013-06-19 00:02:00,
2013-06-18 20:03:00,78.6,27.1,29.03,East,83,0.0,0.0,15,0.00,,---,0.00,VWS V14.01,2013-06-19 00:03:00,
2013-06-18 20:04:00,78.4,27.0,29.03,East,83,0.0,0.0,15,0.00,,---,0.00,VWS V14.01,2013-06-19 00:04:00,
2013-06-18 20:05:00,78.3,26.9,29.03,SE,134,3.1,3.6,15,0.00,,---,0.00,VWS V14.01,2013-06-19 00:05:00,
2013-06-18 20:06:00,78.1,26.7,29.03,ENE,76,0.0,4.0,15,0.00,,---,0.00,VWS V14.01,2013-06-19 00:06:00,
2013-06-18 20:07:00,78.1,29.8,29.03,ENE,76,0.0,0.0,17,0.00,,---,0.00,VWS V14.01,2013-06-19 00:07:00,
2013-06-18 20:08:00,78.1,39.4,28.91,ENE,78,0.0,3.1,25,0.00,,---,0.00,VWS V14.01,2013-06-19 00:08:00,
2013-06-18 20:09:00,77.7,30.9,29.03,East,93,0.0,0.0,18,0.00,,---,0.00,VWS V14.01,2013-06-19 00:09:00,
2013-06-18 20:10:00,77.5,30.7,29.03,East,98,0.0,0.0,18,0.00,,---,0.00,VWS V14.01,2013-06-19 00:10:00,
2013-06-18 20:11:00,77.5,30.7,29.03,East,98,0.0,0.0,18,0.00,,---,0.00,VWS V14.01,2013-06-19 00:11:00,
2013-06-18 20:12:00,77.5,30.7,29.03,East,98,0.0,0.0,18,0.00,,---,0.00,VWS V14.01,2013-06-19 00:12:00,
2013-06-18 20:13:00,77.7,41.1,28.91,ENE,71,0.0,3.6,27,0.00,,---,0.00,VWS V14.01,2013-06-19 00:13:00,
2013-06-18 20:14:00,77.4,30.6,29.03,East,98,0.0,0.0,18,0.00,,---,0.00,VWS V14.01,2013-06-19 00:14:00,
2013-06-18 20:15:00,77.2,30.4,29.03,East,98,0.0,0.0,18,0.00,,---,0.00,VWS V14.01,2013-06-19 00:15:00,
2013-06-18 20:16:00,77.0,30.3,29.03,East,96,0.0,0.0,18,0.00,,---,0.00,VWS V14.01,2013-06-19 00:16:00,
2013-06-18 20:17:00,76.8,32.8,29.03,East,96,0.0,0.0,20,0.00,,---,0.00,VWS V14.01,2013-06-19 00:17:00,
2013-06-18 20:18:00,77.4,41.7,28.91,ENE,67,0.0,4.0,28,0.00,,---,0.00,VWS V14.01,2013-06-19 00:18:00,
2013-06-18 20:19:00,76.5,32.5,29.03,East,96,0.0,0.0,20,0.00,,---,0.00,VWS V14.01,2013-06-19 00:19:00,
2013-06-18 20:20:00,76.3,32.3,29.03,ESE,107,0.0,0.0,20,0.00,,---,0.00,VWS V14.01,2013-06-19 00:20:00,
2013-06-18 20:21:00,76.3,32.3,29.03,ESE,112,2.7,3.1,20,0.00,,---,0.00,VWS V14.01,2013-06-19 00:21:00,
2013-06-18 20:22:00,76.1,32.2,29.03,ESE,112,0.0,2.7,20,0.00,,---,0.00,VWS V14.01,2013-06-19 00:22:00,
2013-06-18 20:23:00,76.8,43.1,28.91,ENE,59,0.0,0.0,30,0.00,,---,0.00,VWS V14.01,2013-06-19 00:23:00,
2013-06-18 20:24:00,76.1,32.2,29.03,ESE,112,4.0,4.0,20,0.00,,---,0.00,VWS V14.01,2013-06-19 00:24:00,
2013-06-18 20:25:00,75.9,32.0,29.03,ESE,104,0.0,4.0,20,0.00,,---,0.00,VWS V14.01,2013-06-19 00:25:00,
2013-06-18 20:26:00,75.9,32.0,29.03,ESE,115,2.7,3.6,20,0.00,,---,0.00,VWS V14.01,2013-06-19 00:26:00,
2013-06-18 20:27:00,75.9,32.0,29.03,ESE,114,3.1,4.0,20,0.00,,---,0.00,VWS V14.01,2013-06-19 00:27:00,
2013-06-18 20:28:00,75.7,31.9,29.03,ESE,114,0.0,3.1,20,0.00,,---,0.00,VWS V14.01,2013-06-19 00:28:00,
2013-06-18 20:29:00,76.5,42.8,28.91,East,89,0.0,4.0,30,0.00,,---,0.00,VWS V14.01,2013-06-19 00:29:00,
2013-06-18 20:30:00,75.7,31.9,29.03,ESE,114,0.0,0.0,20,0.00,,---,0.00,VWS V14.01,2013-06-19 00:30:00,
2013-06-18 20:32:00,75.6,31.7,29.03,ESE,111,0.0,0.0,20,0.00,,---,0.00,VWS V14.01,2013-06-19 00:32:00,
2013-06-18 20:33:00,75.6,32.9,29.03,ESE,111,0.0,0.0,21,0.00,,---,0.00,VWS V14.01,2013-06-19 00:33:00,
2013-06-18 20:34:00,75.6,32.9,29.03,ESE,111,0.0,0.0,21,0.00,,---,0.00,VWS V14.01,2013-06-19 00:34:00,
2013-06-18 20:35:00,76.1,42.5,28.91,ENE,71,0.0,0.0,30,0.00,,---,0.00,VWS V14.01,2013-06-19 00:35:00,
2013-06-18 20:36:00,75.4,32.8,29.03,ESE,111,0.0,0.0,21,0.00,,---,0.00,VWS V14.01,2013-06-19 00:36:00,
2013-06-18 20:37:00,75.4,32.8,29.03,ESE,111,0.0,0.0,21,0.00,,---,0.00,VWS V14.01,2013-06-19 00:37:00,
2013-06-18 20:38:00,75.2,32.6,29.03,ESE,111,0.0,0.0,21,0.00,,---,0.00,VWS V14.01,2013-06-19 00:38:00,
2013-06-18 20:39:00,75.2,32.6,29.03,ESE,111,0.0,0.0,21,0.00,,---,0.00,VWS V14.01,2013-06-19 00:39:00,
2013-06-18 20:40:00,75.4,42.7,28.91,NE,41,0.0,2.7,31,0.00,,---,0.00,VWS V14.01,2013-06-19 00:40:00,
2013-06-18 20:41:00,75.0,32.5,29.03,ESE,111,0.0,0.0,21,0.00,,---,0.00,VWS V14.01,2013-06-19 00:41:00,
2013-06-18 20:42:00,74.8,33.5,29.03,ESE,111,0.0,0.0,22,0.00,,---,0.00,VWS V14.01,2013-06-19 00:42:00,
2013-06-18 20:43:00,74.8,33.5,29.03,ESE,111,0.0,0.0,22,0.00,,---,0.00,VWS V14.01,2013-06-19 00:43:00,
2013-06-18 20:44:00,74.7,33.3,29.03,ESE,111,0.0,0.0,22,0.00,,---,0.00,VWS V14.01,2013-06-19 00:44:00,
2013-06-18 20:45:00,75.0,43.2,28.91,ENE,73,0.0,4.5,32,0.00,,---,0.00,VWS V14.01,2013-06-19 00:45:00,
2013-06-18 20:46:00,74.5,33.2,29.03,ESE,111,0.0,0.0,22,0.00,,---,0.00,VWS V14.01,2013-06-19 00:46:00,
2013-06-18 20:47:00,74.3,33.0,29.03,ESE,111,0.0,0.0,22,0.00,,---,0.00,VWS V14.01,2013-06-19 00:47:00,
2013-06-18 20:48:00,74.3,34.1,29.03,ESE,111,0.0,0.0,23,0.00,,---,0.00,VWS V14.01,2013-06-19 00:48:00,
2013-06-18 20:49:00,74.1,34.0,29.03,ESE,111,0.0,0.0,23,0.00,,---,0.00,VWS V14.01,2013-06-19 00:49:00,
2013-06-18 20:50:00,74.1,34.0,29.03,ESE,111,0.0,0.0,23,0.00,,---,0.00,VWS V14.01,2013-06-19 00:50:00,
2013-06-18 20:51:00,74.5,43.5,28.91,WNW,284,4.0,4.9,33,0.00,,---,0.00,VWS V14.01,2013-06-19 00:51:00,
2013-06-18 20:52:00,73.9,33.8,29.03,ESE,111,0.0,0.0,23,0.00,,---,0.00,VWS V14.01,2013-06-19 00:52:00,
2013-06-18 20:53:00,73.8,33.7,29.03,ESE,111,0.0,0.0,23,0.00,,---,0.00,VWS V14.01,2013-06-19 00:53:00,
2013-06-18 20:54:00,73.8,33.7,29.03,ESE,111,0.0,0.0,23,0.00,,---,0.00,VWS V14.01,2013-06-19 00:54:00,
2013-06-18 20:55:00,73.6,33.5,29.03,ESE,111,0.0,0.0,23,0.00,,---,0.00,VWS V14.01,2013-06-19 00:55:00,
2013-06-18 20:56:00,73.8,42.9,28.91,East,79,2.7,4.0,33,0.00,,---,0.00,VWS V14.01,2013-06-19 00:56:00,
2013-06-18 20:57:00,73.6,34.6,29.03,ESE,111,0.0,0.0,24,0.00,,---,0.00,VWS V14.01,2013-06-19 00:57:00,
2013-06-18 20:58:00,73.4,35.5,29.03,ESE,111,0.0,0.0,25,0.00,,---,0.00,VWS V14.01,2013-06-19 00:58:00,
2013-06-18 20:59:00,73.4,35.5,29.03,ESE,111,0.0,0.0,25,0.00,,---,0.00,VWS V14.01,2013-06-19 00:59:00,
2013-06-18 21:00:00,73.2,35.3,29.03,ESE,111,0.0,0.0,25,0.00,,---,0.00,VWS V14.01,2013-06-19 01:00:00,
2013-06-18 21:01:00,73.6,45.0,28.91,ESE,106,4.9,5.8,36,0.00,,---,0.00,VWS V14.01,2013-06-19 01:01:00,
2013-06-18 21:02:00,73.0,36.2,29.03,ESE,111,0.0,0.0,26,0.00,,---,0.00,VWS V14.01,2013-06-19 01:02:00,
2013-06-18 21:03:00,72.9,36.0,29.03,ESE,111,0.0,0.0,26,0.00,,---,0.00,VWS V14.01,2013-06-19 01:03:00,
2013-06-18 21:04:00,72.9,36.0,29.03,ESE,111,0.0,0.0,26,0.00,,---,0.00,VWS V14.01,2013-06-19 01:04:00,
2013-06-18 21:05:00,72.7,35.8,29.03,ESE,111,0.0,0.0,26,0.00,,---,0.00,VWS V14.01,2013-06-19 01:05:00,
2013-06-18 21:06:00,72.5,35.7,29.03,ESE,111,0.0,0.0,26,0.00,,---,0.00,VWS V14.01,2013-06-19 01:06:00,
2013-06-18 21:07:00,73.0,45.2,28.91,East,81,0.0,4.5,37,0.00,,---,0.00,VWS V14.01,2013-06-19 01:07:00,
2013-06-18 21:08:00,72.3,35.5,29.03,ESE,111,0.0,0.0,26,0.00,,---,0.00,VWS V14.01,2013-06-19 01:08:00,
2013-06-18 21:09:00,72.3,35.5,29.03,ESE,111,0.0,0.0,26,0.00,,---,0.00,VWS V14.01,2013-06-19 01:09:00,
2013-06-18 21:10:00,72.1,35.4,29.03,ESE,111,0.0,0.0,26,0.00,,---,0.00,VWS V14.01,2013-06-19 01:10:00,
2013-06-18 21:11:00,72.1,35.4,29.03,ESE,111,0.0,0.0,26,0.00,,---,0.00,VWS V14.01,2013-06-19 01:11:00,
2013-06-18 21:12:00,72.7,46.3,28.91,East,100,2.7,4.5,39,0.00,,---,0.00,VWS V14.01,2013-06-19 01:12:00,
2013-06-18 21:13:00,72.0,35.2,29.06,ESE,111,0.0,0.0,26,0.00,,---,0.00,VWS V14.01,2013-06-19 01:13:00,
2013-06-18 21:14:00,71.8,35.1,29.06,ESE,111,0.0,0.0,26,0.00,,---,0.00,VWS V14.01,2013-06-19 01:14:00,
2013-06-18 21:15:00,71.8,35.1,29.06,ESE,111,0.0,0.0,26,0.00,,---,0.00,VWS V14.01,2013-06-19 01:15:00,
2013-06-18 21:16:00,71.8,36.0,29.06,ESE,111,0.0,0.0,27,0.00,,---,0.00,VWS V14.01,2013-06-19 01:16:00,
2013-06-18 21:17:00,72.3,47.3,28.91,ENE,66,3.6,6.3,41,0.00,,---,0.00,VWS V14.01,2013-06-19 01:17:00,
2013-06-18 21:18:00,71.6,35.9,29.06,ESE,111,0.0,0.0,27,0.00,,---,0.00,VWS V14.01,2013-06-19 01:18:00,
2013-06-18 21:19:00,71.6,37.7,29.06,ESE,111,0.0,0.0,29,0.00,,---,0.00,VWS V14.01,2013-06-19 01:19:00,
2013-06-18 21:20:00,71.4,37.5,29.06,ESE,111,0.0,0.0,29,0.00,,---,0.00,VWS V14.01,2013-06-19 01:20:00,
2013-06-18 21:21:00,71.4,37.5,29.06,ESE,111,0.0,0.0,29,0.00,,---,0.00,VWS V14.01,2013-06-19 01:21:00,
2013-06-18 21:22:00,72.0,47.0,28.91,East,82,4.0,4.0,41,0.00,,---,0.00,VWS V14.01,2013-06-19 01:22:00,
2013-06-18 21:23:00,71.2,37.4,29.06,ESE,111,0.0,0.0,29,0.00,,---,0.00,VWS V14.01,2013-06-19 01:23:00,
2013-06-18 21:24:00,71.1,37.2,29.06,ESE,111,0.0,0.0,29,0.00,,---,0.00,VWS V14.01,2013-06-19 01:24:00,
2013-06-18 21:25:00,71.1,37.2,29.06,ESE,111,0.0,0.0,29,0.00,,---,0.00,VWS V14.01,2013-06-19 01:25:00,
2013-06-18 21:26:00,71.1,38.1,29.06,ESE,111,0.0,0.0,30,0.00,,---,0.00,VWS V14.01,2013-06-19 01:26:00,
2013-06-18 21:27:00,72.0,47.6,28.91,ESE,116,0.0,0.0,42,0.00,,---,0.00,VWS V14.01,2013-06-19 01:27:00,
2013-06-18 21:28:00,70.9,38.8,29.06,ESE,111,0.0,0.0,31,0.00,,---,0.00,VWS V14.01,2013-06-19 01:28:00,
2013-06-18 21:29:00,70.9,38.8,29.06,ESE,111,0.0,0.0,31,0.00,,---,0.00,VWS V14.01,2013-06-19 01:29:00,
2013-06-18 21:30:00,70.7,38.6,29.06,ESE,111,0.0,0.0,31,0.00,,---,0.00,VWS V14.01,2013-06-19 01:30:00,
2013-06-18 21:31:00,70.7,39.4,29.06,ESE,111,0.0,0.0,32,0.00,,---,0.00,VWS V14.01,2013-06-19 01:31:00,
2013-06-18 21:32:00,71.6,47.3,28.94,NE,54,4.0,5.8,42,0.00,,---,0.00,VWS V14.01,2013-06-19 01:32:00,
2013-06-18 21:33:00,70.5,39.3,29.06,ESE,111,0.0,0.0,32,0.00,,---,0.00,VWS V14.01,2013-06-19 01:33:00,
2013-06-18 21:34:00,70.3,39.1,29.06,ESE,111,0.0,0.0,32,0.00,,---,0.00,VWS V14.01,2013-06-19 01:34:00,
2013-06-18 21:35:00,70.3,39.1,29.06,ESE,111,0.0,0.0,32,0.00,,---,0.00,VWS V14.01,2013-06-19 01:35:00,
2013-06-18 21:36:00,70.2,39.0,29.06,ESE,111,0.0,0.0,32,0.00,,---,0.00,VWS V14.01,2013-06-19 01:36:00,
2013-06-18 21:37:00,71.4,47.8,28.94,ENE,58,3.1,5.4,43,0.00,,---,0.00,VWS V14.01,2013-06-19 01:37:00,
2013-06-18 21:38:00,70.2,39.0,29.06,ESE,111,0.0,0.0,32,0.00,,---,0.00,VWS V14.01,2013-06-19 01:38:00,
2013-06-18 21:39:00,70.0,38.8,29.06,ESE,111,0.0,0.0,32,0.00,,---,0.00,VWS V14.01,2013-06-19 01:39:00,
2013-06-18 21:40:00,70.0,38.8,29.06,ESE,111,0.0,0.0,32,0.00,,---,0.00,VWS V14.01,2013-06-19 01:40:00,
2013-06-18 21:41:00,70.0,38.8,29.06,ESE,111,0.0,0.0,32,0.00,,---,0.00,VWS V14.01,2013-06-19 01:41:00,
2013-06-18 21:42:00,71.1,48.1,28.94,East,87,5.4,5.4,44,0.00,,---,0.00,VWS V14.01,2013-06-19 01:42:00,
2013-06-18 21:43:00,69.8,38.6,29.06,ESE,111,0.0,0.0,32,0.00,,---,0.00,VWS V14.01,2013-06-19 01:43:00,
2013-06-18 21:44:00,69.8,39.4,29.06,ESE,111,0.0,0.0,33,0.00,,---,0.00,VWS V14.01,2013-06-19 01:44:00,
2013-06-18 21:45:00,69.6,39.3,29.06,ESE,111,0.0,0.0,33,0.00,,---,0.00,VWS V14.01,2013-06-19 01:45:00,
2013-06-18 21:46:00,69.6,39.3,29.06,ESE,111,0.0,0.0,33,0.00,,---,0.00,VWS V14.01,2013-06-19 01:46:00,
2013-06-18 21:47:00,70.7,47.7,28.94,East,80,3.1,6.9,44,0.00,,---,0.00,VWS V14.01,2013-06-19 01:47:00,
2013-06-18 21:48:00,69.6,39.3,29.06,ESE,111,0.0,0.0,33,0.00,,---,0.00,VWS V14.01,2013-06-19 01:48:00,
2013-06-18 21:49:00,69.6,39.3,29.06,ESE,111,0.0,0.0,33,0.00,,---,0.00,VWS V14.01,2013-06-19 01:49:00,
2013-06-18 21:50:00,69.4,39.1,29.06,ESE,111,0.0,0.0,33,0.00,,---,0.00,VWS V14.01,2013-06-19 01:50:00,
2013-06-18 21:51:00,69.4,39.1,29.06,ESE,111,0.0,0.0,33,0.00,,---,0.00,VWS V14.01,2013-06-19 01:51:00,
2013-06-18 21:52:00,70.5,47.6,28.94,ESE,105,4.9,6.3,44,0.00,,---,0.00,VWS V14.01,2013-06-19 01:52:00,
2013-06-18 21:53:00,69.3,39.0,29.06,ESE,111,0.0,0.0,33,0.00,,---,0.00,VWS V14.01,2013-06-19 01:53:00,
2013-06-18 21:54:00,69.3,39.0,29.06,ESE,111,0.0,0.0,33,0.00,,---,0.00,VWS V14.01,2013-06-19 01:54:00,
2013-06-18 21:55:00,69.3,39.0,29.06,ESE,111,0.0,0.0,33,0.00,,---,0.00,VWS V14.01,2013-06-19 01:55:00,
2013-06-18 21:56:00,69.1,38.8,29.06,ESE,111,0.0,0.0,33,0.00,,---,0.00,VWS V14.01,2013-06-19 01:56:00,
2013-06-18 21:57:00,70.2,47.2,28.94,East,91,5.4,5.8,44,0.00,,---,0.00,VWS V14.01,2013-06-19 01:57:00,
2013-06-18 21:58:00,69.1,38.8,29.06,ESE,111,0.0,0.0,33,0.00,,---,0.00,VWS V14.01,2013-06-19 01:58:00,
2013-06-18 21:59:00,68.9,38.6,29.06,ESE,111,0.0,0.0,33,0.00,,---,0.00,VWS V14.01,2013-06-19 01:59:00,
2013-06-18 22:00:00,68.9,39.4,29.06,ESE,111,0.0,0.0,34,0.00,,---,0.00,VWS V14.01,2013-06-19 02:00:00,
2013-06-18 22:01:00,68.9,39.4,29.06,ESE,111,0.0,0.0,34,0.00,,---,0.00,VWS V14.01,2013-06-19 02:01:00,
2013-06-18 22:02:00,70.0,47.7,28.94,NE,55,4.5,5.8,45,0.00,,---,0.00,VWS V14.01,2013-06-19 02:02:00,
2013-06-18 22:03:00,68.7,39.2,29.06,ESE,111,0.0,0.0,34,0.00,,---,0.00,VWS V14.01,2013-06-19 02:03:00,
2013-06-18 22:04:00,68.7,39.2,29.06,ESE,111,0.0,0.0,34,0.00,,---,0.00,VWS V14.01,2013-06-19 02:04:00,
2013-06-18 22:05:00,68.7,40.0,29.06,ESE,111,0.0,0.0,35,0.00,,---,0.00,VWS V14.01,2013-06-19 02:05:00,
2013-06-18 22:06:00,68.7,40.7,29.06,ESE,111,0.0,0.0,36,0.00,,---,0.00,VWS V14.01,2013-06-19 02:06:00,
2013-06-18 22:07:00,69.6,48.0,28.94,ENE,70,3.1,5.4,46,0.00,,---,0.00,VWS V14.01,2013-06-19 02:07:00,
2013-06-18 22:08:00,68.5,40.6,29.06,ESE,111,0.0,0.0,36,0.00,,---,0.00,VWS V14.01,2013-06-19 02:08:00,
2013-06-18 22:09:00,68.5,40.6,29.06,ESE,111,0.0,0.0,36,0.00,,---,0.00,VWS V14.01,2013-06-19 02:09:00,
2013-06-18 22:10:00,68.5,41.3,29.06,ESE,111,0.0,0.0,37,0.00,,---,0.00,VWS V14.01,2013-06-19 02:10:00,
2013-06-18 22:11:00,68.5,41.3,29.06,ESE,111,0.0,0.0,37,0.00,,---,0.00,VWS V14.01,2013-06-19 02:11:00,
2013-06-18 22:12:00,69.3,48.2,28.94,NE,53,4.9,6.7,47,0.00,,---,0.00,VWS V14.01,2013-06-19 02:12:00,
2013-06-18 22:13:00,68.4,41.1,29.06,ESE,111,0.0,0.0,37,0.00,,---,0.00,VWS V14.01,2013-06-19 02:13:00,
2013-06-18 22:14:00,68.4,41.1,29.06,ESE,111,0.0,0.0,37,0.00,,---,0.00,VWS V14.01,2013-06-19 02:14:00,
2013-06-18 22:15:00,68.4,41.1,29.06,ESE,111,0.0,0.0,37,0.00,,---,0.00,VWS V14.01,2013-06-19 02:15:00,
2013-06-18 22:16:00,68.2,40.9,29.06,ESE,111,0.0,0.0,37,0.00,,---,0.00,VWS V14.01,2013-06-19 02:16:00,
2013-06-18 22:17:00,69.1,48.6,28.94,East,90,3.1,6.7,48,0.00,,---,0.00,VWS V14.01,2013-06-19 02:17:00,
2013-06-18 22:18:00,68.2,40.9,29.06,ESE,111,0.0,0.0,37,0.00,,---,0.00,VWS V14.01,2013-06-19 02:18:00,
2013-06-18 22:19:00,68.2,40.9,29.06,ESE,111,0.0,0.0,37,0.00,,---,0.00,VWS V14.01,2013-06-19 02:19:00,
2013-06-18 22:20:00,68.2,40.9,29.06,ESE,111,0.0,0.0,37,0.00,,---,0.00,VWS V14.01,2013-06-19 02:20:00,
2013-06-18 22:21:00,68.0,41.5,29.06,ESE,111,0.0,0.0,38,0.00,,---,0.00,VWS V14.01,2013-06-19 02:21:00,
2013-06-18 22:22:00,68.9,49.0,28.94,ENE,75,3.1,4.5,49,0.00,,---,0.00,VWS V14.01,2013-06-19 02:22:00,
2013-06-18 22:23:00,68.0,41.5,29.06,ESE,111,0.0,0.0,38,0.00,,---,0.00,VWS V14.01,2013-06-19 02:23:00,
2013-06-18 22:24:00,68.0,41.5,29.06,ESE,111,0.0,0.0,38,0.00,,---,0.00,VWS V14.01,2013-06-19 02:24:00,
2013-06-18 22:25:00,68.0,41.5,29.06,ESE,111,0.0,0.0,38,0.00,,---,0.00,VWS V14.01,2013-06-19 02:25:00,
2013-06-18 22:26:00,68.0,42.2,29.06,ESE,111,0.0,0.0,39,0.00,,---,0.00,VWS V14.01,2013-06-19 02:26:00,
2013-06-18 22:27:00,68.5,49.2,28.94,ENE,70,5.4,6.7,50,0.00,,---,0.00,VWS V14.01,2013-06-19 02:27:00,
2013-06-18 22:28:00,67.8,42.0,29.06,ESE,111,0.0,0.0,39,0.00,,---,0.00,VWS V14.01,2013-06-19 02:28:00,
2013-06-18 22:29:00,67.8,42.0,29.06,ESE,111,0.0,0.0,39,0.00,,---,0.00,VWS V14.01,2013-06-19 02:29:00,
2013-06-18 22:30:00,67.8,42.0,29.06,ESE,111,0.0,0.0,39,0.00,,---,0.00,VWS V14.01,2013-06-19 02:30:00,
2013-06-18 22:31:00,67.6,41.8,29.06,ESE,111,0.0,0.0,39,0.00,,---,0.00,VWS V14.01,2013-06-19 02:31:00,
2013-06-18 22:32:00,68.5,49.2,28.94,NE,53,3.1,6.7,50,0.00,,---,0.00,VWS V14.01,2013-06-19 02:32:00,
2013-06-18 22:33:00,67.6,42.5,29.06,ESE,111,0.0,0.0,40,0.00,,---,0.00,VWS V14.01,2013-06-19 02:33:00,
2013-06-18 22:34:00,67.6,42.5,29.06,ESE,111,0.0,0.0,40,0.00,,---,0.00,VWS V14.01,2013-06-19 02:34:00,
2013-06-18 22:35:00,67.5,42.3,29.06,ESE,111,0.0,0.0,40,0.00,,---,0.00,VWS V14.01,2013-06-19 02:35:00,
2013-06-18 22:36:00,67.5,42.3,29.06,ESE,111,0.0,0.0,40,0.00,,---,0.00,VWS V14.01,2013-06-19 02:36:00,
2013-06-18 22:37:00,68.4,48.5,28.94,East,94,3.6,8.7,49,0.00,,---,0.00,VWS V14.01,2013-06-19 02:37:00,
2013-06-18 22:38:00,67.5,43.0,29.06,ESE,111,0.0,0.0,41,0.00,,---,0.00,VWS V14.01,2013-06-19 02:38:00,
2013-06-18 22:39:00,67.3,42.8,29.06,ESE,111,0.0,0.0,41,0.00,,---,0.00,VWS V14.01,2013-06-19 02:39:00,
2013-06-18 22:40:00,67.3,43.4,29.06,ESE,111,0.0,0.0,42,0.00,,---,0.00,VWS V14.01,2013-06-19 02:40:00,
2013-06-18 22:41:00,67.3,43.4,29.06,ESE,111,0.0,0.0,42,0.00,,---,0.00,VWS V14.01,2013-06-19 02:41:00,
2013-06-18 22:42:00,68.4,48.5,28.94,East,86,5.8,6.3,49,0.00,,---,0.00,VWS V14.01,2013-06-19 02:42:00,
2013-06-18 22:43:00,67.3,43.4,29.06,ESE,111,0.0,0.0,42,0.00,,---,0.00,VWS V14.01,2013-06-19 02:43:00,
2013-06-18 22:44:00,67.1,43.3,29.06,ESE,111,0.0,0.0,42,0.00,,---,0.00,VWS V14.01,2013-06-19 02:44:00,
2013-06-18 22:45:00,67.1,43.3,29.06,ESE,111,0.0,0.0,42,0.00,,---,0.00,VWS V14.01,2013-06-19 02:45:00,
2013-06-18 22:46:00,67.1,43.9,29.06,ESE,111,0.0,0.0,43,0.00,,---,0.00,VWS V14.01,2013-06-19 02:46:00,
2013-06-18 22:47:00,68.2,48.3,28.97,East,87,4.5,4.9,49,0.00,,---,0.00,VWS V14.01,2013-06-19 02:47:00,
2013-06-18 22:48:00,67.1,43.9,29.06,ESE,111,0.0,0.0,43,0.00,,---,0.00,VWS V14.01,2013-06-19 02:48:00,
2013-06-18 22:49:00,66.9,44.3,29.06,ESE,111,0.0,0.0,44,0.00,,---,0.00,VWS V14.01,2013-06-19 02:49:00,
2013-06-18 22:50:00,66.9,44.3,29.06,ESE,111,0.0,0.0,44,0.00,,---,0.00,VWS V14.01,2013-06-19 02:50:00,
2013-06-18 22:51:00,66.9,44.3,29.06,ESE,111,0.0,0.0,44,0.00,,---,0.00,VWS V14.01,2013-06-19 02:51:00,
2013-06-18 22:52:00,68.0,48.7,28.97,NE,41,6.7,6.7,50,0.00,,---,0.00,VWS V14.01,2013-06-19 02:52:00,
2013-06-18 22:53:00,66.9,44.3,29.06,ESE,111,0.0,0.0,44,0.00,,---,0.00,VWS V14.01,2013-06-19 02:53:00,
2013-06-18 22:54:00,66.9,44.3,29.06,ESE,111,0.0,0.0,44,0.00,,---,0.00,VWS V14.01,2013-06-19 02:54:00,
2013-06-18 22:55:00,66.9,44.3,29.06,ESE,111,0.0,0.0,44,0.00,,---,0.00,VWS V14.01,2013-06-19 02:55:00,
2013-06-18 22:56:00,66.7,44.2,29.06,ESE,111,0.0,0.0,44,0.00,,---,0.00,VWS V14.01,2013-06-19 02:56:00,
2013-06-18 22:57:00,67.8,49.0,28.97,East,101,4.9,6.7,51,0.00,,---,0.00,VWS V14.01,2013-06-19 02:57:00,
2013-06-18 22:58:00,66.7,44.2,29.06,ESE,111,0.0,0.0,44,0.00,,---,0.00,VWS V14.01,2013-06-19 02:58:00,
2013-06-18 22:59:00,66.7,44.2,29.06,ESE,111,0.0,0.0,44,0.00,,---,0.00,VWS V14.01,2013-06-19 02:59:00,
2013-06-18 23:00:00,66.7,44.2,29.06,ESE,111,0.0,0.0,44,0.00,,---,0.00,VWS V14.01,2013-06-19 03:00:00,
2013-06-18 23:01:00,66.7,44.7,29.06,ESE,111,0.0,0.0,45,0.00,,---,0.00,VWS V14.01,2013-06-19 03:01:00,
2013-06-18 23:02:00,67.6,49.4,28.97,East,87,6.3,7.4,52,0.00,,---,0.00,VWS V14.01,2013-06-19 03:02:00,
2013-06-18 23:03:00,66.6,44.6,29.06,ESE,111,0.0,0.0,45,0.00,,---,0.00,VWS V14.01,2013-06-19 03:03:00,
2013-06-18 23:04:00,66.6,44.6,29.06,ESE,111,0.0,0.0,45,0.00,,---,0.00,VWS V14.01,2013-06-19 03:04:00,
2013-06-18 23:05:00,66.6,44.6,29.06,ESE,111,0.0,0.0,45,0.00,,---,0.00,VWS V14.01,2013-06-19 03:05:00,
2013-06-18 23:06:00,66.6,45.2,29.06,ESE,111,0.0,0.0,46,0.00,,---,0.00,VWS V14.01,2013-06-19 03:06:00,
2013-06-18 23:07:00,67.5,49.2,28.97,NE,44,5.8,6.9,52,0.00,,---,0.00,VWS V14.01,2013-06-19 03:07:00,
2013-06-18 23:08:00,66.6,45.2,29.06,ESE,111,0.0,0.0,46,0.00,,---,0.00,VWS V14.01,2013-06-19 03:08:00,
2013-06-18 23:09:00,66.4,45.0,29.06,ESE,111,0.0,0.0,46,0.00,,---,0.00,VWS V14.01,2013-06-19 03:09:00,
2013-06-18 23:10:00,66.4,45.0,29.06,ESE,111,0.0,0.0,46,0.00,,---,0.00,VWS V14.01,2013-06-19 03:10:00,
2013-06-18 23:11:00,66.4,45.0,29.06,ESE,111,0.0,0.0,46,0.00,,---,0.00,VWS V14.01,2013-06-19 03:11:00,
2013-06-18 23:12:00,67.5,49.8,28.97,East,92,4.0,4.5,53,0.00,,---,0.00,VWS V14.01,2013-06-19 03:12:00,
2013-06-18 23:13:00,66.4,45.0,29.06,ESE,111,0.0,0.0,46,0.00,,---,0.00,VWS V14.01,2013-06-19 03:13:00,
2013-06-18 23:14:00,66.4,45.0,29.06,ESE,111,0.0,0.0,46,0.00,,---,0.00,VWS V14.01,2013-06-19 03:14:00,
2013-06-18 23:15:00,66.4,45.0,29.06,ESE,111,0.0,0.0,46,0.00,,---,0.00,VWS V14.01,2013-06-19 03:15:00,
2013-06-18 23:16:00,66.2,44.8,29.06,ESE,111,0.0,0.0,46,0.00,,---,0.00,VWS V14.01,2013-06-19 03:16:00,
2013-06-18 23:17:00,67.3,50.1,28.97,ESE,108,3.6,6.9,54,0.00,,---,0.00,VWS V14.01,2013-06-19 03:17:00,
2013-06-18 23:18:00,66.2,44.8,29.06,ESE,111,0.0,0.0,46,0.00,,---,0.00,VWS V14.01,2013-06-19 03:18:00,
2013-06-18 23:19:00,66.2,44.8,29.06,ESE,111,0.0,0.0,46,0.00,,---,0.00,VWS V14.01,2013-06-19 03:19:00,
2013-06-18 23:20:00,66.2,44.8,29.06,ESE,111,0.0,0.0,46,0.00,,---,0.00,VWS V14.01,2013-06-19 03:20:00,
2013-06-18 23:21:00,66.2,44.8,29.06,ESE,111,0.0,0.0,46,0.00,,---,0.00,VWS V14.01,2013-06-19 03:21:00,
2013-06-18 23:22:00,66.2,44.8,29.06,ESE,111,0.0,0.0,46,0.00,,---,0.00,VWS V14.01,2013-06-19 03:22:00,
2013-06-18 23:23:00,66.9,50.7,28.97,East,86,4.0,6.7,56,0.00,,---,0.00,VWS V14.01,2013-06-19 03:23:00,
2013-06-18 23:24:00,66.0,44.7,29.06,ESE,111,0.0,0.0,46,0.00,,---,0.00,VWS V14.01,2013-06-19 03:24:00,
2013-06-18 23:25:00,66.0,44.7,29.06,ESE,111,0.0,0.0,46,0.00,,---,0.00,VWS V14.01,2013-06-19 03:25:00,
2013-06-18 23:26:00,66.0,44.7,29.06,ESE,111,0.0,0.0,46,0.00,,---,0.00,VWS V14.01,2013-06-19 03:26:00,
2013-06-18 23:27:00,66.0,44.7,29.06,ESE,111,0.0,0.0,46,0.00,,---,0.00,VWS V14.01,2013-06-19 03:27:00,
2013-06-18 23:28:00,66.7,51.0,28.97,ENE,65,4.5,6.7,57,0.00,,---,0.00,VWS V14.01,2013-06-19 03:28:00,
2013-06-18 23:29:00,66.0,45.2,29.06,ESE,111,0.0,0.0,47,0.00,,---,0.00,VWS V14.01,2013-06-19 03:29:00,
2013-06-18 23:30:00,66.0,45.2,29.06,ESE,111,0.0,0.0,47,0.00,,---,0.00,VWS V14.01,2013-06-19 03:30:00,
2013-06-18 23:31:00,66.0,45.2,29.06,ESE,111,0.0,0.0,47,0.00,,---,0.00,VWS V14.01,2013-06-19 03:31:00,
2013-06-18 23:32:00,66.0,45.2,29.06,ESE,111,0.0,0.0,47,0.00,,---,0.00,VWS V14.01,2013-06-19 03:32:00,
2013-06-18 23:33:00,66.7,51.0,28.97,East,92,5.4,9.2,57,0.00,,---,0.00,VWS V14.01,2013-06-19 03:33:00,
2013-06-18 23:34:00,66.0,45.2,29.06,ESE,111,0.0,0.0,47,0.00,,---,0.00,VWS V14.01,2013-06-19 03:34:00,
2013-06-18 23:35:00,66.0,45.2,29.06,ESE,111,0.0,0.0,47,0.00,,---,0.00,VWS V14.01,2013-06-19 03:35:00,
2013-06-18 23:36:00,66.0,45.2,29.06,ESE,111,0.0,0.0,47,0.00,,---,0.00,VWS V14.01,2013-06-19 03:36:00,
2013-06-18 23:37:00,66.0,45.2,29.06,ESE,111,0.0,2.7,47,0.00,,---,0.00,VWS V14.01,2013-06-19 03:37:00,
2013-06-18 23:38:00,66.6,51.3,28.97,ENE,63,6.3,6.7,58,0.00,,---,0.00,VWS V14.01,2013-06-19 03:38:00,
2013-06-18 23:39:00,66.0,45.2,29.06,ESE,111,0.0,0.0,47,0.00,,---,0.00,VWS V14.01,2013-06-19 03:39:00,
2013-06-18 23:40:00,66.0,45.2,29.06,ESE,111,0.0,0.0,47,0.00,,---,0.00,VWS V14.01,2013-06-19 03:40:00,
2013-06-18 23:41:00,66.0,45.2,29.06,ESE,111,0.0,0.0,47,0.00,,---,0.00,VWS V14.01,2013-06-19 03:41:00,
2013-06-18 23:42:00,66.0,45.2,29.06,ESE,111,0.0,0.0,47,0.00,,---,0.00,VWS V14.01,2013-06-19 03:42:00,
2013-06-18 23:43:00,66.4,51.6,28.97,ENE,70,3.6,7.4,59,0.00,,---,0.00,VWS V14.01,2013-06-19 03:43:00,
2013-06-18 23:44:00,66.0,45.2,29.06,ESE,111,0.0,0.0,47,0.00,,---,0.00,VWS V14.01,2013-06-19 03:44:00,
2013-06-18 23:45:00,66.0,44.7,29.06,ESE,111,0.0,0.0,46,0.00,,---,0.00,VWS V14.01,2013-06-19 03:45:00,
2013-06-18 23:46:00,66.0,44.7,29.06,ESE,111,0.0,0.0,46,0.00,,---,0.00,VWS V14.01,2013-06-19 03:46:00,
2013-06-18 23:47:00,65.8,44.5,29.06,ESE,111,0.0,0.0,46,0.00,,---,0.00,VWS V14.01,2013-06-19 03:47:00,
2013-06-18 23:48:00,66.2,51.9,28.97,East,88,3.6,5.8,60,0.00,,---,0.00,VWS V14.01,2013-06-19 03:48:00,
2013-06-18 23:49:00,65.8,44.5,29.06,ESE,111,0.0,0.0,46,0.00,,---,0.00,VWS V14.01,2013-06-19 03:49:00,
2013-06-18 23:50:00,65.8,44.5,29.06,ESE,111,0.0,0.0,46,0.00,,---,0.00,VWS V14.01,2013-06-19 03:50:00,
2013-06-18 23:51:00,65.8,44.5,29.06,ESE,111,0.0,0.0,46,0.00,,---,0.00,VWS V14.01,2013-06-19 03:51:00,
2013-06-18 23:52:00,65.8,44.5,29.06,ESE,111,0.0,0.0,46,0.00,,---,0.00,VWS V14.01,2013-06-19 03:52:00,
2013-06-18 23:53:00,66.0,51.8,28.97,East,101,4.5,5.8,60,0.00,,---,0.00,VWS V14.01,2013-06-19 03:53:00,
2013-06-18 23:54:00,65.8,44.5,29.06,ESE,111,0.0,0.0,46,0.00,,---,0.00,VWS V14.01,2013-06-19 03:54:00,
2013-06-18 23:55:00,65.8,44.5,29.06,ESE,111,0.0,0.0,46,0.00,,---,0.00,VWS V14.01,2013-06-19 03:55:00,
2013-06-18 23:56:00,65.7,44.3,29.06,ESE,111,0.0,0.0,46,0.00,,---,0.00,VWS V14.01,2013-06-19 03:56:00,
2013-06-18 23:57:00,65.7,44.3,29.06,ESE,111,0.0,0.0,46,0.00,,---,0.00,VWS V14.01,2013-06-19 03:57:00,
2013-06-18 23:58:00,65.8,52.0,28.97,ENE,76,4.9,4.9,61,0.00,,---,0.00,VWS V14.01,2013-06-19 03:58:00,
2013-06-18 23:59:00,65.7,44.9,29.06,ESE,111,0.0,0.0,47,0.00,,---,0.00,VWS V14.01,2013-06-19 03:59:00,